<?xml version="1.0" encoding="UTF-8" standalone="yes"?>
<gpx
 xmlns="http://www.topografix.com/GPX/1/1"
 creator="OziExplorer Version 3956d - http://www.oziexplorer.com"
 version="1.1"
 xmlns:xsi="http://www.w3.org/2001/XMLSchema-instance"
 xsi:schemaLocation="http://www.topografix.com/GPX/1/1 http://www.topografix.com/GPX/1/1/gpx.xsd">
<metadata>
 <time>2015-03-03T17:43:55Z</time>
 <bounds minlat="30.849684" minlon="34.760695" maxlat="30.908943" maxlon="34.860819"/>
</metadata>
<trk>
 <name>halukim1_25km</name>
 <desc>BenGurion_Halukim, 25 km.</desc>
<trkseg>
<trkpt lat="30.8496840" lon="34.7791120">
<ele>479.799988</ele>
<time>2014-01-03T06:58:08.000Z</time>
</trkpt>
<trkpt lat="30.8497340" lon="34.7791410">
<ele>479.900024</ele>
<time>2014-01-03T06:58:24.000Z</time>
</trkpt>
<trkpt lat="30.8497810" lon="34.7791510">
<ele>479.900024</ele>
<time>2014-01-03T06:58:39.000Z</time>
</trkpt>
<trkpt lat="30.8498200" lon="34.7791820">
<ele>480.100006</ele>
<time>2014-01-03T06:58:53.000Z</time>
</trkpt>
<trkpt lat="30.8498340" lon="34.7792140">
<ele>480.200012</ele>
<time>2014-01-03T06:59:33.000Z</time>
</trkpt>
<trkpt lat="30.8498230" lon="34.7792560">
<ele>480.299988</ele>
<time>2014-01-03T07:00:12.000Z</time>
</trkpt>
<trkpt lat="30.8498180" lon="34.7792460">
<ele>480.299988</ele>
<time>2014-01-03T07:00:53.000Z</time>
</trkpt>
<trkpt lat="30.8497770" lon="34.7792220">
<ele>480.200012</ele>
<time>2014-01-03T07:01:22.000Z</time>
</trkpt>
<trkpt lat="30.8498290" lon="34.7792550">
<ele>480.299988</ele>
<time>2014-01-03T07:01:59.000Z</time>
</trkpt>
<trkpt lat="30.8499180" lon="34.7793010">
<ele>480.399994</ele>
<time>2014-01-03T07:02:03.000Z</time>
</trkpt>
<trkpt lat="30.8500110" lon="34.7793370">
<ele>480.399994</ele>
<time>2014-01-03T07:02:06.000Z</time>
</trkpt>
<trkpt lat="30.8501080" lon="34.7793140">
<ele>480.299988</ele>
<time>2014-01-03T07:02:08.000Z</time>
</trkpt>
<trkpt lat="30.8502000" lon="34.7792350">
<ele>480.100006</ele>
<time>2014-01-03T07:02:11.000Z</time>
</trkpt>
<trkpt lat="30.8502930" lon="34.7791640">
<ele>480.000000</ele>
<time>2014-01-03T07:02:15.000Z</time>
</trkpt>
<trkpt lat="30.8503640" lon="34.7790870">
<ele>480.000000</ele>
<time>2014-01-03T07:02:18.000Z</time>
</trkpt>
<trkpt lat="30.8504050" lon="34.7789850">
<ele>480.000000</ele>
<time>2014-01-03T07:02:20.000Z</time>
</trkpt>
<trkpt lat="30.8504470" lon="34.7788870">
<ele>480.000000</ele>
<time>2014-01-03T07:02:24.000Z</time>
</trkpt>
<trkpt lat="30.8504610" lon="34.7787770">
<ele>480.000000</ele>
<time>2014-01-03T07:02:30.000Z</time>
</trkpt>
<trkpt lat="30.8503920" lon="34.7786780">
<ele>479.900024</ele>
<time>2014-01-03T07:02:34.000Z</time>
</trkpt>
<trkpt lat="30.8503880" lon="34.7785730">
<ele>479.900024</ele>
<time>2014-01-03T07:02:38.000Z</time>
</trkpt>
<trkpt lat="30.8504640" lon="34.7784630">
<ele>480.000000</ele>
<time>2014-01-03T07:02:42.000Z</time>
</trkpt>
<trkpt lat="30.8505380" lon="34.7783580">
<ele>480.100006</ele>
<time>2014-01-03T07:02:45.000Z</time>
</trkpt>
<trkpt lat="30.8506180" lon="34.7782450">
<ele>480.100006</ele>
<time>2014-01-03T07:02:47.000Z</time>
</trkpt>
<trkpt lat="30.8507280" lon="34.7780880">
<ele>480.299988</ele>
<time>2014-01-03T07:02:51.000Z</time>
</trkpt>
<trkpt lat="30.8507890" lon="34.7780000">
<ele>480.399994</ele>
<time>2014-01-03T07:02:54.000Z</time>
</trkpt>
<trkpt lat="30.8508750" lon="34.7778810">
<ele>480.500000</ele>
<time>2014-01-03T07:02:57.000Z</time>
</trkpt>
<trkpt lat="30.8509630" lon="34.7777740">
<ele>480.299988</ele>
<time>2014-01-03T07:03:00.000Z</time>
</trkpt>
<trkpt lat="30.8510340" lon="34.7776480">
<ele>479.900024</ele>
<time>2014-01-03T07:03:02.000Z</time>
</trkpt>
<trkpt lat="30.8510870" lon="34.7775560">
<ele>479.699982</ele>
<time>2014-01-03T07:03:05.000Z</time>
</trkpt>
<trkpt lat="30.8511480" lon="34.7774600">
<ele>479.399994</ele>
<time>2014-01-03T07:03:06.000Z</time>
</trkpt>
<trkpt lat="30.8512100" lon="34.7773650">
<ele>479.000000</ele>
<time>2014-01-03T07:03:09.000Z</time>
</trkpt>
<trkpt lat="30.8512720" lon="34.7772700">
<ele>478.700012</ele>
<time>2014-01-03T07:03:10.000Z</time>
</trkpt>
<trkpt lat="30.8513400" lon="34.7771780">
<ele>478.399994</ele>
<time>2014-01-03T07:03:13.000Z</time>
</trkpt>
<trkpt lat="30.8514050" lon="34.7770910">
<ele>478.199982</ele>
<time>2014-01-03T07:03:14.000Z</time>
</trkpt>
<trkpt lat="30.8514570" lon="34.7769880">
<ele>477.800018</ele>
<time>2014-01-03T07:03:17.000Z</time>
</trkpt>
<trkpt lat="30.8515370" lon="34.7768790">
<ele>477.399994</ele>
<time>2014-01-03T07:03:18.000Z</time>
</trkpt>
<trkpt lat="30.8516180" lon="34.7767760">
<ele>477.100006</ele>
<time>2014-01-03T07:03:21.000Z</time>
</trkpt>
<trkpt lat="30.8516840" lon="34.7766810">
<ele>476.799988</ele>
<time>2014-01-03T07:03:23.000Z</time>
</trkpt>
<trkpt lat="30.8517480" lon="34.7765820">
<ele>476.600006</ele>
<time>2014-01-03T07:03:25.000Z</time>
</trkpt>
<trkpt lat="30.8518080" lon="34.7764870">
<ele>476.300018</ele>
<time>2014-01-03T07:03:27.000Z</time>
</trkpt>
<trkpt lat="30.8518640" lon="34.7764030">
<ele>476.100006</ele>
<time>2014-01-03T07:03:28.000Z</time>
</trkpt>
<trkpt lat="30.8519380" lon="34.7762920">
<ele>475.800018</ele>
<time>2014-01-03T07:03:32.000Z</time>
</trkpt>
<trkpt lat="30.8520130" lon="34.7761800">
<ele>474.600006</ele>
<time>2014-01-03T07:03:35.000Z</time>
</trkpt>
<trkpt lat="30.8520870" lon="34.7760820">
<ele>473.400024</ele>
<time>2014-01-03T07:03:37.000Z</time>
</trkpt>
<trkpt lat="30.8521610" lon="34.7759760">
<ele>472.399994</ele>
<time>2014-01-03T07:03:40.000Z</time>
</trkpt>
<trkpt lat="30.8522350" lon="34.7758660">
<ele>471.600006</ele>
<time>2014-01-03T07:03:44.000Z</time>
</trkpt>
<trkpt lat="30.8523040" lon="34.7757610">
<ele>471.000000</ele>
<time>2014-01-03T07:03:47.000Z</time>
</trkpt>
<trkpt lat="30.8523640" lon="34.7756610">
<ele>470.700012</ele>
<time>2014-01-03T07:03:50.000Z</time>
</trkpt>
<trkpt lat="30.8524240" lon="34.7755760">
<ele>470.700012</ele>
<time>2014-01-03T07:03:52.000Z</time>
</trkpt>
<trkpt lat="30.8524890" lon="34.7754820">
<ele>470.899994</ele>
<time>2014-01-03T07:03:55.000Z</time>
</trkpt>
<trkpt lat="30.8525530" lon="34.7753800">
<ele>471.500000</ele>
<time>2014-01-03T07:03:59.000Z</time>
</trkpt>
<trkpt lat="30.8526090" lon="34.7752840">
<ele>472.599976</ele>
<time>2014-01-03T07:04:02.000Z</time>
</trkpt>
<trkpt lat="30.8526670" lon="34.7751700">
<ele>473.700012</ele>
<time>2014-01-03T07:04:06.000Z</time>
</trkpt>
<trkpt lat="30.8527270" lon="34.7750620">
<ele>474.900024</ele>
<time>2014-01-03T07:04:10.000Z</time>
</trkpt>
<trkpt lat="30.8527960" lon="34.7749480">
<ele>476.300018</ele>
<time>2014-01-03T07:04:14.000Z</time>
</trkpt>
<trkpt lat="30.8528480" lon="34.7748530">
<ele>477.399994</ele>
<time>2014-01-03T07:04:17.000Z</time>
</trkpt>
<trkpt lat="30.8529040" lon="34.7747580">
<ele>478.600006</ele>
<time>2014-01-03T07:04:19.000Z</time>
</trkpt>
<trkpt lat="30.8529560" lon="34.7746550">
<ele>479.099976</ele>
<time>2014-01-03T07:04:22.000Z</time>
</trkpt>
<trkpt lat="30.8530030" lon="34.7745540">
<ele>479.500000</ele>
<time>2014-01-03T07:04:26.000Z</time>
</trkpt>
<trkpt lat="30.8530500" lon="34.7744470">
<ele>479.799988</ele>
<time>2014-01-03T07:04:29.000Z</time>
</trkpt>
<trkpt lat="30.8530920" lon="34.7743400">
<ele>480.100006</ele>
<time>2014-01-03T07:04:31.000Z</time>
</trkpt>
<trkpt lat="30.8531310" lon="34.7742370">
<ele>480.299988</ele>
<time>2014-01-03T07:04:34.000Z</time>
</trkpt>
<trkpt lat="30.8531680" lon="34.7741370">
<ele>480.500000</ele>
<time>2014-01-03T07:04:38.000Z</time>
</trkpt>
<trkpt lat="30.8532060" lon="34.7740190">
<ele>480.700012</ele>
<time>2014-01-03T07:04:41.000Z</time>
</trkpt>
<trkpt lat="30.8532550" lon="34.7738910">
<ele>481.000000</ele>
<time>2014-01-03T07:04:45.000Z</time>
</trkpt>
<trkpt lat="30.8532790" lon="34.7737760">
<ele>481.199982</ele>
<time>2014-01-03T07:04:48.000Z</time>
</trkpt>
<trkpt lat="30.8533020" lon="34.7736440">
<ele>480.800018</ele>
<time>2014-01-03T07:04:50.000Z</time>
</trkpt>
<trkpt lat="30.8533300" lon="34.7735230">
<ele>480.399994</ele>
<time>2014-01-03T07:04:53.000Z</time>
</trkpt>
<trkpt lat="30.8533590" lon="34.7734010">
<ele>480.100006</ele>
<time>2014-01-03T07:04:57.000Z</time>
</trkpt>
<trkpt lat="30.8533880" lon="34.7732890">
<ele>479.900024</ele>
<time>2014-01-03T07:05:00.000Z</time>
</trkpt>
<trkpt lat="30.8534080" lon="34.7731840">
<ele>479.699982</ele>
<time>2014-01-03T07:05:02.000Z</time>
</trkpt>
<trkpt lat="30.8534340" lon="34.7730820">
<ele>479.699982</ele>
<time>2014-01-03T07:05:05.000Z</time>
</trkpt>
<trkpt lat="30.8534620" lon="34.7729800">
<ele>479.699982</ele>
<time>2014-01-03T07:05:09.000Z</time>
</trkpt>
<trkpt lat="30.8534880" lon="34.7728670">
<ele>479.600006</ele>
<time>2014-01-03T07:05:12.000Z</time>
</trkpt>
<trkpt lat="30.8535120" lon="34.7727530">
<ele>479.399994</ele>
<time>2014-01-03T07:05:15.000Z</time>
</trkpt>
<trkpt lat="30.8535340" lon="34.7726470">
<ele>479.300018</ele>
<time>2014-01-03T07:05:17.000Z</time>
</trkpt>
<trkpt lat="30.8535570" lon="34.7725380">
<ele>479.300018</ele>
<time>2014-01-03T07:05:20.000Z</time>
</trkpt>
<trkpt lat="30.8535780" lon="34.7724220">
<ele>479.300018</ele>
<time>2014-01-03T07:05:24.000Z</time>
</trkpt>
<trkpt lat="30.8536040" lon="34.7723030">
<ele>479.399994</ele>
<time>2014-01-03T07:05:27.000Z</time>
</trkpt>
<trkpt lat="30.8536400" lon="34.7721940">
<ele>480.000000</ele>
<time>2014-01-03T07:05:29.000Z</time>
</trkpt>
<trkpt lat="30.8536700" lon="34.7720890">
<ele>480.599976</ele>
<time>2014-01-03T07:05:32.000Z</time>
</trkpt>
<trkpt lat="30.8536970" lon="34.7719790">
<ele>481.700012</ele>
<time>2014-01-03T07:05:36.000Z</time>
</trkpt>
<trkpt lat="30.8537290" lon="34.7718580">
<ele>483.000000</ele>
<time>2014-01-03T07:05:39.000Z</time>
</trkpt>
<trkpt lat="30.8537620" lon="34.7717300">
<ele>483.899994</ele>
<time>2014-01-03T07:05:42.000Z</time>
</trkpt>
<trkpt lat="30.8537910" lon="34.7716070">
<ele>484.400024</ele>
<time>2014-01-03T07:05:44.000Z</time>
</trkpt>
<trkpt lat="30.8538190" lon="34.7715010">
<ele>484.799988</ele>
<time>2014-01-03T07:05:47.000Z</time>
</trkpt>
<trkpt lat="30.8538530" lon="34.7713710">
<ele>485.300018</ele>
<time>2014-01-03T07:05:51.000Z</time>
</trkpt>
<trkpt lat="30.8538750" lon="34.7712690">
<ele>485.699982</ele>
<time>2014-01-03T07:05:55.000Z</time>
</trkpt>
<trkpt lat="30.8539060" lon="34.7711440">
<ele>486.299988</ele>
<time>2014-01-03T07:05:59.000Z</time>
</trkpt>
<trkpt lat="30.8539410" lon="34.7710190">
<ele>487.000000</ele>
<time>2014-01-03T07:06:03.000Z</time>
</trkpt>
<trkpt lat="30.8539740" lon="34.7709130">
<ele>487.600006</ele>
<time>2014-01-03T07:06:07.000Z</time>
</trkpt>
<trkpt lat="30.8539960" lon="34.7708080">
<ele>488.100006</ele>
<time>2014-01-03T07:06:10.000Z</time>
</trkpt>
<trkpt lat="30.8540200" lon="34.7707070">
<ele>488.600006</ele>
<time>2014-01-03T07:06:14.000Z</time>
</trkpt>
<trkpt lat="30.8541060" lon="34.7706980">
<ele>489.100006</ele>
<time>2014-01-03T07:06:23.000Z</time>
</trkpt>
<trkpt lat="30.8542000" lon="34.7706460">
<ele>489.899994</ele>
<time>2014-01-03T07:06:29.000Z</time>
</trkpt>
<trkpt lat="30.8542130" lon="34.7705080">
<ele>490.399994</ele>
<time>2014-01-03T07:06:33.000Z</time>
</trkpt>
<trkpt lat="30.8542110" lon="34.7703960">
<ele>490.899994</ele>
<time>2014-01-03T07:06:36.000Z</time>
</trkpt>
<trkpt lat="30.8541680" lon="34.7702760">
<ele>491.200012</ele>
<time>2014-01-03T07:06:40.000Z</time>
</trkpt>
<trkpt lat="30.8541510" lon="34.7701550">
<ele>491.699982</ele>
<time>2014-01-03T07:06:45.000Z</time>
</trkpt>
<trkpt lat="30.8541140" lon="34.7700470">
<ele>492.000000</ele>
<time>2014-01-03T07:06:49.000Z</time>
</trkpt>
<trkpt lat="30.8540410" lon="34.7699500">
<ele>492.199982</ele>
<time>2014-01-03T07:06:52.000Z</time>
</trkpt>
<trkpt lat="30.8539620" lon="34.7698860">
<ele>492.100006</ele>
<time>2014-01-03T07:06:54.000Z</time>
</trkpt>
<trkpt lat="30.8539320" lon="34.7697830">
<ele>492.600006</ele>
<time>2014-01-03T07:07:03.000Z</time>
</trkpt>
<trkpt lat="30.8539170" lon="34.7698380">
<ele>492.199982</ele>
<time>2014-01-03T07:07:24.000Z</time>
</trkpt>
<trkpt lat="30.8538240" lon="34.7698270">
<ele>491.899994</ele>
<time>2014-01-03T07:07:28.000Z</time>
</trkpt>
<trkpt lat="30.8537220" lon="34.7697550">
<ele>491.899994</ele>
<time>2014-01-03T07:07:31.000Z</time>
</trkpt>
<trkpt lat="30.8536350" lon="34.7696850">
<ele>492.299988</ele>
<time>2014-01-03T07:07:32.000Z</time>
</trkpt>
<trkpt lat="30.8535540" lon="34.7696110">
<ele>492.600006</ele>
<time>2014-01-03T07:07:35.000Z</time>
</trkpt>
<trkpt lat="30.8534710" lon="34.7695420">
<ele>493.000000</ele>
<time>2014-01-03T07:07:36.000Z</time>
</trkpt>
<trkpt lat="30.8534040" lon="34.7694700">
<ele>493.399994</ele>
<time>2014-01-03T07:07:39.000Z</time>
</trkpt>
<trkpt lat="30.8533000" lon="34.7693820">
<ele>493.900024</ele>
<time>2014-01-03T07:07:42.000Z</time>
</trkpt>
<trkpt lat="30.8531880" lon="34.7692930">
<ele>494.299988</ele>
<time>2014-01-03T07:07:44.000Z</time>
</trkpt>
<trkpt lat="30.8530740" lon="34.7692060">
<ele>494.599976</ele>
<time>2014-01-03T07:07:47.000Z</time>
</trkpt>
<trkpt lat="30.8529680" lon="34.7691190">
<ele>494.899994</ele>
<time>2014-01-03T07:07:51.000Z</time>
</trkpt>
<trkpt lat="30.8528710" lon="34.7690490">
<ele>495.100006</ele>
<time>2014-01-03T07:07:54.000Z</time>
</trkpt>
<trkpt lat="30.8527710" lon="34.7689760">
<ele>495.400024</ele>
<time>2014-01-03T07:07:57.000Z</time>
</trkpt>
<trkpt lat="30.8526820" lon="34.7689070">
<ele>495.700012</ele>
<time>2014-01-03T07:07:59.000Z</time>
</trkpt>
<trkpt lat="30.8526380" lon="34.7687830">
<ele>496.500000</ele>
<time>2014-01-03T07:08:03.000Z</time>
</trkpt>
<trkpt lat="30.8526700" lon="34.7686510">
<ele>497.399994</ele>
<time>2014-01-03T07:08:07.000Z</time>
</trkpt>
<trkpt lat="30.8527220" lon="34.7685330">
<ele>498.299988</ele>
<time>2014-01-03T07:08:11.000Z</time>
</trkpt>
<trkpt lat="30.8527780" lon="34.7684220">
<ele>499.100006</ele>
<time>2014-01-03T07:08:15.000Z</time>
</trkpt>
<trkpt lat="30.8528240" lon="34.7683040">
<ele>500.000000</ele>
<time>2014-01-03T07:08:20.000Z</time>
</trkpt>
<trkpt lat="30.8528700" lon="34.7682130">
<ele>500.800018</ele>
<time>2014-01-03T07:08:22.000Z</time>
</trkpt>
<trkpt lat="30.8529260" lon="34.7681000">
<ele>501.699982</ele>
<time>2014-01-03T07:08:26.000Z</time>
</trkpt>
<trkpt lat="30.8529560" lon="34.7680000">
<ele>502.500000</ele>
<time>2014-01-03T07:08:29.000Z</time>
</trkpt>
<trkpt lat="30.8529700" lon="34.7678960">
<ele>503.299988</ele>
<time>2014-01-03T07:08:33.000Z</time>
</trkpt>
<trkpt lat="30.8529710" lon="34.7677780">
<ele>504.300018</ele>
<time>2014-01-03T07:08:37.000Z</time>
</trkpt>
<trkpt lat="30.8529770" lon="34.7676500">
<ele>505.500000</ele>
<time>2014-01-03T07:08:41.000Z</time>
</trkpt>
<trkpt lat="30.8529840" lon="34.7675350">
<ele>506.500000</ele>
<time>2014-01-03T07:08:44.000Z</time>
</trkpt>
<trkpt lat="30.8529930" lon="34.7674240">
<ele>507.399994</ele>
<time>2014-01-03T07:08:47.000Z</time>
</trkpt>
<trkpt lat="30.8530000" lon="34.7673040">
<ele>508.500000</ele>
<time>2014-01-03T07:08:51.000Z</time>
</trkpt>
<trkpt lat="30.8530140" lon="34.7671650">
<ele>509.600006</ele>
<time>2014-01-03T07:08:55.000Z</time>
</trkpt>
<trkpt lat="30.8530240" lon="34.7670590">
<ele>510.399994</ele>
<time>2014-01-03T07:08:57.000Z</time>
</trkpt>
<trkpt lat="30.8530520" lon="34.7669310">
<ele>511.000000</ele>
<time>2014-01-03T07:09:01.000Z</time>
</trkpt>
<trkpt lat="30.8530720" lon="34.7668180">
<ele>511.600006</ele>
<time>2014-01-03T07:09:05.000Z</time>
</trkpt>
<trkpt lat="30.8530930" lon="34.7666860">
<ele>512.200012</ele>
<time>2014-01-03T07:09:09.000Z</time>
</trkpt>
<trkpt lat="30.8531150" lon="34.7665570">
<ele>512.799988</ele>
<time>2014-01-03T07:09:14.000Z</time>
</trkpt>
<trkpt lat="30.8531380" lon="34.7664360">
<ele>513.200012</ele>
<time>2014-01-03T07:09:18.000Z</time>
</trkpt>
<trkpt lat="30.8531440" lon="34.7663200">
<ele>513.900024</ele>
<time>2014-01-03T07:09:22.000Z</time>
</trkpt>
<trkpt lat="30.8531570" lon="34.7661980">
<ele>514.400024</ele>
<time>2014-01-03T07:09:26.000Z</time>
</trkpt>
<trkpt lat="30.8531700" lon="34.7660710">
<ele>515.099976</ele>
<time>2014-01-03T07:09:30.000Z</time>
</trkpt>
<trkpt lat="30.8531950" lon="34.7659370">
<ele>515.500000</ele>
<time>2014-01-03T07:09:34.000Z</time>
</trkpt>
<trkpt lat="30.8532200" lon="34.7658060">
<ele>516.000000</ele>
<time>2014-01-03T07:09:38.000Z</time>
</trkpt>
<trkpt lat="30.8532370" lon="34.7656860">
<ele>516.400024</ele>
<time>2014-01-03T07:09:42.000Z</time>
</trkpt>
<trkpt lat="30.8532400" lon="34.7655780">
<ele>517.000000</ele>
<time>2014-01-03T07:09:46.000Z</time>
</trkpt>
<trkpt lat="30.8532230" lon="34.7654670">
<ele>517.900024</ele>
<time>2014-01-03T07:09:50.000Z</time>
</trkpt>
<trkpt lat="30.8531880" lon="34.7653590">
<ele>519.000000</ele>
<time>2014-01-03T07:09:54.000Z</time>
</trkpt>
<trkpt lat="30.8531780" lon="34.7652520">
<ele>519.599976</ele>
<time>2014-01-03T07:09:58.000Z</time>
</trkpt>
<trkpt lat="30.8531820" lon="34.7651450">
<ele>520.000000</ele>
<time>2014-01-03T07:10:02.000Z</time>
</trkpt>
<trkpt lat="30.8531860" lon="34.7650260">
<ele>520.500000</ele>
<time>2014-01-03T07:10:06.000Z</time>
</trkpt>
<trkpt lat="30.8531960" lon="34.7649120">
<ele>520.900024</ele>
<time>2014-01-03T07:10:10.000Z</time>
</trkpt>
<trkpt lat="30.8532020" lon="34.7647980">
<ele>521.299988</ele>
<time>2014-01-03T07:10:13.000Z</time>
</trkpt>
<trkpt lat="30.8531690" lon="34.7646910">
<ele>522.200012</ele>
<time>2014-01-03T07:10:17.000Z</time>
</trkpt>
<trkpt lat="30.8531260" lon="34.7645890">
<ele>523.200012</ele>
<time>2014-01-03T07:10:21.000Z</time>
</trkpt>
<trkpt lat="30.8531150" lon="34.7644820">
<ele>524.099976</ele>
<time>2014-01-03T07:10:25.000Z</time>
</trkpt>
<trkpt lat="30.8531310" lon="34.7643710">
<ele>524.600037</ele>
<time>2014-01-03T07:10:29.000Z</time>
</trkpt>
<trkpt lat="30.8531510" lon="34.7642580">
<ele>525.000000</ele>
<time>2014-01-03T07:10:33.000Z</time>
</trkpt>
<trkpt lat="30.8531650" lon="34.7641420">
<ele>525.599976</ele>
<time>2014-01-03T07:10:39.000Z</time>
</trkpt>
<trkpt lat="30.8531740" lon="34.7641210">
<ele>525.599976</ele>
<time>2014-01-03T07:11:19.000Z</time>
</trkpt>
<trkpt lat="30.8531850" lon="34.7640060">
<ele>526.200012</ele>
<time>2014-01-03T07:11:23.000Z</time>
</trkpt>
<trkpt lat="30.8531920" lon="34.7638820">
<ele>526.900024</ele>
<time>2014-01-03T07:11:27.000Z</time>
</trkpt>
<trkpt lat="30.8531730" lon="34.7637480">
<ele>528.000000</ele>
<time>2014-01-03T07:11:31.000Z</time>
</trkpt>
<trkpt lat="30.8531650" lon="34.7636410">
<ele>528.500000</ele>
<time>2014-01-03T07:11:34.000Z</time>
</trkpt>
<trkpt lat="30.8531780" lon="34.7635110">
<ele>528.799988</ele>
<time>2014-01-03T07:11:38.000Z</time>
</trkpt>
<trkpt lat="30.8532230" lon="34.7633960">
<ele>528.500000</ele>
<time>2014-01-03T07:11:42.000Z</time>
</trkpt>
<trkpt lat="30.8532670" lon="34.7632740">
<ele>528.200012</ele>
<time>2014-01-03T07:11:46.000Z</time>
</trkpt>
<trkpt lat="30.8532980" lon="34.7631550">
<ele>528.200012</ele>
<time>2014-01-03T07:11:50.000Z</time>
</trkpt>
<trkpt lat="30.8533130" lon="34.7630380">
<ele>528.400024</ele>
<time>2014-01-03T07:11:54.000Z</time>
</trkpt>
<trkpt lat="30.8533150" lon="34.7629220">
<ele>528.799988</ele>
<time>2014-01-03T07:11:58.000Z</time>
</trkpt>
<trkpt lat="30.8533100" lon="34.7628140">
<ele>529.299988</ele>
<time>2014-01-03T07:12:02.000Z</time>
</trkpt>
<trkpt lat="30.8533080" lon="34.7626910">
<ele>529.799988</ele>
<time>2014-01-03T07:12:06.000Z</time>
</trkpt>
<trkpt lat="30.8533130" lon="34.7625640">
<ele>530.299988</ele>
<time>2014-01-03T07:12:10.000Z</time>
</trkpt>
<trkpt lat="30.8533150" lon="34.7624500">
<ele>530.700012</ele>
<time>2014-01-03T07:12:14.000Z</time>
</trkpt>
<trkpt lat="30.8533440" lon="34.7623340">
<ele>530.799988</ele>
<time>2014-01-03T07:12:18.000Z</time>
</trkpt>
<trkpt lat="30.8533950" lon="34.7622310">
<ele>530.500000</ele>
<time>2014-01-03T07:12:23.000Z</time>
</trkpt>
<trkpt lat="30.8534270" lon="34.7621260">
<ele>530.500000</ele>
<time>2014-01-03T07:12:27.000Z</time>
</trkpt>
<trkpt lat="30.8534390" lon="34.7619970">
<ele>531.200012</ele>
<time>2014-01-03T07:12:32.000Z</time>
</trkpt>
<trkpt lat="30.8534640" lon="34.7618850">
<ele>531.799988</ele>
<time>2014-01-03T07:12:36.000Z</time>
</trkpt>
<trkpt lat="30.8535360" lon="34.7617920">
<ele>531.799988</ele>
<time>2014-01-03T07:12:40.000Z</time>
</trkpt>
<trkpt lat="30.8536240" lon="34.7617310">
<ele>531.700012</ele>
<time>2014-01-03T07:12:44.000Z</time>
</trkpt>
<trkpt lat="30.8537180" lon="34.7616690">
<ele>531.700012</ele>
<time>2014-01-03T07:12:48.000Z</time>
</trkpt>
<trkpt lat="30.8537990" lon="34.7615970">
<ele>532.600037</ele>
<time>2014-01-03T07:12:54.000Z</time>
</trkpt>
<trkpt lat="30.8538860" lon="34.7615440">
<ele>533.700012</ele>
<time>2014-01-03T07:12:59.000Z</time>
</trkpt>
<trkpt lat="30.8539680" lon="34.7614980">
<ele>534.700012</ele>
<time>2014-01-03T07:13:06.000Z</time>
</trkpt>
<trkpt lat="30.8540630" lon="34.7614780">
<ele>535.500000</ele>
<time>2014-01-03T07:13:11.000Z</time>
</trkpt>
<trkpt lat="30.8541550" lon="34.7614350">
<ele>536.599976</ele>
<time>2014-01-03T07:13:19.000Z</time>
</trkpt>
<trkpt lat="30.8542470" lon="34.7613970">
<ele>537.599976</ele>
<time>2014-01-03T07:13:26.000Z</time>
</trkpt>
<trkpt lat="30.8543370" lon="34.7613470">
<ele>538.900024</ele>
<time>2014-01-03T07:13:35.000Z</time>
</trkpt>
<trkpt lat="30.8544260" lon="34.7613050">
<ele>540.099976</ele>
<time>2014-01-03T07:13:42.000Z</time>
</trkpt>
<trkpt lat="30.8545010" lon="34.7612420">
<ele>541.599976</ele>
<time>2014-01-03T07:13:49.000Z</time>
</trkpt>
<trkpt lat="30.8545800" lon="34.7611780">
<ele>543.000000</ele>
<time>2014-01-03T07:13:54.000Z</time>
</trkpt>
<trkpt lat="30.8546210" lon="34.7611350">
<ele>543.500000</ele>
<time>2014-01-03T07:14:16.000Z</time>
</trkpt>
<trkpt lat="30.8546990" lon="34.7610720">
<ele>544.000000</ele>
<time>2014-01-03T07:14:23.000Z</time>
</trkpt>
<trkpt lat="30.8547730" lon="34.7610040">
<ele>544.599976</ele>
<time>2014-01-03T07:14:28.000Z</time>
</trkpt>
<trkpt lat="30.8548260" lon="34.7609180">
<ele>545.599976</ele>
<time>2014-01-03T07:14:35.000Z</time>
</trkpt>
<trkpt lat="30.8549160" lon="34.7608610">
<ele>546.000000</ele>
<time>2014-01-03T07:14:40.000Z</time>
</trkpt>
<trkpt lat="30.8550000" lon="34.7608170">
<ele>546.200012</ele>
<time>2014-01-03T07:14:46.000Z</time>
</trkpt>
<trkpt lat="30.8550950" lon="34.7608180">
<ele>545.799988</ele>
<time>2014-01-03T07:14:52.000Z</time>
</trkpt>
<trkpt lat="30.8551410" lon="34.7608070">
<ele>545.700012</ele>
<time>2014-01-03T07:15:23.000Z</time>
</trkpt>
<trkpt lat="30.8551830" lon="34.7607880">
<ele>545.799988</ele>
<time>2014-01-03T07:15:37.000Z</time>
</trkpt>
<trkpt lat="30.8552630" lon="34.7607390">
<ele>546.099976</ele>
<time>2014-01-03T07:15:41.000Z</time>
</trkpt>
<trkpt lat="30.8553540" lon="34.7607130">
<ele>546.000000</ele>
<time>2014-01-03T07:15:46.000Z</time>
</trkpt>
<trkpt lat="30.8554540" lon="34.7606990">
<ele>545.900024</ele>
<time>2014-01-03T07:15:53.000Z</time>
</trkpt>
<trkpt lat="30.8555600" lon="34.7606950">
<ele>546.000000</ele>
<time>2014-01-03T07:16:01.000Z</time>
</trkpt>
<trkpt lat="30.8556610" lon="34.7606990">
<ele>545.900024</ele>
<time>2014-01-03T07:16:08.000Z</time>
</trkpt>
<trkpt lat="30.8557060" lon="34.7608060">
<ele>544.799988</ele>
<time>2014-01-03T07:16:13.000Z</time>
</trkpt>
<trkpt lat="30.8557250" lon="34.7609180">
<ele>543.700012</ele>
<time>2014-01-03T07:16:20.000Z</time>
</trkpt>
<trkpt lat="30.8557400" lon="34.7610240">
<ele>542.599976</ele>
<time>2014-01-03T07:16:26.000Z</time>
</trkpt>
<trkpt lat="30.8557540" lon="34.7611380">
<ele>541.599976</ele>
<time>2014-01-03T07:16:31.000Z</time>
</trkpt>
<trkpt lat="30.8557710" lon="34.7612520">
<ele>540.500000</ele>
<time>2014-01-03T07:16:38.000Z</time>
</trkpt>
<trkpt lat="30.8557670" lon="34.7613610">
<ele>540.399963</ele>
<time>2014-01-03T07:16:43.000Z</time>
</trkpt>
<trkpt lat="30.8557990" lon="34.7614680">
<ele>540.500000</ele>
<time>2014-01-03T07:16:51.000Z</time>
</trkpt>
<trkpt lat="30.8558310" lon="34.7615660">
<ele>540.799988</ele>
<time>2014-01-03T07:16:57.000Z</time>
</trkpt>
<trkpt lat="30.8559020" lon="34.7616360">
<ele>541.500000</ele>
<time>2014-01-03T07:17:03.000Z</time>
</trkpt>
<trkpt lat="30.8559890" lon="34.7616780">
<ele>542.500000</ele>
<time>2014-01-03T07:17:10.000Z</time>
</trkpt>
<trkpt lat="30.8560820" lon="34.7616940">
<ele>543.600037</ele>
<time>2014-01-03T07:17:21.000Z</time>
</trkpt>
<trkpt lat="30.8560970" lon="34.7617020">
<ele>543.799988</ele>
<time>2014-01-03T07:18:00.000Z</time>
</trkpt>
<trkpt lat="30.8560830" lon="34.7616570">
<ele>543.600037</ele>
<time>2014-01-03T07:18:41.000Z</time>
</trkpt>
<trkpt lat="30.8560990" lon="34.7616600">
<ele>543.799988</ele>
<time>2014-01-03T07:19:21.000Z</time>
</trkpt>
<trkpt lat="30.8560750" lon="34.7616640">
<ele>543.500000</ele>
<time>2014-01-03T07:20:00.000Z</time>
</trkpt>
<trkpt lat="30.8560750" lon="34.7616630">
<ele>543.500000</ele>
<time>2014-01-03T07:20:41.000Z</time>
</trkpt>
<trkpt lat="30.8560750" lon="34.7616630">
<ele>543.500000</ele>
<time>2014-01-03T07:21:21.000Z</time>
</trkpt>
<trkpt lat="30.8560730" lon="34.7616620">
<ele>543.500000</ele>
<time>2014-01-03T07:22:00.000Z</time>
</trkpt>
<trkpt lat="30.8560730" lon="34.7616530">
<ele>543.500000</ele>
<time>2014-01-03T07:22:41.000Z</time>
</trkpt>
<trkpt lat="30.8561060" lon="34.7617060">
<ele>543.900024</ele>
<time>2014-01-03T07:23:20.000Z</time>
</trkpt>
<trkpt lat="30.8561630" lon="34.7618040">
<ele>544.899963</ele>
<time>2014-01-03T07:23:28.000Z</time>
</trkpt>
<trkpt lat="30.8561920" lon="34.7619250">
<ele>545.599976</ele>
<time>2014-01-03T07:23:33.000Z</time>
</trkpt>
<trkpt lat="30.8562260" lon="34.7620260">
<ele>546.399963</ele>
<time>2014-01-03T07:23:38.000Z</time>
</trkpt>
<trkpt lat="30.8562740" lon="34.7621460">
<ele>547.299988</ele>
<time>2014-01-03T07:23:42.000Z</time>
</trkpt>
<trkpt lat="30.8563180" lon="34.7622620">
<ele>547.799988</ele>
<time>2014-01-03T07:23:46.000Z</time>
</trkpt>
<trkpt lat="30.8563760" lon="34.7623870">
<ele>548.299988</ele>
<time>2014-01-03T07:23:50.000Z</time>
</trkpt>
<trkpt lat="30.8564240" lon="34.7624990">
<ele>548.900024</ele>
<time>2014-01-03T07:23:52.000Z</time>
</trkpt>
<trkpt lat="30.8564750" lon="34.7626160">
<ele>549.500000</ele>
<time>2014-01-03T07:23:55.000Z</time>
</trkpt>
<trkpt lat="30.8565660" lon="34.7626870">
<ele>549.700012</ele>
<time>2014-01-03T07:23:59.000Z</time>
</trkpt>
<trkpt lat="30.8566680" lon="34.7627180">
<ele>549.600037</ele>
<time>2014-01-03T07:24:02.000Z</time>
</trkpt>
<trkpt lat="30.8567720" lon="34.7627870">
<ele>549.799988</ele>
<time>2014-01-03T07:24:06.000Z</time>
</trkpt>
<trkpt lat="30.8568570" lon="34.7628270">
<ele>549.799988</ele>
<time>2014-01-03T07:24:09.000Z</time>
</trkpt>
<trkpt lat="30.8569580" lon="34.7628030">
<ele>549.399963</ele>
<time>2014-01-03T07:24:13.000Z</time>
</trkpt>
<trkpt lat="30.8570670" lon="34.7628370">
<ele>549.399963</ele>
<time>2014-01-03T07:24:17.000Z</time>
</trkpt>
<trkpt lat="30.8571500" lon="34.7629330">
<ele>550.299988</ele>
<time>2014-01-03T07:24:21.000Z</time>
</trkpt>
<trkpt lat="30.8572420" lon="34.7630170">
<ele>551.200012</ele>
<time>2014-01-03T07:24:25.000Z</time>
</trkpt>
<trkpt lat="30.8573310" lon="34.7630720">
<ele>551.799988</ele>
<time>2014-01-03T07:24:27.000Z</time>
</trkpt>
<trkpt lat="30.8574250" lon="34.7631080">
<ele>552.200012</ele>
<time>2014-01-03T07:24:30.000Z</time>
</trkpt>
<trkpt lat="30.8575180" lon="34.7631470">
<ele>552.700012</ele>
<time>2014-01-03T07:24:34.000Z</time>
</trkpt>
<trkpt lat="30.8576030" lon="34.7631840">
<ele>553.100037</ele>
<time>2014-01-03T07:24:37.000Z</time>
</trkpt>
<trkpt lat="30.8577020" lon="34.7632030">
<ele>553.400024</ele>
<time>2014-01-03T07:24:41.000Z</time>
</trkpt>
<trkpt lat="30.8577920" lon="34.7632630">
<ele>553.900024</ele>
<time>2014-01-03T07:24:45.000Z</time>
</trkpt>
<trkpt lat="30.8578550" lon="34.7633520">
<ele>554.500000</ele>
<time>2014-01-03T07:24:48.000Z</time>
</trkpt>
<trkpt lat="30.8579380" lon="34.7634310">
<ele>555.000000</ele>
<time>2014-01-03T07:24:50.000Z</time>
</trkpt>
<trkpt lat="30.8580260" lon="34.7634830">
<ele>554.700012</ele>
<time>2014-01-03T07:24:53.000Z</time>
</trkpt>
<trkpt lat="30.8581190" lon="34.7635530">
<ele>554.500000</ele>
<time>2014-01-03T07:24:57.000Z</time>
</trkpt>
<trkpt lat="30.8581920" lon="34.7636330">
<ele>554.500000</ele>
<time>2014-01-03T07:25:01.000Z</time>
</trkpt>
<trkpt lat="30.8582700" lon="34.7636990">
<ele>554.200012</ele>
<time>2014-01-03T07:25:05.000Z</time>
</trkpt>
<trkpt lat="30.8583540" lon="34.7637750">
<ele>553.799988</ele>
<time>2014-01-03T07:25:09.000Z</time>
</trkpt>
<trkpt lat="30.8584270" lon="34.7638470">
<ele>553.200012</ele>
<time>2014-01-03T07:25:13.000Z</time>
</trkpt>
<trkpt lat="30.8585000" lon="34.7639550">
<ele>552.799988</ele>
<time>2014-01-03T07:25:17.000Z</time>
</trkpt>
<trkpt lat="30.8585920" lon="34.7640330">
<ele>552.399963</ele>
<time>2014-01-03T07:25:21.000Z</time>
</trkpt>
<trkpt lat="30.8586690" lon="34.7641060">
<ele>552.099976</ele>
<time>2014-01-03T07:25:26.000Z</time>
</trkpt>
<trkpt lat="30.8586980" lon="34.7642380">
<ele>552.300049</ele>
<time>2014-01-03T07:25:31.000Z</time>
</trkpt>
<trkpt lat="30.8586740" lon="34.7643550">
<ele>552.500000</ele>
<time>2014-01-03T07:25:35.000Z</time>
</trkpt>
<trkpt lat="30.8586360" lon="34.7644690">
<ele>552.700012</ele>
<time>2014-01-03T07:25:39.000Z</time>
</trkpt>
<trkpt lat="30.8585780" lon="34.7645620">
<ele>552.799988</ele>
<time>2014-01-03T07:25:44.000Z</time>
</trkpt>
<trkpt lat="30.8585120" lon="34.7646550">
<ele>551.900024</ele>
<time>2014-01-03T07:25:50.000Z</time>
</trkpt>
<trkpt lat="30.8584970" lon="34.7647690">
<ele>550.500000</ele>
<time>2014-01-03T07:25:54.000Z</time>
</trkpt>
<trkpt lat="30.8584980" lon="34.7648740">
<ele>549.299988</ele>
<time>2014-01-03T07:25:57.000Z</time>
</trkpt>
<trkpt lat="30.8585100" lon="34.7650080">
<ele>547.799988</ele>
<time>2014-01-03T07:26:01.000Z</time>
</trkpt>
<trkpt lat="30.8585640" lon="34.7651220">
<ele>546.700012</ele>
<time>2014-01-03T07:26:05.000Z</time>
</trkpt>
<trkpt lat="30.8586400" lon="34.7651980">
<ele>546.399963</ele>
<time>2014-01-03T07:26:09.000Z</time>
</trkpt>
<trkpt lat="30.8587500" lon="34.7651900">
<ele>547.200012</ele>
<time>2014-01-03T07:26:14.000Z</time>
</trkpt>
<trkpt lat="30.8588590" lon="34.7651500">
<ele>547.299988</ele>
<time>2014-01-03T07:26:18.000Z</time>
</trkpt>
<trkpt lat="30.8589600" lon="34.7651020">
<ele>547.400024</ele>
<time>2014-01-03T07:26:22.000Z</time>
</trkpt>
<trkpt lat="30.8590720" lon="34.7650730">
<ele>547.400024</ele>
<time>2014-01-03T07:26:26.000Z</time>
</trkpt>
<trkpt lat="30.8591750" lon="34.7650590">
<ele>547.200012</ele>
<time>2014-01-03T07:26:30.000Z</time>
</trkpt>
<trkpt lat="30.8592820" lon="34.7650660">
<ele>546.799988</ele>
<time>2014-01-03T07:26:34.000Z</time>
</trkpt>
<trkpt lat="30.8593960" lon="34.7650980">
<ele>546.200012</ele>
<time>2014-01-03T07:26:38.000Z</time>
</trkpt>
<trkpt lat="30.8595000" lon="34.7651090">
<ele>545.799988</ele>
<time>2014-01-03T07:26:42.000Z</time>
</trkpt>
<trkpt lat="30.8596020" lon="34.7650700">
<ele>545.799988</ele>
<time>2014-01-03T07:26:45.000Z</time>
</trkpt>
<trkpt lat="30.8597120" lon="34.7650140">
<ele>545.900024</ele>
<time>2014-01-03T07:26:49.000Z</time>
</trkpt>
<trkpt lat="30.8598170" lon="34.7650010">
<ele>545.599976</ele>
<time>2014-01-03T07:26:52.000Z</time>
</trkpt>
<trkpt lat="30.8599200" lon="34.7650190">
<ele>545.100037</ele>
<time>2014-01-03T07:26:55.000Z</time>
</trkpt>
<trkpt lat="30.8600150" lon="34.7650310">
<ele>544.599976</ele>
<time>2014-01-03T07:26:57.000Z</time>
</trkpt>
<trkpt lat="30.8601260" lon="34.7650630">
<ele>543.900024</ele>
<time>2014-01-03T07:27:01.000Z</time>
</trkpt>
<trkpt lat="30.8602170" lon="34.7650850">
<ele>543.299988</ele>
<time>2014-01-03T07:27:04.000Z</time>
</trkpt>
<trkpt lat="30.8603160" lon="34.7650740">
<ele>543.099976</ele>
<time>2014-01-03T07:27:08.000Z</time>
</trkpt>
<trkpt lat="30.8604330" lon="34.7650800">
<ele>542.599976</ele>
<time>2014-01-03T07:27:12.000Z</time>
</trkpt>
<trkpt lat="30.8605370" lon="34.7650940">
<ele>542.000000</ele>
<time>2014-01-03T07:27:15.000Z</time>
</trkpt>
<trkpt lat="30.8606480" lon="34.7651020">
<ele>541.400024</ele>
<time>2014-01-03T07:27:18.000Z</time>
</trkpt>
<trkpt lat="30.8607530" lon="34.7651010">
<ele>541.000000</ele>
<time>2014-01-03T07:27:20.000Z</time>
</trkpt>
<trkpt lat="30.8608650" lon="34.7651120">
<ele>540.399963</ele>
<time>2014-01-03T07:27:23.000Z</time>
</trkpt>
<trkpt lat="30.8609800" lon="34.7651200">
<ele>539.799988</ele>
<time>2014-01-03T07:27:27.000Z</time>
</trkpt>
<trkpt lat="30.8610960" lon="34.7651090">
<ele>539.500000</ele>
<time>2014-01-03T07:27:30.000Z</time>
</trkpt>
<trkpt lat="30.8612210" lon="34.7650860">
<ele>539.299988</ele>
<time>2014-01-03T07:27:32.000Z</time>
</trkpt>
<trkpt lat="30.8613130" lon="34.7650430">
<ele>539.599976</ele>
<time>2014-01-03T07:27:35.000Z</time>
</trkpt>
<trkpt lat="30.8614020" lon="34.7650110">
<ele>539.799988</ele>
<time>2014-01-03T07:27:36.000Z</time>
</trkpt>
<trkpt lat="30.8615330" lon="34.7649840">
<ele>539.700012</ele>
<time>2014-01-03T07:27:39.000Z</time>
</trkpt>
<trkpt lat="30.8616550" lon="34.7649620">
<ele>539.500000</ele>
<time>2014-01-03T07:27:43.000Z</time>
</trkpt>
<trkpt lat="30.8617840" lon="34.7649450">
<ele>539.299988</ele>
<time>2014-01-03T07:27:46.000Z</time>
</trkpt>
<trkpt lat="30.8619060" lon="34.7649410">
<ele>538.799988</ele>
<time>2014-01-03T07:27:49.000Z</time>
</trkpt>
<trkpt lat="30.8620290" lon="34.7649660">
<ele>538.099976</ele>
<time>2014-01-03T07:27:51.000Z</time>
</trkpt>
<trkpt lat="30.8621430" lon="34.7649800">
<ele>537.299988</ele>
<time>2014-01-03T07:27:54.000Z</time>
</trkpt>
<trkpt lat="30.8622590" lon="34.7649800">
<ele>536.599976</ele>
<time>2014-01-03T07:27:58.000Z</time>
</trkpt>
<trkpt lat="30.8623900" lon="34.7649840">
<ele>535.600037</ele>
<time>2014-01-03T07:28:01.000Z</time>
</trkpt>
<trkpt lat="30.8625230" lon="34.7649860">
<ele>534.700012</ele>
<time>2014-01-03T07:28:03.000Z</time>
</trkpt>
<trkpt lat="30.8626470" lon="34.7649820">
<ele>534.000000</ele>
<time>2014-01-03T07:28:06.000Z</time>
</trkpt>
<trkpt lat="30.8627650" lon="34.7649710">
<ele>533.299988</ele>
<time>2014-01-03T07:28:10.000Z</time>
</trkpt>
<trkpt lat="30.8628830" lon="34.7649400">
<ele>532.799988</ele>
<time>2014-01-03T07:28:13.000Z</time>
</trkpt>
<trkpt lat="30.8629920" lon="34.7648930">
<ele>532.399963</ele>
<time>2014-01-03T07:28:16.000Z</time>
</trkpt>
<trkpt lat="30.8630920" lon="34.7648440">
<ele>532.000000</ele>
<time>2014-01-03T07:28:18.000Z</time>
</trkpt>
<trkpt lat="30.8631830" lon="34.7647940">
<ele>531.500000</ele>
<time>2014-01-03T07:28:21.000Z</time>
</trkpt>
<trkpt lat="30.8632670" lon="34.7647060">
<ele>531.200012</ele>
<time>2014-01-03T07:28:25.000Z</time>
</trkpt>
<trkpt lat="30.8633470" lon="34.7646070">
<ele>530.700012</ele>
<time>2014-01-03T07:28:28.000Z</time>
</trkpt>
<trkpt lat="30.8634220" lon="34.7645210">
<ele>530.299988</ele>
<time>2014-01-03T07:28:30.000Z</time>
</trkpt>
<trkpt lat="30.8634980" lon="34.7644130">
<ele>530.099976</ele>
<time>2014-01-03T07:28:35.000Z</time>
</trkpt>
<trkpt lat="30.8635860" lon="34.7643560">
<ele>529.600037</ele>
<time>2014-01-03T07:28:37.000Z</time>
</trkpt>
<trkpt lat="30.8636950" lon="34.7642950">
<ele>529.000000</ele>
<time>2014-01-03T07:28:40.000Z</time>
</trkpt>
<trkpt lat="30.8638110" lon="34.7642310">
<ele>528.700012</ele>
<time>2014-01-03T07:28:44.000Z</time>
</trkpt>
<trkpt lat="30.8639370" lon="34.7642120">
<ele>528.400024</ele>
<time>2014-01-03T07:28:47.000Z</time>
</trkpt>
<trkpt lat="30.8640580" lon="34.7642000">
<ele>528.100037</ele>
<time>2014-01-03T07:28:49.000Z</time>
</trkpt>
<trkpt lat="30.8641660" lon="34.7641640">
<ele>528.000000</ele>
<time>2014-01-03T07:28:52.000Z</time>
</trkpt>
<trkpt lat="30.8642820" lon="34.7641510">
<ele>527.700012</ele>
<time>2014-01-03T07:28:56.000Z</time>
</trkpt>
<trkpt lat="30.8643760" lon="34.7641450">
<ele>527.500000</ele>
<time>2014-01-03T07:28:57.000Z</time>
</trkpt>
<trkpt lat="30.8645050" lon="34.7641420">
<ele>527.000000</ele>
<time>2014-01-03T07:29:00.000Z</time>
</trkpt>
<trkpt lat="30.8645930" lon="34.7641090">
<ele>527.099976</ele>
<time>2014-01-03T07:29:03.000Z</time>
</trkpt>
<trkpt lat="30.8647200" lon="34.7640710">
<ele>526.900024</ele>
<time>2014-01-03T07:29:06.000Z</time>
</trkpt>
<trkpt lat="30.8648400" lon="34.7640210">
<ele>526.900024</ele>
<time>2014-01-03T07:29:08.000Z</time>
</trkpt>
<trkpt lat="30.8649540" lon="34.7639720">
<ele>526.900024</ele>
<time>2014-01-03T07:29:11.000Z</time>
</trkpt>
<trkpt lat="30.8650830" lon="34.7639550">
<ele>526.500000</ele>
<time>2014-01-03T07:29:15.000Z</time>
</trkpt>
<trkpt lat="30.8652090" lon="34.7639410">
<ele>526.100037</ele>
<time>2014-01-03T07:29:18.000Z</time>
</trkpt>
<trkpt lat="30.8653220" lon="34.7639560">
<ele>525.400024</ele>
<time>2014-01-03T07:29:20.000Z</time>
</trkpt>
<trkpt lat="30.8654400" lon="34.7639770">
<ele>524.700012</ele>
<time>2014-01-03T07:29:23.000Z</time>
</trkpt>
<trkpt lat="30.8655500" lon="34.7640140">
<ele>523.900024</ele>
<time>2014-01-03T07:29:27.000Z</time>
</trkpt>
<trkpt lat="30.8656470" lon="34.7640560">
<ele>523.000000</ele>
<time>2014-01-03T07:29:30.000Z</time>
</trkpt>
<trkpt lat="30.8657450" lon="34.7641000">
<ele>522.099976</ele>
<time>2014-01-03T07:29:33.000Z</time>
</trkpt>
<trkpt lat="30.8658600" lon="34.7641400">
<ele>521.200012</ele>
<time>2014-01-03T07:29:37.000Z</time>
</trkpt>
<trkpt lat="30.8659840" lon="34.7640850">
<ele>521.200012</ele>
<time>2014-01-03T07:29:39.000Z</time>
</trkpt>
<trkpt lat="30.8661140" lon="34.7640560">
<ele>520.900024</ele>
<time>2014-01-03T07:29:42.000Z</time>
</trkpt>
<trkpt lat="30.8662060" lon="34.7640350">
<ele>520.799988</ele>
<time>2014-01-03T07:29:45.000Z</time>
</trkpt>
<trkpt lat="30.8663170" lon="34.7640020">
<ele>520.400024</ele>
<time>2014-01-03T07:29:47.000Z</time>
</trkpt>
<trkpt lat="30.8664130" lon="34.7639790">
<ele>519.899963</ele>
<time>2014-01-03T07:29:50.000Z</time>
</trkpt>
<trkpt lat="30.8665030" lon="34.7639730">
<ele>519.200012</ele>
<time>2014-01-03T07:29:54.000Z</time>
</trkpt>
<trkpt lat="30.8666200" lon="34.7639680">
<ele>518.200012</ele>
<time>2014-01-03T07:29:58.000Z</time>
</trkpt>
<trkpt lat="30.8667250" lon="34.7639480">
<ele>517.400024</ele>
<time>2014-01-03T07:30:01.000Z</time>
</trkpt>
<trkpt lat="30.8668130" lon="34.7639040">
<ele>516.899963</ele>
<time>2014-01-03T07:30:04.000Z</time>
</trkpt>
<trkpt lat="30.8668820" lon="34.7638280">
<ele>516.700012</ele>
<time>2014-01-03T07:30:06.000Z</time>
</trkpt>
<trkpt lat="30.8669490" lon="34.7637170">
<ele>516.599976</ele>
<time>2014-01-03T07:30:09.000Z</time>
</trkpt>
<trkpt lat="30.8669790" lon="34.7636050">
<ele>516.599976</ele>
<time>2014-01-03T07:30:12.000Z</time>
</trkpt>
<trkpt lat="30.8670210" lon="34.7634690">
<ele>516.700012</ele>
<time>2014-01-03T07:30:14.000Z</time>
</trkpt>
<trkpt lat="30.8670880" lon="34.7633530">
<ele>516.400024</ele>
<time>2014-01-03T07:30:17.000Z</time>
</trkpt>
<trkpt lat="30.8671350" lon="34.7632610">
<ele>516.299988</ele>
<time>2014-01-03T07:30:21.000Z</time>
</trkpt>
<trkpt lat="30.8671770" lon="34.7632130">
<ele>516.099976</ele>
<time>2014-01-03T07:30:52.000Z</time>
</trkpt>
<trkpt lat="30.8672520" lon="34.7631000">
<ele>515.799988</ele>
<time>2014-01-03T07:30:56.000Z</time>
</trkpt>
<trkpt lat="30.8673240" lon="34.7630300">
<ele>515.299988</ele>
<time>2014-01-03T07:30:59.000Z</time>
</trkpt>
<trkpt lat="30.8674380" lon="34.7630100">
<ele>514.299988</ele>
<time>2014-01-03T07:31:03.000Z</time>
</trkpt>
<trkpt lat="30.8675630" lon="34.7629740">
<ele>513.200012</ele>
<time>2014-01-03T07:31:06.000Z</time>
</trkpt>
<trkpt lat="30.8676710" lon="34.7629200">
<ele>512.299988</ele>
<time>2014-01-03T07:31:08.000Z</time>
</trkpt>
<trkpt lat="30.8677450" lon="34.7628430">
<ele>512.500000</ele>
<time>2014-01-03T07:31:11.000Z</time>
</trkpt>
<trkpt lat="30.8677940" lon="34.7627140">
<ele>513.500000</ele>
<time>2014-01-03T07:31:15.000Z</time>
</trkpt>
<trkpt lat="30.8678390" lon="34.7625870">
<ele>514.599976</ele>
<time>2014-01-03T07:31:19.000Z</time>
</trkpt>
<trkpt lat="30.8678870" lon="34.7624450">
<ele>515.900024</ele>
<time>2014-01-03T07:31:22.000Z</time>
</trkpt>
<trkpt lat="30.8679620" lon="34.7623440">
<ele>516.400024</ele>
<time>2014-01-03T07:31:25.000Z</time>
</trkpt>
<trkpt lat="30.8680640" lon="34.7623310">
<ele>515.500000</ele>
<time>2014-01-03T07:31:26.000Z</time>
</trkpt>
<trkpt lat="30.8681790" lon="34.7622850">
<ele>514.799988</ele>
<time>2014-01-03T07:31:30.000Z</time>
</trkpt>
<trkpt lat="30.8683340" lon="34.7622700">
<ele>513.299988</ele>
<time>2014-01-03T07:31:34.000Z</time>
</trkpt>
<trkpt lat="30.8684450" lon="34.7622480">
<ele>512.299988</ele>
<time>2014-01-03T07:31:37.000Z</time>
</trkpt>
<trkpt lat="30.8685420" lon="34.7622330">
<ele>511.399994</ele>
<time>2014-01-03T07:31:39.000Z</time>
</trkpt>
<trkpt lat="30.8686460" lon="34.7622210">
<ele>510.300018</ele>
<time>2014-01-03T07:31:42.000Z</time>
</trkpt>
<trkpt lat="30.8687700" lon="34.7622220">
<ele>509.100006</ele>
<time>2014-01-03T07:31:46.000Z</time>
</trkpt>
<trkpt lat="30.8688690" lon="34.7621730">
<ele>508.899994</ele>
<time>2014-01-03T07:31:49.000Z</time>
</trkpt>
<trkpt lat="30.8689730" lon="34.7621530">
<ele>508.500000</ele>
<time>2014-01-03T07:31:52.000Z</time>
</trkpt>
<trkpt lat="30.8691100" lon="34.7621880">
<ele>507.600006</ele>
<time>2014-01-03T07:31:54.000Z</time>
</trkpt>
<trkpt lat="30.8692350" lon="34.7622040">
<ele>506.899994</ele>
<time>2014-01-03T07:31:57.000Z</time>
</trkpt>
<trkpt lat="30.8693640" lon="34.7622210">
<ele>506.100006</ele>
<time>2014-01-03T07:32:01.000Z</time>
</trkpt>
<trkpt lat="30.8694530" lon="34.7622390">
<ele>505.500000</ele>
<time>2014-01-03T07:32:02.000Z</time>
</trkpt>
<trkpt lat="30.8695730" lon="34.7622920">
<ele>504.600006</ele>
<time>2014-01-03T07:32:05.000Z</time>
</trkpt>
<trkpt lat="30.8696600" lon="34.7623240">
<ele>504.199982</ele>
<time>2014-01-03T07:32:08.000Z</time>
</trkpt>
<trkpt lat="30.8697510" lon="34.7623560">
<ele>503.799988</ele>
<time>2014-01-03T07:32:09.000Z</time>
</trkpt>
<trkpt lat="30.8698380" lon="34.7624010">
<ele>503.199982</ele>
<time>2014-01-03T07:32:12.000Z</time>
</trkpt>
<trkpt lat="30.8699560" lon="34.7624790">
<ele>502.299988</ele>
<time>2014-01-03T07:32:15.000Z</time>
</trkpt>
<trkpt lat="30.8700670" lon="34.7625640">
<ele>501.199982</ele>
<time>2014-01-03T07:32:17.000Z</time>
</trkpt>
<trkpt lat="30.8701730" lon="34.7626490">
<ele>500.000000</ele>
<time>2014-01-03T07:32:20.000Z</time>
</trkpt>
<trkpt lat="30.8702950" lon="34.7626920">
<ele>499.100006</ele>
<time>2014-01-03T07:32:24.000Z</time>
</trkpt>
<trkpt lat="30.8704050" lon="34.7627000">
<ele>498.600006</ele>
<time>2014-01-03T07:32:27.000Z</time>
</trkpt>
<trkpt lat="30.8705150" lon="34.7626920">
<ele>498.600006</ele>
<time>2014-01-03T07:32:29.000Z</time>
</trkpt>
<trkpt lat="30.8706260" lon="34.7626890">
<ele>498.500000</ele>
<time>2014-01-03T07:32:32.000Z</time>
</trkpt>
<trkpt lat="30.8707420" lon="34.7626820">
<ele>498.400024</ele>
<time>2014-01-03T07:32:36.000Z</time>
</trkpt>
<trkpt lat="30.8708620" lon="34.7626740">
<ele>498.400024</ele>
<time>2014-01-03T07:32:39.000Z</time>
</trkpt>
<trkpt lat="30.8709940" lon="34.7626450">
<ele>498.600006</ele>
<time>2014-01-03T07:32:42.000Z</time>
</trkpt>
<trkpt lat="30.8710900" lon="34.7626310">
<ele>498.600006</ele>
<time>2014-01-03T07:32:43.000Z</time>
</trkpt>
<trkpt lat="30.8711940" lon="34.7626310">
<ele>498.500000</ele>
<time>2014-01-03T07:32:46.000Z</time>
</trkpt>
<trkpt lat="30.8712920" lon="34.7626520">
<ele>498.100006</ele>
<time>2014-01-03T07:32:47.000Z</time>
</trkpt>
<trkpt lat="30.8713940" lon="34.7626660">
<ele>497.899994</ele>
<time>2014-01-03T07:32:50.000Z</time>
</trkpt>
<trkpt lat="30.8715040" lon="34.7626720">
<ele>497.700012</ele>
<time>2014-01-03T07:32:51.000Z</time>
</trkpt>
<trkpt lat="30.8716260" lon="34.7626640">
<ele>497.599976</ele>
<time>2014-01-03T07:32:54.000Z</time>
</trkpt>
<trkpt lat="30.8717370" lon="34.7626500">
<ele>497.599976</ele>
<time>2014-01-03T07:32:55.000Z</time>
</trkpt>
<trkpt lat="30.8718610" lon="34.7626340">
<ele>497.599976</ele>
<time>2014-01-03T07:32:58.000Z</time>
</trkpt>
<trkpt lat="30.8719750" lon="34.7626180">
<ele>497.599976</ele>
<time>2014-01-03T07:32:59.000Z</time>
</trkpt>
<trkpt lat="30.8720690" lon="34.7626010">
<ele>497.700012</ele>
<time>2014-01-03T07:33:02.000Z</time>
</trkpt>
<trkpt lat="30.8721500" lon="34.7626660">
<ele>497.000000</ele>
<time>2014-01-03T07:33:03.000Z</time>
</trkpt>
<trkpt lat="30.8722570" lon="34.7627440">
<ele>496.200012</ele>
<time>2014-01-03T07:33:07.000Z</time>
</trkpt>
<trkpt lat="30.8723320" lon="34.7628570">
<ele>495.400024</ele>
<time>2014-01-03T07:33:10.000Z</time>
</trkpt>
<trkpt lat="30.8723890" lon="34.7629550">
<ele>494.899994</ele>
<time>2014-01-03T07:33:14.000Z</time>
</trkpt>
<trkpt lat="30.8724130" lon="34.7630840">
<ele>494.599976</ele>
<time>2014-01-03T07:33:18.000Z</time>
</trkpt>
<trkpt lat="30.8724160" lon="34.7631970">
<ele>494.299988</ele>
<time>2014-01-03T07:33:22.000Z</time>
</trkpt>
<trkpt lat="30.8724420" lon="34.7633170">
<ele>493.900024</ele>
<time>2014-01-03T07:33:25.000Z</time>
</trkpt>
<trkpt lat="30.8725400" lon="34.7633920">
<ele>493.500000</ele>
<time>2014-01-03T07:33:27.000Z</time>
</trkpt>
<trkpt lat="30.8726450" lon="34.7634560">
<ele>493.000000</ele>
<time>2014-01-03T07:33:30.000Z</time>
</trkpt>
<trkpt lat="30.8727760" lon="34.7635030">
<ele>492.500000</ele>
<time>2014-01-03T07:33:34.000Z</time>
</trkpt>
<trkpt lat="30.8728690" lon="34.7634890">
<ele>492.400024</ele>
<time>2014-01-03T07:33:36.000Z</time>
</trkpt>
<trkpt lat="30.8729480" lon="34.7634260">
<ele>492.500000</ele>
<time>2014-01-03T07:33:37.000Z</time>
</trkpt>
<trkpt lat="30.8730350" lon="34.7633150">
<ele>492.799988</ele>
<time>2014-01-03T07:33:41.000Z</time>
</trkpt>
<trkpt lat="30.8731400" lon="34.7632800">
<ele>492.799988</ele>
<time>2014-01-03T07:33:44.000Z</time>
</trkpt>
<trkpt lat="30.8732590" lon="34.7632660">
<ele>492.600006</ele>
<time>2014-01-03T07:33:46.000Z</time>
</trkpt>
<trkpt lat="30.8733840" lon="34.7632270">
<ele>492.500000</ele>
<time>2014-01-03T07:33:49.000Z</time>
</trkpt>
<trkpt lat="30.8735000" lon="34.7632030">
<ele>492.400024</ele>
<time>2014-01-03T07:33:53.000Z</time>
</trkpt>
<trkpt lat="30.8736000" lon="34.7631910">
<ele>492.299988</ele>
<time>2014-01-03T07:33:56.000Z</time>
</trkpt>
<trkpt lat="30.8737000" lon="34.7632060">
<ele>492.000000</ele>
<time>2014-01-03T07:33:59.000Z</time>
</trkpt>
<trkpt lat="30.8737850" lon="34.7632880">
<ele>491.200012</ele>
<time>2014-01-03T07:34:03.000Z</time>
</trkpt>
<trkpt lat="30.8737600" lon="34.7634210">
<ele>490.300018</ele>
<time>2014-01-03T07:34:07.000Z</time>
</trkpt>
<trkpt lat="30.8737850" lon="34.7635310">
<ele>489.499969</ele>
<time>2014-01-03T07:34:11.000Z</time>
</trkpt>
<trkpt lat="30.8738470" lon="34.7636360">
<ele>488.600006</ele>
<time>2014-01-03T07:34:15.000Z</time>
</trkpt>
<trkpt lat="30.8739080" lon="34.7637200">
<ele>487.799988</ele>
<time>2014-01-03T07:34:17.000Z</time>
</trkpt>
<trkpt lat="30.8739400" lon="34.7638180">
<ele>487.300018</ele>
<time>2014-01-03T07:34:20.000Z</time>
</trkpt>
<trkpt lat="30.8740470" lon="34.7639000">
<ele>486.700012</ele>
<time>2014-01-03T07:34:24.000Z</time>
</trkpt>
<trkpt lat="30.8741680" lon="34.7639320">
<ele>486.299988</ele>
<time>2014-01-03T07:34:28.000Z</time>
</trkpt>
<trkpt lat="30.8742950" lon="34.7639180">
<ele>486.100006</ele>
<time>2014-01-03T07:34:31.000Z</time>
</trkpt>
<trkpt lat="30.8743870" lon="34.7638880">
<ele>486.100006</ele>
<time>2014-01-03T07:34:32.000Z</time>
</trkpt>
<trkpt lat="30.8744830" lon="34.7638610">
<ele>485.900024</ele>
<time>2014-01-03T07:34:35.000Z</time>
</trkpt>
<trkpt lat="30.8745770" lon="34.7638450">
<ele>485.800018</ele>
<time>2014-01-03T07:34:36.000Z</time>
</trkpt>
<trkpt lat="30.8746690" lon="34.7638130">
<ele>485.600006</ele>
<time>2014-01-03T07:34:39.000Z</time>
</trkpt>
<trkpt lat="30.8747750" lon="34.7638130">
<ele>485.399994</ele>
<time>2014-01-03T07:34:42.000Z</time>
</trkpt>
<trkpt lat="30.8748480" lon="34.7638800">
<ele>485.099976</ele>
<time>2014-01-03T07:34:43.000Z</time>
</trkpt>
<trkpt lat="30.8749400" lon="34.7639880">
<ele>484.600006</ele>
<time>2014-01-03T07:34:47.000Z</time>
</trkpt>
<trkpt lat="30.8750150" lon="34.7640840">
<ele>484.199982</ele>
<time>2014-01-03T07:34:50.000Z</time>
</trkpt>
<trkpt lat="30.8750990" lon="34.7641620">
<ele>483.800018</ele>
<time>2014-01-03T07:34:54.000Z</time>
</trkpt>
<trkpt lat="30.8751650" lon="34.7642510">
<ele>483.399994</ele>
<time>2014-01-03T07:34:58.000Z</time>
</trkpt>
<trkpt lat="30.8752140" lon="34.7643640">
<ele>483.000000</ele>
<time>2014-01-03T07:35:01.000Z</time>
</trkpt>
<trkpt lat="30.8752540" lon="34.7644970">
<ele>482.600006</ele>
<time>2014-01-03T07:35:03.000Z</time>
</trkpt>
<trkpt lat="30.8752820" lon="34.7646410">
<ele>482.300018</ele>
<time>2014-01-03T07:35:06.000Z</time>
</trkpt>
<trkpt lat="30.8753100" lon="34.7647430">
<ele>482.099976</ele>
<time>2014-01-03T07:35:09.000Z</time>
</trkpt>
<trkpt lat="30.8753580" lon="34.7648490">
<ele>481.700012</ele>
<time>2014-01-03T07:35:10.000Z</time>
</trkpt>
<trkpt lat="30.8754240" lon="34.7649360">
<ele>481.199982</ele>
<time>2014-01-03T07:35:13.000Z</time>
</trkpt>
<trkpt lat="30.8754980" lon="34.7650230">
<ele>480.899994</ele>
<time>2014-01-03T07:35:15.000Z</time>
</trkpt>
<trkpt lat="30.8755720" lon="34.7651160">
<ele>480.599976</ele>
<time>2014-01-03T07:35:20.000Z</time>
</trkpt>
<trkpt lat="30.8756160" lon="34.7652700">
<ele>480.000000</ele>
<time>2014-01-03T07:35:22.000Z</time>
</trkpt>
<trkpt lat="30.8756120" lon="34.7653830">
<ele>479.600006</ele>
<time>2014-01-03T07:35:25.000Z</time>
</trkpt>
<trkpt lat="30.8756410" lon="34.7654820">
<ele>479.399994</ele>
<time>2014-01-03T07:35:26.000Z</time>
</trkpt>
<trkpt lat="30.8757110" lon="34.7655760">
<ele>479.099976</ele>
<time>2014-01-03T07:35:29.000Z</time>
</trkpt>
<trkpt lat="30.8757750" lon="34.7656700">
<ele>478.700012</ele>
<time>2014-01-03T07:35:33.000Z</time>
</trkpt>
<trkpt lat="30.8758510" lon="34.7657340">
<ele>478.399994</ele>
<time>2014-01-03T07:35:34.000Z</time>
</trkpt>
<trkpt lat="30.8759500" lon="34.7657800">
<ele>477.899994</ele>
<time>2014-01-03T07:35:37.000Z</time>
</trkpt>
<trkpt lat="30.8760640" lon="34.7658180">
<ele>477.299988</ele>
<time>2014-01-03T07:35:38.000Z</time>
</trkpt>
<trkpt lat="30.8761700" lon="34.7658600">
<ele>476.699982</ele>
<time>2014-01-03T07:35:41.000Z</time>
</trkpt>
<trkpt lat="30.8762550" lon="34.7659310">
<ele>476.199982</ele>
<time>2014-01-03T07:35:42.000Z</time>
</trkpt>
<trkpt lat="30.8763500" lon="34.7660080">
<ele>475.899994</ele>
<time>2014-01-03T07:35:45.000Z</time>
</trkpt>
<trkpt lat="30.8764410" lon="34.7660500">
<ele>475.800018</ele>
<time>2014-01-03T07:35:49.000Z</time>
</trkpt>
<trkpt lat="30.8765220" lon="34.7661180">
<ele>475.500031</ele>
<time>2014-01-03T07:35:53.000Z</time>
</trkpt>
<trkpt lat="30.8765300" lon="34.7660100">
<ele>476.000000</ele>
<time>2014-01-03T07:36:04.000Z</time>
</trkpt>
<trkpt lat="30.8764500" lon="34.7660390">
<ele>475.800018</ele>
<time>2014-01-03T07:36:14.000Z</time>
</trkpt>
<trkpt lat="30.8764400" lon="34.7660370">
<ele>475.800018</ele>
<time>2014-01-03T07:36:54.000Z</time>
</trkpt>
<trkpt lat="30.8764400" lon="34.7660370">
<ele>475.800018</ele>
<time>2014-01-03T07:37:33.000Z</time>
</trkpt>
<trkpt lat="30.8764400" lon="34.7660370">
<ele>475.800018</ele>
<time>2014-01-03T07:38:14.000Z</time>
</trkpt>
<trkpt lat="30.8764700" lon="34.7660830">
<ele>475.700012</ele>
<time>2014-01-03T07:38:29.000Z</time>
</trkpt>
<trkpt lat="30.8765370" lon="34.7661560">
<ele>475.399994</ele>
<time>2014-01-03T07:38:33.000Z</time>
</trkpt>
<trkpt lat="30.8766130" lon="34.7662640">
<ele>475.100006</ele>
<time>2014-01-03T07:38:37.000Z</time>
</trkpt>
<trkpt lat="30.8766900" lon="34.7663440">
<ele>475.600006</ele>
<time>2014-01-03T07:38:39.000Z</time>
</trkpt>
<trkpt lat="30.8767750" lon="34.7664030">
<ele>475.800018</ele>
<time>2014-01-03T07:38:42.000Z</time>
</trkpt>
<trkpt lat="30.8768710" lon="34.7664620">
<ele>475.800018</ele>
<time>2014-01-03T07:38:46.000Z</time>
</trkpt>
<trkpt lat="30.8769510" lon="34.7665450">
<ele>475.899994</ele>
<time>2014-01-03T07:38:49.000Z</time>
</trkpt>
<trkpt lat="30.8769990" lon="34.7666560">
<ele>475.899994</ele>
<time>2014-01-03T07:38:51.000Z</time>
</trkpt>
<trkpt lat="30.8770350" lon="34.7668160">
<ele>476.000000</ele>
<time>2014-01-03T07:38:54.000Z</time>
</trkpt>
<trkpt lat="30.8770870" lon="34.7669140">
<ele>475.800018</ele>
<time>2014-01-03T07:38:57.000Z</time>
</trkpt>
<trkpt lat="30.8771280" lon="34.7670080">
<ele>475.899994</ele>
<time>2014-01-03T07:38:58.000Z</time>
</trkpt>
<trkpt lat="30.8771380" lon="34.7671300">
<ele>476.199982</ele>
<time>2014-01-03T07:39:01.000Z</time>
</trkpt>
<trkpt lat="30.8771350" lon="34.7672600">
<ele>476.999969</ele>
<time>2014-01-03T07:39:05.000Z</time>
</trkpt>
<trkpt lat="30.8771210" lon="34.7673660">
<ele>477.699982</ele>
<time>2014-01-03T07:39:12.000Z</time>
</trkpt>
<trkpt lat="30.8771320" lon="34.7674910">
<ele>478.399994</ele>
<time>2014-01-03T07:39:16.000Z</time>
</trkpt>
<trkpt lat="30.8771950" lon="34.7675910">
<ele>478.899994</ele>
<time>2014-01-03T07:39:20.000Z</time>
</trkpt>
<trkpt lat="30.8772720" lon="34.7676500">
<ele>479.199982</ele>
<time>2014-01-03T07:39:23.000Z</time>
</trkpt>
<trkpt lat="30.8773720" lon="34.7677100">
<ele>479.399994</ele>
<time>2014-01-03T07:39:27.000Z</time>
</trkpt>
<trkpt lat="30.8774630" lon="34.7677820">
<ele>479.699982</ele>
<time>2014-01-03T07:39:31.000Z</time>
</trkpt>
<trkpt lat="30.8775340" lon="34.7678490">
<ele>480.100006</ele>
<time>2014-01-03T07:39:33.000Z</time>
</trkpt>
<trkpt lat="30.8776130" lon="34.7679100">
<ele>480.299988</ele>
<time>2014-01-03T07:39:36.000Z</time>
</trkpt>
<trkpt lat="30.8777320" lon="34.7679480">
<ele>480.399994</ele>
<time>2014-01-03T07:39:40.000Z</time>
</trkpt>
<trkpt lat="30.8778560" lon="34.7679310">
<ele>480.200012</ele>
<time>2014-01-03T07:39:44.000Z</time>
</trkpt>
<trkpt lat="30.8779660" lon="34.7678910">
<ele>480.100006</ele>
<time>2014-01-03T07:39:47.000Z</time>
</trkpt>
<trkpt lat="30.8780490" lon="34.7678490">
<ele>480.299988</ele>
<time>2014-01-03T07:39:51.000Z</time>
</trkpt>
<trkpt lat="30.8781510" lon="34.7678650">
<ele>480.899994</ele>
<time>2014-01-03T07:39:55.000Z</time>
</trkpt>
<trkpt lat="30.8782660" lon="34.7679010">
<ele>481.600006</ele>
<time>2014-01-03T07:39:59.000Z</time>
</trkpt>
<trkpt lat="30.8783540" lon="34.7679320">
<ele>482.099976</ele>
<time>2014-01-03T07:40:02.000Z</time>
</trkpt>
<trkpt lat="30.8784290" lon="34.7679980">
<ele>482.600006</ele>
<time>2014-01-03T07:40:04.000Z</time>
</trkpt>
<trkpt lat="30.8784980" lon="34.7680760">
<ele>483.000000</ele>
<time>2014-01-03T07:40:07.000Z</time>
</trkpt>
<trkpt lat="30.8785570" lon="34.7681800">
<ele>483.299988</ele>
<time>2014-01-03T07:40:11.000Z</time>
</trkpt>
<trkpt lat="30.8786290" lon="34.7682580">
<ele>483.399994</ele>
<time>2014-01-03T07:40:15.000Z</time>
</trkpt>
<trkpt lat="30.8787320" lon="34.7683290">
<ele>483.500000</ele>
<time>2014-01-03T07:40:19.000Z</time>
</trkpt>
<trkpt lat="30.8788190" lon="34.7683650">
<ele>483.800018</ele>
<time>2014-01-03T07:40:22.000Z</time>
</trkpt>
<trkpt lat="30.8789290" lon="34.7683990">
<ele>484.400024</ele>
<time>2014-01-03T07:40:26.000Z</time>
</trkpt>
<trkpt lat="30.8790240" lon="34.7683980">
<ele>484.899994</ele>
<time>2014-01-03T07:40:31.000Z</time>
</trkpt>
<trkpt lat="30.8790780" lon="34.7684000">
<ele>485.200012</ele>
<time>2014-01-03T07:41:06.000Z</time>
</trkpt>
<trkpt lat="30.8791810" lon="34.7683770">
<ele>485.699982</ele>
<time>2014-01-03T07:41:13.000Z</time>
</trkpt>
<trkpt lat="30.8792150" lon="34.7683980">
<ele>485.900024</ele>
<time>2014-01-03T07:41:54.000Z</time>
</trkpt>
<trkpt lat="30.8792580" lon="34.7684180">
<ele>486.100006</ele>
<time>2014-01-03T07:42:09.000Z</time>
</trkpt>
<trkpt lat="30.8793580" lon="34.7684420">
<ele>486.600006</ele>
<time>2014-01-03T07:42:13.000Z</time>
</trkpt>
<trkpt lat="30.8794510" lon="34.7684750">
<ele>487.000000</ele>
<time>2014-01-03T07:42:15.000Z</time>
</trkpt>
<trkpt lat="30.8795350" lon="34.7685290">
<ele>487.300018</ele>
<time>2014-01-03T07:42:18.000Z</time>
</trkpt>
<trkpt lat="30.8796200" lon="34.7685850">
<ele>487.600006</ele>
<time>2014-01-03T07:42:22.000Z</time>
</trkpt>
<trkpt lat="30.8797080" lon="34.7686350">
<ele>487.899994</ele>
<time>2014-01-03T07:42:25.000Z</time>
</trkpt>
<trkpt lat="30.8797930" lon="34.7686890">
<ele>488.300018</ele>
<time>2014-01-03T07:42:27.000Z</time>
</trkpt>
<trkpt lat="30.8798680" lon="34.7687640">
<ele>488.699982</ele>
<time>2014-01-03T07:42:30.000Z</time>
</trkpt>
<trkpt lat="30.8799270" lon="34.7688560">
<ele>489.299988</ele>
<time>2014-01-03T07:42:34.000Z</time>
</trkpt>
<trkpt lat="30.8799850" lon="34.7689480">
<ele>489.799988</ele>
<time>2014-01-03T07:42:37.000Z</time>
</trkpt>
<trkpt lat="30.8800690" lon="34.7690410">
<ele>490.300018</ele>
<time>2014-01-03T07:42:41.000Z</time>
</trkpt>
<trkpt lat="30.8801270" lon="34.7691380">
<ele>490.600006</ele>
<time>2014-01-03T07:42:45.000Z</time>
</trkpt>
<trkpt lat="30.8802020" lon="34.7692020">
<ele>490.899994</ele>
<time>2014-01-03T07:42:49.000Z</time>
</trkpt>
<trkpt lat="30.8802820" lon="34.7692780">
<ele>491.100006</ele>
<time>2014-01-03T07:42:56.000Z</time>
</trkpt>
<trkpt lat="30.8803740" lon="34.7693490">
<ele>491.200012</ele>
<time>2014-01-03T07:43:04.000Z</time>
</trkpt>
<trkpt lat="30.8804360" lon="34.7694280">
<ele>491.200012</ele>
<time>2014-01-03T07:43:11.000Z</time>
</trkpt>
<trkpt lat="30.8804880" lon="34.7695190">
<ele>491.100006</ele>
<time>2014-01-03T07:43:20.000Z</time>
</trkpt>
<trkpt lat="30.8805030" lon="34.7695880">
<ele>491.100006</ele>
<time>2014-01-03T07:43:30.000Z</time>
</trkpt>
<trkpt lat="30.8805300" lon="34.7696080">
<ele>491.200012</ele>
<time>2014-01-03T07:44:10.000Z</time>
</trkpt>
<trkpt lat="30.8805810" lon="34.7696430">
<ele>491.399994</ele>
<time>2014-01-03T07:44:25.000Z</time>
</trkpt>
<trkpt lat="30.8806530" lon="34.7697150">
<ele>491.800018</ele>
<time>2014-01-03T07:44:29.000Z</time>
</trkpt>
<trkpt lat="30.8807060" lon="34.7697550">
<ele>492.000000</ele>
<time>2014-01-03T07:44:40.000Z</time>
</trkpt>
<trkpt lat="30.8807420" lon="34.7697970">
<ele>492.299988</ele>
<time>2014-01-03T07:45:03.000Z</time>
</trkpt>
<trkpt lat="30.8808040" lon="34.7698920">
<ele>492.700012</ele>
<time>2014-01-03T07:45:08.000Z</time>
</trkpt>
<trkpt lat="30.8808660" lon="34.7699890">
<ele>493.300018</ele>
<time>2014-01-03T07:45:12.000Z</time>
</trkpt>
<trkpt lat="30.8808970" lon="34.7700910">
<ele>493.799988</ele>
<time>2014-01-03T07:45:16.000Z</time>
</trkpt>
<trkpt lat="30.8809430" lon="34.7702020">
<ele>494.299988</ele>
<time>2014-01-03T07:45:22.000Z</time>
</trkpt>
<trkpt lat="30.8810040" lon="34.7703060">
<ele>494.899994</ele>
<time>2014-01-03T07:45:27.000Z</time>
</trkpt>
<trkpt lat="30.8810720" lon="34.7703850">
<ele>495.400024</ele>
<time>2014-01-03T07:45:31.000Z</time>
</trkpt>
<trkpt lat="30.8811580" lon="34.7703310">
<ele>495.400024</ele>
<time>2014-01-03T07:45:36.000Z</time>
</trkpt>
<trkpt lat="30.8812300" lon="34.7702660">
<ele>495.199982</ele>
<time>2014-01-03T07:45:41.000Z</time>
</trkpt>
<trkpt lat="30.8813080" lon="34.7701980">
<ele>494.899994</ele>
<time>2014-01-03T07:45:46.000Z</time>
</trkpt>
<trkpt lat="30.8813960" lon="34.7701350">
<ele>494.700012</ele>
<time>2014-01-03T07:45:51.000Z</time>
</trkpt>
<trkpt lat="30.8814840" lon="34.7700940">
<ele>494.500000</ele>
<time>2014-01-03T07:45:57.000Z</time>
</trkpt>
<trkpt lat="30.8814920" lon="34.7701160">
<ele>494.599976</ele>
<time>2014-01-03T07:46:37.000Z</time>
</trkpt>
<trkpt lat="30.8814750" lon="34.7700570">
<ele>494.399994</ele>
<time>2014-01-03T07:47:00.000Z</time>
</trkpt>
<trkpt lat="30.8814620" lon="34.7699620">
<ele>494.000000</ele>
<time>2014-01-03T07:47:11.000Z</time>
</trkpt>
<trkpt lat="30.8814960" lon="34.7700040">
<ele>494.200012</ele>
<time>2014-01-03T07:47:34.000Z</time>
</trkpt>
<trkpt lat="30.8814790" lon="34.7701100">
<ele>494.599976</ele>
<time>2014-01-03T07:47:43.000Z</time>
</trkpt>
<trkpt lat="30.8814890" lon="34.7700990">
<ele>494.500000</ele>
<time>2014-01-03T07:48:24.000Z</time>
</trkpt>
<trkpt lat="30.8815390" lon="34.7700790">
<ele>494.500000</ele>
<time>2014-01-03T07:48:41.000Z</time>
</trkpt>
<trkpt lat="30.8816490" lon="34.7700720">
<ele>494.500000</ele>
<time>2014-01-03T07:48:47.000Z</time>
</trkpt>
<trkpt lat="30.8817690" lon="34.7700550">
<ele>494.500000</ele>
<time>2014-01-03T07:48:50.000Z</time>
</trkpt>
<trkpt lat="30.8819100" lon="34.7700500">
<ele>494.500000</ele>
<time>2014-01-03T07:48:52.000Z</time>
</trkpt>
<trkpt lat="30.8820070" lon="34.7700610">
<ele>494.500000</ele>
<time>2014-01-03T07:48:55.000Z</time>
</trkpt>
<trkpt lat="30.8821010" lon="34.7700830">
<ele>494.500000</ele>
<time>2014-01-03T07:48:56.000Z</time>
</trkpt>
<trkpt lat="30.8822350" lon="34.7701320">
<ele>493.699982</ele>
<time>2014-01-03T07:48:59.000Z</time>
</trkpt>
<trkpt lat="30.8823310" lon="34.7701740">
<ele>493.099976</ele>
<time>2014-01-03T07:49:02.000Z</time>
</trkpt>
<trkpt lat="30.8824150" lon="34.7702170">
<ele>492.600006</ele>
<time>2014-01-03T07:49:03.000Z</time>
</trkpt>
<trkpt lat="30.8825020" lon="34.7702470">
<ele>492.000000</ele>
<time>2014-01-03T07:49:06.000Z</time>
</trkpt>
<trkpt lat="30.8826020" lon="34.7702780">
<ele>491.299988</ele>
<time>2014-01-03T07:49:07.000Z</time>
</trkpt>
<trkpt lat="30.8827110" lon="34.7703080">
<ele>490.500000</ele>
<time>2014-01-03T07:49:10.000Z</time>
</trkpt>
<trkpt lat="30.8828220" lon="34.7703280">
<ele>489.799988</ele>
<time>2014-01-03T07:49:11.000Z</time>
</trkpt>
<trkpt lat="30.8829100" lon="34.7703740">
<ele>489.100006</ele>
<time>2014-01-03T07:49:14.000Z</time>
</trkpt>
<trkpt lat="30.8829840" lon="34.7704360">
<ele>488.500000</ele>
<time>2014-01-03T07:49:15.000Z</time>
</trkpt>
<trkpt lat="30.8830960" lon="34.7705240">
<ele>487.500000</ele>
<time>2014-01-03T07:49:19.000Z</time>
</trkpt>
<trkpt lat="30.8831650" lon="34.7706100">
<ele>486.700012</ele>
<time>2014-01-03T07:49:21.000Z</time>
</trkpt>
<trkpt lat="30.8832520" lon="34.7707130">
<ele>485.800018</ele>
<time>2014-01-03T07:49:22.000Z</time>
</trkpt>
<trkpt lat="30.8833330" lon="34.7708220">
<ele>485.099976</ele>
<time>2014-01-03T07:49:25.000Z</time>
</trkpt>
<trkpt lat="30.8834190" lon="34.7709420">
<ele>484.299988</ele>
<time>2014-01-03T07:49:26.000Z</time>
</trkpt>
<trkpt lat="30.8835000" lon="34.7710180">
<ele>483.899994</ele>
<time>2014-01-03T07:49:29.000Z</time>
</trkpt>
<trkpt lat="30.8835940" lon="34.7710900">
<ele>483.500000</ele>
<time>2014-01-03T07:49:31.000Z</time>
</trkpt>
<trkpt lat="30.8837130" lon="34.7711300">
<ele>483.299988</ele>
<time>2014-01-03T07:49:35.000Z</time>
</trkpt>
<trkpt lat="30.8838170" lon="34.7711530">
<ele>483.200012</ele>
<time>2014-01-03T07:49:38.000Z</time>
</trkpt>
<trkpt lat="30.8839260" lon="34.7711570">
<ele>483.100006</ele>
<time>2014-01-03T07:49:42.000Z</time>
</trkpt>
<trkpt lat="30.8840640" lon="34.7711360">
<ele>483.100006</ele>
<time>2014-01-03T07:49:45.000Z</time>
</trkpt>
<trkpt lat="30.8841560" lon="34.7711100">
<ele>483.000000</ele>
<time>2014-01-03T07:49:46.000Z</time>
</trkpt>
<trkpt lat="30.8842460" lon="34.7710740">
<ele>482.900024</ele>
<time>2014-01-03T07:49:49.000Z</time>
</trkpt>
<trkpt lat="30.8843440" lon="34.7710230">
<ele>482.799988</ele>
<time>2014-01-03T07:49:50.000Z</time>
</trkpt>
<trkpt lat="30.8844500" lon="34.7709570">
<ele>482.500000</ele>
<time>2014-01-03T07:49:53.000Z</time>
</trkpt>
<trkpt lat="30.8845530" lon="34.7708920">
<ele>482.200012</ele>
<time>2014-01-03T07:49:54.000Z</time>
</trkpt>
<trkpt lat="30.8846730" lon="34.7708380">
<ele>481.600006</ele>
<time>2014-01-03T07:49:57.000Z</time>
</trkpt>
<trkpt lat="30.8848020" lon="34.7708130">
<ele>481.000000</ele>
<time>2014-01-03T07:49:58.000Z</time>
</trkpt>
<trkpt lat="30.8849330" lon="34.7708060">
<ele>480.500000</ele>
<time>2014-01-03T07:50:01.000Z</time>
</trkpt>
<trkpt lat="30.8850530" lon="34.7708230">
<ele>480.000000</ele>
<time>2014-01-03T07:50:02.000Z</time>
</trkpt>
<trkpt lat="30.8851540" lon="34.7708230">
<ele>479.600006</ele>
<time>2014-01-03T07:50:06.000Z</time>
</trkpt>
<trkpt lat="30.8851050" lon="34.7707220">
<ele>479.500000</ele>
<time>2014-01-03T07:50:16.000Z</time>
</trkpt>
<trkpt lat="30.8851200" lon="34.7706490">
<ele>479.199982</ele>
<time>2014-01-03T07:50:25.000Z</time>
</trkpt>
<trkpt lat="30.8852090" lon="34.7706100">
<ele>478.600006</ele>
<time>2014-01-03T07:50:32.000Z</time>
</trkpt>
<trkpt lat="30.8852890" lon="34.7706860">
<ele>478.499969</ele>
<time>2014-01-03T07:50:38.000Z</time>
</trkpt>
<trkpt lat="30.8853700" lon="34.7707740">
<ele>478.499969</ele>
<time>2014-01-03T07:50:43.000Z</time>
</trkpt>
<trkpt lat="30.8854490" lon="34.7708540">
<ele>478.399994</ele>
<time>2014-01-03T07:50:47.000Z</time>
</trkpt>
<trkpt lat="30.8855160" lon="34.7709510">
<ele>478.499969</ele>
<time>2014-01-03T07:50:51.000Z</time>
</trkpt>
<trkpt lat="30.8855620" lon="34.7710570">
<ele>478.600006</ele>
<time>2014-01-03T07:50:55.000Z</time>
</trkpt>
<trkpt lat="30.8855660" lon="34.7711640">
<ele>479.000000</ele>
<time>2014-01-03T07:50:58.000Z</time>
</trkpt>
<trkpt lat="30.8855190" lon="34.7712550">
<ele>479.500000</ele>
<time>2014-01-03T07:51:00.000Z</time>
</trkpt>
<trkpt lat="30.8854190" lon="34.7713230">
<ele>479.600006</ele>
<time>2014-01-03T07:51:05.000Z</time>
</trkpt>
<trkpt lat="30.8853310" lon="34.7713480">
<ele>479.699982</ele>
<time>2014-01-03T07:51:07.000Z</time>
</trkpt>
<trkpt lat="30.8852200" lon="34.7713610">
<ele>480.000000</ele>
<time>2014-01-03T07:51:10.000Z</time>
</trkpt>
<trkpt lat="30.8851030" lon="34.7713480">
<ele>480.500000</ele>
<time>2014-01-03T07:51:14.000Z</time>
</trkpt>
<trkpt lat="30.8849880" lon="34.7713360">
<ele>480.899994</ele>
<time>2014-01-03T07:51:17.000Z</time>
</trkpt>
<trkpt lat="30.8848940" lon="34.7713600">
<ele>481.100006</ele>
<time>2014-01-03T07:51:19.000Z</time>
</trkpt>
<trkpt lat="30.8848500" lon="34.7714580">
<ele>480.500000</ele>
<time>2014-01-03T07:51:23.000Z</time>
</trkpt>
<trkpt lat="30.8848440" lon="34.7715700">
<ele>479.600006</ele>
<time>2014-01-03T07:51:26.000Z</time>
</trkpt>
<trkpt lat="30.8847780" lon="34.7716720">
<ele>479.000000</ele>
<time>2014-01-03T07:51:30.000Z</time>
</trkpt>
<trkpt lat="30.8846850" lon="34.7716700">
<ele>479.199982</ele>
<time>2014-01-03T07:51:34.000Z</time>
</trkpt>
<trkpt lat="30.8845800" lon="34.7716500">
<ele>479.600006</ele>
<time>2014-01-03T07:51:37.000Z</time>
</trkpt>
<trkpt lat="30.8844860" lon="34.7716620">
<ele>479.500000</ele>
<time>2014-01-03T07:51:44.000Z</time>
</trkpt>
<trkpt lat="30.8843870" lon="34.7717040">
<ele>479.199982</ele>
<time>2014-01-03T07:51:53.000Z</time>
</trkpt>
<trkpt lat="30.8842890" lon="34.7717500">
<ele>478.799988</ele>
<time>2014-01-03T07:51:57.000Z</time>
</trkpt>
<trkpt lat="30.8842100" lon="34.7718050">
<ele>478.299988</ele>
<time>2014-01-03T07:52:01.000Z</time>
</trkpt>
<trkpt lat="30.8841240" lon="34.7718660">
<ele>477.800018</ele>
<time>2014-01-03T07:52:05.000Z</time>
</trkpt>
<trkpt lat="30.8840530" lon="34.7719410">
<ele>477.200012</ele>
<time>2014-01-03T07:52:09.000Z</time>
</trkpt>
<trkpt lat="30.8839850" lon="34.7720290">
<ele>476.500000</ele>
<time>2014-01-03T07:52:13.000Z</time>
</trkpt>
<trkpt lat="30.8839040" lon="34.7721220">
<ele>475.800018</ele>
<time>2014-01-03T07:52:19.000Z</time>
</trkpt>
<trkpt lat="30.8838090" lon="34.7721890">
<ele>475.500031</ele>
<time>2014-01-03T07:52:23.000Z</time>
</trkpt>
<trkpt lat="30.8837120" lon="34.7722640">
<ele>475.299988</ele>
<time>2014-01-03T07:52:27.000Z</time>
</trkpt>
<trkpt lat="30.8836350" lon="34.7723370">
<ele>475.500031</ele>
<time>2014-01-03T07:52:30.000Z</time>
</trkpt>
<trkpt lat="30.8835660" lon="34.7724200">
<ele>475.700012</ele>
<time>2014-01-03T07:52:32.000Z</time>
</trkpt>
<trkpt lat="30.8835870" lon="34.7725220">
<ele>475.200012</ele>
<time>2014-01-03T07:52:38.000Z</time>
</trkpt>
<trkpt lat="30.8836770" lon="34.7726110">
<ele>474.100006</ele>
<time>2014-01-03T07:52:42.000Z</time>
</trkpt>
<trkpt lat="30.8837230" lon="34.7727280">
<ele>473.199982</ele>
<time>2014-01-03T07:52:46.000Z</time>
</trkpt>
<trkpt lat="30.8837570" lon="34.7728500">
<ele>472.299988</ele>
<time>2014-01-03T07:52:48.000Z</time>
</trkpt>
<trkpt lat="30.8838160" lon="34.7729700">
<ele>471.799988</ele>
<time>2014-01-03T07:52:51.000Z</time>
</trkpt>
<trkpt lat="30.8838910" lon="34.7730980">
<ele>471.600006</ele>
<time>2014-01-03T07:52:55.000Z</time>
</trkpt>
<trkpt lat="30.8839450" lon="34.7731830">
<ele>471.399994</ele>
<time>2014-01-03T07:52:57.000Z</time>
</trkpt>
<trkpt lat="30.8840270" lon="34.7732520">
<ele>470.899994</ele>
<time>2014-01-03T07:52:58.000Z</time>
</trkpt>
<trkpt lat="30.8841010" lon="34.7733280">
<ele>470.500000</ele>
<time>2014-01-03T07:53:01.000Z</time>
</trkpt>
<trkpt lat="30.8841850" lon="34.7733840">
<ele>469.899994</ele>
<time>2014-01-03T07:53:02.000Z</time>
</trkpt>
<trkpt lat="30.8842810" lon="34.7734350">
<ele>469.100006</ele>
<time>2014-01-03T07:53:05.000Z</time>
</trkpt>
<trkpt lat="30.8843790" lon="34.7734680">
<ele>468.300018</ele>
<time>2014-01-03T07:53:06.000Z</time>
</trkpt>
<trkpt lat="30.8844830" lon="34.7734790">
<ele>467.500000</ele>
<time>2014-01-03T07:53:09.000Z</time>
</trkpt>
<trkpt lat="30.8845990" lon="34.7734520">
<ele>466.699982</ele>
<time>2014-01-03T07:53:10.000Z</time>
</trkpt>
<trkpt lat="30.8846940" lon="34.7734430">
<ele>466.399994</ele>
<time>2014-01-03T07:53:13.000Z</time>
</trkpt>
<trkpt lat="30.8848000" lon="34.7734440">
<ele>466.100006</ele>
<time>2014-01-03T07:53:14.000Z</time>
</trkpt>
<trkpt lat="30.8849140" lon="34.7734950">
<ele>465.500000</ele>
<time>2014-01-03T07:53:17.000Z</time>
</trkpt>
<trkpt lat="30.8849920" lon="34.7735650">
<ele>464.899994</ele>
<time>2014-01-03T07:53:18.000Z</time>
</trkpt>
<trkpt lat="30.8850760" lon="34.7736440">
<ele>464.199982</ele>
<time>2014-01-03T07:53:21.000Z</time>
</trkpt>
<trkpt lat="30.8851610" lon="34.7737320">
<ele>463.300018</ele>
<time>2014-01-03T07:53:22.000Z</time>
</trkpt>
<trkpt lat="30.8852200" lon="34.7738470">
<ele>462.500000</ele>
<time>2014-01-03T07:53:25.000Z</time>
</trkpt>
<trkpt lat="30.8852640" lon="34.7739700">
<ele>461.600006</ele>
<time>2014-01-03T07:53:26.000Z</time>
</trkpt>
<trkpt lat="30.8852860" lon="34.7741110">
<ele>460.800018</ele>
<time>2014-01-03T07:53:29.000Z</time>
</trkpt>
<trkpt lat="30.8853290" lon="34.7742660">
<ele>459.899994</ele>
<time>2014-01-03T07:53:30.000Z</time>
</trkpt>
<trkpt lat="30.8853790" lon="34.7744030">
<ele>459.000000</ele>
<time>2014-01-03T07:53:33.000Z</time>
</trkpt>
<trkpt lat="30.8853840" lon="34.7745310">
<ele>458.399994</ele>
<time>2014-01-03T07:53:34.000Z</time>
</trkpt>
<trkpt lat="30.8853870" lon="34.7746570">
<ele>457.799988</ele>
<time>2014-01-03T07:53:37.000Z</time>
</trkpt>
<trkpt lat="30.8853920" lon="34.7747910">
<ele>457.099976</ele>
<time>2014-01-03T07:53:38.000Z</time>
</trkpt>
<trkpt lat="30.8853740" lon="34.7749540">
<ele>456.400024</ele>
<time>2014-01-03T07:53:42.000Z</time>
</trkpt>
<trkpt lat="30.8853440" lon="34.7750830">
<ele>455.800018</ele>
<time>2014-01-03T07:53:45.000Z</time>
</trkpt>
<trkpt lat="30.8853530" lon="34.7752540">
<ele>454.900024</ele>
<time>2014-01-03T07:53:49.000Z</time>
</trkpt>
<trkpt lat="30.8853860" lon="34.7754380">
<ele>454.300018</ele>
<time>2014-01-03T07:53:53.000Z</time>
</trkpt>
<trkpt lat="30.8853940" lon="34.7755520">
<ele>455.500000</ele>
<time>2014-01-03T07:53:57.000Z</time>
</trkpt>
<trkpt lat="30.8854120" lon="34.7756680">
<ele>456.700012</ele>
<time>2014-01-03T07:54:03.000Z</time>
</trkpt>
<trkpt lat="30.8854350" lon="34.7756810">
<ele>456.799988</ele>
<time>2014-01-03T07:54:43.000Z</time>
</trkpt>
<trkpt lat="30.8854360" lon="34.7756760">
<ele>456.799988</ele>
<time>2014-01-03T07:55:22.000Z</time>
</trkpt>
<trkpt lat="30.8853770" lon="34.7757350">
<ele>457.500000</ele>
<time>2014-01-03T07:55:33.000Z</time>
</trkpt>
<trkpt lat="30.8854040" lon="34.7758510">
<ele>458.700012</ele>
<time>2014-01-03T07:55:39.000Z</time>
</trkpt>
<trkpt lat="30.8853750" lon="34.7759590">
<ele>459.799988</ele>
<time>2014-01-03T07:55:45.000Z</time>
</trkpt>
<trkpt lat="30.8853280" lon="34.7760580">
<ele>460.800018</ele>
<time>2014-01-03T07:55:53.000Z</time>
</trkpt>
<trkpt lat="30.8853920" lon="34.7761380">
<ele>461.700012</ele>
<time>2014-01-03T07:55:59.000Z</time>
</trkpt>
<trkpt lat="30.8854420" lon="34.7762280">
<ele>462.600006</ele>
<time>2014-01-03T07:56:03.000Z</time>
</trkpt>
<trkpt lat="30.8854450" lon="34.7763410">
<ele>463.399994</ele>
<time>2014-01-03T07:56:07.000Z</time>
</trkpt>
<trkpt lat="30.8854150" lon="34.7764550">
<ele>464.499969</ele>
<time>2014-01-03T07:56:11.000Z</time>
</trkpt>
<trkpt lat="30.8854050" lon="34.7763870">
<ele>464.000000</ele>
<time>2014-01-03T07:56:27.000Z</time>
</trkpt>
<trkpt lat="30.8854750" lon="34.7763210">
<ele>463.100006</ele>
<time>2014-01-03T07:56:31.000Z</time>
</trkpt>
<trkpt lat="30.8854260" lon="34.7762290">
<ele>462.700012</ele>
<time>2014-01-03T07:56:38.000Z</time>
</trkpt>
<trkpt lat="30.8853930" lon="34.7763320">
<ele>463.599976</ele>
<time>2014-01-03T07:56:46.000Z</time>
</trkpt>
<trkpt lat="30.8853980" lon="34.7764630">
<ele>464.499969</ele>
<time>2014-01-03T07:56:50.000Z</time>
</trkpt>
<trkpt lat="30.8853930" lon="34.7765690">
<ele>465.300018</ele>
<time>2014-01-03T07:56:53.000Z</time>
</trkpt>
<trkpt lat="30.8853890" lon="34.7767060">
<ele>466.399994</ele>
<time>2014-01-03T07:56:57.000Z</time>
</trkpt>
<trkpt lat="30.8853920" lon="34.7768150">
<ele>467.199982</ele>
<time>2014-01-03T07:57:00.000Z</time>
</trkpt>
<trkpt lat="30.8853910" lon="34.7769270">
<ele>468.000000</ele>
<time>2014-01-03T07:57:02.000Z</time>
</trkpt>
<trkpt lat="30.8853950" lon="34.7770340">
<ele>468.799988</ele>
<time>2014-01-03T07:57:05.000Z</time>
</trkpt>
<trkpt lat="30.8853950" lon="34.7771640">
<ele>469.899994</ele>
<time>2014-01-03T07:57:09.000Z</time>
</trkpt>
<trkpt lat="30.8854000" lon="34.7772950">
<ele>471.000000</ele>
<time>2014-01-03T07:57:13.000Z</time>
</trkpt>
<trkpt lat="30.8854320" lon="34.7774320">
<ele>471.799988</ele>
<time>2014-01-03T07:57:17.000Z</time>
</trkpt>
<trkpt lat="30.8854750" lon="34.7775340">
<ele>472.100006</ele>
<time>2014-01-03T07:57:21.000Z</time>
</trkpt>
<trkpt lat="30.8855370" lon="34.7776240">
<ele>472.100006</ele>
<time>2014-01-03T07:57:24.000Z</time>
</trkpt>
<trkpt lat="30.8856030" lon="34.7777110">
<ele>471.900024</ele>
<time>2014-01-03T07:57:27.000Z</time>
</trkpt>
<trkpt lat="30.8856430" lon="34.7778080">
<ele>472.000000</ele>
<time>2014-01-03T07:57:29.000Z</time>
</trkpt>
<trkpt lat="30.8856460" lon="34.7779140">
<ele>472.700012</ele>
<time>2014-01-03T07:57:32.000Z</time>
</trkpt>
<trkpt lat="30.8856580" lon="34.7780500">
<ele>472.800018</ele>
<time>2014-01-03T07:57:36.000Z</time>
</trkpt>
<trkpt lat="30.8857080" lon="34.7781700">
<ele>472.399994</ele>
<time>2014-01-03T07:57:40.000Z</time>
</trkpt>
<trkpt lat="30.8857580" lon="34.7782600">
<ele>471.900024</ele>
<time>2014-01-03T07:57:44.000Z</time>
</trkpt>
<trkpt lat="30.8858050" lon="34.7783630">
<ele>471.500000</ele>
<time>2014-01-03T07:57:47.000Z</time>
</trkpt>
<trkpt lat="30.8858560" lon="34.7784610">
<ele>471.000000</ele>
<time>2014-01-03T07:57:50.000Z</time>
</trkpt>
<trkpt lat="30.8859050" lon="34.7785610">
<ele>470.500000</ele>
<time>2014-01-03T07:57:52.000Z</time>
</trkpt>
<trkpt lat="30.8859440" lon="34.7786660">
<ele>470.199982</ele>
<time>2014-01-03T07:57:55.000Z</time>
</trkpt>
<trkpt lat="30.8859830" lon="34.7787700">
<ele>470.100006</ele>
<time>2014-01-03T07:57:59.000Z</time>
</trkpt>
<trkpt lat="30.8860220" lon="34.7788680">
<ele>470.500000</ele>
<time>2014-01-03T07:58:02.000Z</time>
</trkpt>
<trkpt lat="30.8860690" lon="34.7789630">
<ele>470.700012</ele>
<time>2014-01-03T07:58:04.000Z</time>
</trkpt>
<trkpt lat="30.8861460" lon="34.7790320">
<ele>470.000000</ele>
<time>2014-01-03T07:58:07.000Z</time>
</trkpt>
<trkpt lat="30.8862330" lon="34.7790610">
<ele>468.600006</ele>
<time>2014-01-03T07:58:11.000Z</time>
</trkpt>
<trkpt lat="30.8863230" lon="34.7790790">
<ele>469.100006</ele>
<time>2014-01-03T07:58:14.000Z</time>
</trkpt>
<trkpt lat="30.8864030" lon="34.7791310">
<ele>470.000000</ele>
<time>2014-01-03T07:58:17.000Z</time>
</trkpt>
<trkpt lat="30.8864470" lon="34.7792240">
<ele>470.700012</ele>
<time>2014-01-03T07:58:19.000Z</time>
</trkpt>
<trkpt lat="30.8864710" lon="34.7793420">
<ele>471.300018</ele>
<time>2014-01-03T07:58:23.000Z</time>
</trkpt>
<trkpt lat="30.8864910" lon="34.7794480">
<ele>471.600006</ele>
<time>2014-01-03T07:58:29.000Z</time>
</trkpt>
<trkpt lat="30.8865510" lon="34.7795380">
<ele>471.900024</ele>
<time>2014-01-03T07:58:35.000Z</time>
</trkpt>
<trkpt lat="30.8865840" lon="34.7796370">
<ele>472.000000</ele>
<time>2014-01-03T07:58:42.000Z</time>
</trkpt>
<trkpt lat="30.8865790" lon="34.7796920">
<ele>472.000000</ele>
<time>2014-01-03T07:58:57.000Z</time>
</trkpt>
<trkpt lat="30.8866420" lon="34.7796340">
<ele>472.000000</ele>
<time>2014-01-03T07:59:06.000Z</time>
</trkpt>
<trkpt lat="30.8867270" lon="34.7795750">
<ele>472.000000</ele>
<time>2014-01-03T07:59:12.000Z</time>
</trkpt>
<trkpt lat="30.8868340" lon="34.7795590">
<ele>472.100006</ele>
<time>2014-01-03T07:59:15.000Z</time>
</trkpt>
<trkpt lat="30.8869630" lon="34.7795840">
<ele>472.000000</ele>
<time>2014-01-03T07:59:17.000Z</time>
</trkpt>
<trkpt lat="30.8870750" lon="34.7796050">
<ele>472.000000</ele>
<time>2014-01-03T07:59:20.000Z</time>
</trkpt>
<trkpt lat="30.8871650" lon="34.7796350">
<ele>473.199982</ele>
<time>2014-01-03T07:59:24.000Z</time>
</trkpt>
<trkpt lat="30.8872400" lon="34.7796970">
<ele>474.200012</ele>
<time>2014-01-03T07:59:27.000Z</time>
</trkpt>
<trkpt lat="30.8873200" lon="34.7797910">
<ele>474.900024</ele>
<time>2014-01-03T07:59:31.000Z</time>
</trkpt>
<trkpt lat="30.8874060" lon="34.7798880">
<ele>475.399994</ele>
<time>2014-01-03T07:59:35.000Z</time>
</trkpt>
<trkpt lat="30.8874940" lon="34.7799670">
<ele>475.700012</ele>
<time>2014-01-03T07:59:38.000Z</time>
</trkpt>
<trkpt lat="30.8875780" lon="34.7800200">
<ele>476.100006</ele>
<time>2014-01-03T07:59:40.000Z</time>
</trkpt>
<trkpt lat="30.8876660" lon="34.7800630">
<ele>476.399994</ele>
<time>2014-01-03T07:59:43.000Z</time>
</trkpt>
<trkpt lat="30.8877510" lon="34.7801090">
<ele>476.500000</ele>
<time>2014-01-03T07:59:47.000Z</time>
</trkpt>
<trkpt lat="30.8878420" lon="34.7801880">
<ele>476.100006</ele>
<time>2014-01-03T07:59:51.000Z</time>
</trkpt>
<trkpt lat="30.8879260" lon="34.7802530">
<ele>475.700012</ele>
<time>2014-01-03T07:59:55.000Z</time>
</trkpt>
<trkpt lat="30.8880160" lon="34.7803000">
<ele>475.800018</ele>
<time>2014-01-03T07:59:59.000Z</time>
</trkpt>
<trkpt lat="30.8880850" lon="34.7803850">
<ele>475.100006</ele>
<time>2014-01-03T08:00:03.000Z</time>
</trkpt>
<trkpt lat="30.8881230" lon="34.7804820">
<ele>475.100006</ele>
<time>2014-01-03T08:00:07.000Z</time>
</trkpt>
<trkpt lat="30.8881750" lon="34.7805810">
<ele>475.700012</ele>
<time>2014-01-03T08:00:11.000Z</time>
</trkpt>
<trkpt lat="30.8882560" lon="34.7806450">
<ele>476.300018</ele>
<time>2014-01-03T08:00:15.000Z</time>
</trkpt>
<trkpt lat="30.8883510" lon="34.7807050">
<ele>476.699982</ele>
<time>2014-01-03T08:00:19.000Z</time>
</trkpt>
<trkpt lat="30.8884210" lon="34.7807700">
<ele>476.899994</ele>
<time>2014-01-03T08:00:22.000Z</time>
</trkpt>
<trkpt lat="30.8885050" lon="34.7808660">
<ele>476.799988</ele>
<time>2014-01-03T08:00:26.000Z</time>
</trkpt>
<trkpt lat="30.8885630" lon="34.7809840">
<ele>476.300018</ele>
<time>2014-01-03T08:00:30.000Z</time>
</trkpt>
<trkpt lat="30.8886040" lon="34.7810840">
<ele>475.700012</ele>
<time>2014-01-03T08:00:34.000Z</time>
</trkpt>
<trkpt lat="30.8886460" lon="34.7811790">
<ele>475.000000</ele>
<time>2014-01-03T08:00:37.000Z</time>
</trkpt>
<trkpt lat="30.8886880" lon="34.7812930">
<ele>474.600006</ele>
<time>2014-01-03T08:00:41.000Z</time>
</trkpt>
<trkpt lat="30.8887200" lon="34.7814080">
<ele>475.000000</ele>
<time>2014-01-03T08:00:45.000Z</time>
</trkpt>
<trkpt lat="30.8887390" lon="34.7815320">
<ele>475.500031</ele>
<time>2014-01-03T08:00:49.000Z</time>
</trkpt>
<trkpt lat="30.8887480" lon="34.7816510">
<ele>476.000000</ele>
<time>2014-01-03T08:00:53.000Z</time>
</trkpt>
<trkpt lat="30.8887490" lon="34.7817650">
<ele>476.500000</ele>
<time>2014-01-03T08:00:57.000Z</time>
</trkpt>
<trkpt lat="30.8887490" lon="34.7818730">
<ele>476.999969</ele>
<time>2014-01-03T08:01:01.000Z</time>
</trkpt>
<trkpt lat="30.8887560" lon="34.7819930">
<ele>477.699982</ele>
<time>2014-01-03T08:01:04.000Z</time>
</trkpt>
<trkpt lat="30.8887630" lon="34.7821280">
<ele>478.600006</ele>
<time>2014-01-03T08:01:08.000Z</time>
</trkpt>
<trkpt lat="30.8887650" lon="34.7822400">
<ele>479.500000</ele>
<time>2014-01-03T08:01:12.000Z</time>
</trkpt>
<trkpt lat="30.8887750" lon="34.7823450">
<ele>480.599976</ele>
<time>2014-01-03T08:01:17.000Z</time>
</trkpt>
<trkpt lat="30.8887950" lon="34.7824680">
<ele>481.799988</ele>
<time>2014-01-03T08:01:23.000Z</time>
</trkpt>
<trkpt lat="30.8888120" lon="34.7825710">
<ele>482.900024</ele>
<time>2014-01-03T08:01:27.000Z</time>
</trkpt>
<trkpt lat="30.8888350" lon="34.7826740">
<ele>484.000000</ele>
<time>2014-01-03T08:01:31.000Z</time>
</trkpt>
<trkpt lat="30.8888570" lon="34.7827900">
<ele>485.099976</ele>
<time>2014-01-03T08:01:36.000Z</time>
</trkpt>
<trkpt lat="30.8888820" lon="34.7828970">
<ele>486.100006</ele>
<time>2014-01-03T08:01:42.000Z</time>
</trkpt>
<trkpt lat="30.8889100" lon="34.7830100">
<ele>487.400024</ele>
<time>2014-01-03T08:01:47.000Z</time>
</trkpt>
<trkpt lat="30.8889510" lon="34.7831040">
<ele>488.500000</ele>
<time>2014-01-03T08:01:51.000Z</time>
</trkpt>
<trkpt lat="30.8889940" lon="34.7832010">
<ele>489.399994</ele>
<time>2014-01-03T08:01:55.000Z</time>
</trkpt>
<trkpt lat="30.8890500" lon="34.7832850">
<ele>490.000000</ele>
<time>2014-01-03T08:01:58.000Z</time>
</trkpt>
<trkpt lat="30.8891330" lon="34.7833580">
<ele>490.399994</ele>
<time>2014-01-03T08:02:03.000Z</time>
</trkpt>
<trkpt lat="30.8891660" lon="34.7834760">
<ele>490.699982</ele>
<time>2014-01-03T08:02:10.000Z</time>
</trkpt>
<trkpt lat="30.8891600" lon="34.7836060">
<ele>491.100006</ele>
<time>2014-01-03T08:02:14.000Z</time>
</trkpt>
<trkpt lat="30.8891960" lon="34.7837140">
<ele>491.100006</ele>
<time>2014-01-03T08:02:18.000Z</time>
</trkpt>
<trkpt lat="30.8892890" lon="34.7837720">
<ele>490.399994</ele>
<time>2014-01-03T08:02:22.000Z</time>
</trkpt>
<trkpt lat="30.8893800" lon="34.7837780">
<ele>489.499969</ele>
<time>2014-01-03T08:02:26.000Z</time>
</trkpt>
<trkpt lat="30.8894740" lon="34.7837840">
<ele>488.500000</ele>
<time>2014-01-03T08:02:32.000Z</time>
</trkpt>
<trkpt lat="30.8895650" lon="34.7838190">
<ele>487.700012</ele>
<time>2014-01-03T08:02:37.000Z</time>
</trkpt>
<trkpt lat="30.8896550" lon="34.7838830">
<ele>488.900024</ele>
<time>2014-01-03T08:02:41.000Z</time>
</trkpt>
<trkpt lat="30.8897650" lon="34.7838860">
<ele>490.199982</ele>
<time>2014-01-03T08:02:45.000Z</time>
</trkpt>
<trkpt lat="30.8898640" lon="34.7838700">
<ele>491.500000</ele>
<time>2014-01-03T08:02:49.000Z</time>
</trkpt>
<trkpt lat="30.8899590" lon="34.7838440">
<ele>492.700012</ele>
<time>2014-01-03T08:02:53.000Z</time>
</trkpt>
<trkpt lat="30.8900630" lon="34.7838640">
<ele>494.000000</ele>
<time>2014-01-03T08:03:00.000Z</time>
</trkpt>
<trkpt lat="30.8901160" lon="34.7839520">
<ele>494.299988</ele>
<time>2014-01-03T08:03:04.000Z</time>
</trkpt>
<trkpt lat="30.8901120" lon="34.7840680">
<ele>493.699982</ele>
<time>2014-01-03T08:03:09.000Z</time>
</trkpt>
<trkpt lat="30.8900890" lon="34.7841780">
<ele>493.000000</ele>
<time>2014-01-03T08:03:14.000Z</time>
</trkpt>
<trkpt lat="30.8900940" lon="34.7842970">
<ele>492.500000</ele>
<time>2014-01-03T08:03:18.000Z</time>
</trkpt>
<trkpt lat="30.8900960" lon="34.7844320">
<ele>491.899994</ele>
<time>2014-01-03T08:03:22.000Z</time>
</trkpt>
<trkpt lat="30.8900750" lon="34.7845370">
<ele>491.399994</ele>
<time>2014-01-03T08:03:24.000Z</time>
</trkpt>
<trkpt lat="30.8900080" lon="34.7846250">
<ele>492.000000</ele>
<time>2014-01-03T08:03:27.000Z</time>
</trkpt>
<trkpt lat="30.8899290" lon="34.7846890">
<ele>493.300018</ele>
<time>2014-01-03T08:03:31.000Z</time>
</trkpt>
<trkpt lat="30.8898920" lon="34.7848120">
<ele>495.500000</ele>
<time>2014-01-03T08:03:35.000Z</time>
</trkpt>
<trkpt lat="30.8899200" lon="34.7849400">
<ele>497.200012</ele>
<time>2014-01-03T08:03:39.000Z</time>
</trkpt>
<trkpt lat="30.8899560" lon="34.7850510">
<ele>498.299988</ele>
<time>2014-01-03T08:03:43.000Z</time>
</trkpt>
<trkpt lat="30.8899970" lon="34.7851600">
<ele>499.200012</ele>
<time>2014-01-03T08:03:47.000Z</time>
</trkpt>
<trkpt lat="30.8900270" lon="34.7852630">
<ele>500.000000</ele>
<time>2014-01-03T08:03:51.000Z</time>
</trkpt>
<trkpt lat="30.8900210" lon="34.7853870">
<ele>501.600006</ele>
<time>2014-01-03T08:03:57.000Z</time>
</trkpt>
<trkpt lat="30.8900620" lon="34.7854900">
<ele>501.600006</ele>
<time>2014-01-03T08:04:01.000Z</time>
</trkpt>
<trkpt lat="30.8901040" lon="34.7855990">
<ele>501.300018</ele>
<time>2014-01-03T08:04:05.000Z</time>
</trkpt>
<trkpt lat="30.8900870" lon="34.7857170">
<ele>502.500000</ele>
<time>2014-01-03T08:04:10.000Z</time>
</trkpt>
<trkpt lat="30.8900880" lon="34.7858280">
<ele>503.199982</ele>
<time>2014-01-03T08:04:14.000Z</time>
</trkpt>
<trkpt lat="30.8901060" lon="34.7859440">
<ele>503.499969</ele>
<time>2014-01-03T08:04:20.000Z</time>
</trkpt>
<trkpt lat="30.8900570" lon="34.7860260">
<ele>505.200012</ele>
<time>2014-01-03T08:04:29.000Z</time>
</trkpt>
<trkpt lat="30.8899790" lon="34.7861040">
<ele>507.500000</ele>
<time>2014-01-03T08:04:36.000Z</time>
</trkpt>
<trkpt lat="30.8899680" lon="34.7862230">
<ele>508.599976</ele>
<time>2014-01-03T08:04:40.000Z</time>
</trkpt>
<trkpt lat="30.8899730" lon="34.7863310">
<ele>508.800018</ele>
<time>2014-01-03T08:04:44.000Z</time>
</trkpt>
<trkpt lat="30.8900010" lon="34.7864370">
<ele>508.399994</ele>
<time>2014-01-03T08:04:49.000Z</time>
</trkpt>
<trkpt lat="30.8900010" lon="34.7865630">
<ele>508.700012</ele>
<time>2014-01-03T08:04:55.000Z</time>
</trkpt>
<trkpt lat="30.8899640" lon="34.7866810">
<ele>509.899994</ele>
<time>2014-01-03T08:05:00.000Z</time>
</trkpt>
<trkpt lat="30.8899530" lon="34.7868040">
<ele>510.399994</ele>
<time>2014-01-03T08:05:04.000Z</time>
</trkpt>
<trkpt lat="30.8899180" lon="34.7869170">
<ele>511.399994</ele>
<time>2014-01-03T08:05:11.000Z</time>
</trkpt>
<trkpt lat="30.8898920" lon="34.7870250">
<ele>512.200012</ele>
<time>2014-01-03T08:05:15.000Z</time>
</trkpt>
<trkpt lat="30.8898940" lon="34.7871480">
<ele>512.599976</ele>
<time>2014-01-03T08:05:20.000Z</time>
</trkpt>
<trkpt lat="30.8899280" lon="34.7872580">
<ele>512.299988</ele>
<time>2014-01-03T08:05:24.000Z</time>
</trkpt>
<trkpt lat="30.8899850" lon="34.7873510">
<ele>511.399994</ele>
<time>2014-01-03T08:05:29.000Z</time>
</trkpt>
<trkpt lat="30.8900580" lon="34.7874290">
<ele>510.200012</ele>
<time>2014-01-03T08:05:33.000Z</time>
</trkpt>
<trkpt lat="30.8901400" lon="34.7874730">
<ele>508.700012</ele>
<time>2014-01-03T08:05:37.000Z</time>
</trkpt>
<trkpt lat="30.8902100" lon="34.7875510">
<ele>507.600006</ele>
<time>2014-01-03T08:05:42.000Z</time>
</trkpt>
<trkpt lat="30.8902650" lon="34.7876250">
<ele>506.799988</ele>
<time>2014-01-03T08:05:51.000Z</time>
</trkpt>
<trkpt lat="30.8903050" lon="34.7877370">
<ele>506.400024</ele>
<time>2014-01-03T08:06:01.000Z</time>
</trkpt>
<trkpt lat="30.8903330" lon="34.7878550">
<ele>506.400024</ele>
<time>2014-01-03T08:06:06.000Z</time>
</trkpt>
<trkpt lat="30.8903760" lon="34.7879630">
<ele>506.500000</ele>
<time>2014-01-03T08:06:13.000Z</time>
</trkpt>
<trkpt lat="30.8904390" lon="34.7880560">
<ele>507.399994</ele>
<time>2014-01-03T08:06:18.000Z</time>
</trkpt>
<trkpt lat="30.8905240" lon="34.7880990">
<ele>508.700012</ele>
<time>2014-01-03T08:06:25.000Z</time>
</trkpt>
<trkpt lat="30.8905540" lon="34.7881460">
<ele>509.500000</ele>
<time>2014-01-03T08:06:36.000Z</time>
</trkpt>
<trkpt lat="30.8906090" lon="34.7881530">
<ele>509.899994</ele>
<time>2014-01-03T08:06:48.000Z</time>
</trkpt>
<trkpt lat="30.8907070" lon="34.7881680">
<ele>510.699982</ele>
<time>2014-01-03T08:06:55.000Z</time>
</trkpt>
<trkpt lat="30.8907980" lon="34.7881710">
<ele>511.200012</ele>
<time>2014-01-03T08:07:02.000Z</time>
</trkpt>
<trkpt lat="30.8908990" lon="34.7881780">
<ele>511.800018</ele>
<time>2014-01-03T08:07:07.000Z</time>
</trkpt>
<trkpt lat="30.8909970" lon="34.7881630">
<ele>512.400024</ele>
<time>2014-01-03T08:07:15.000Z</time>
</trkpt>
<trkpt lat="30.8910970" lon="34.7881520">
<ele>513.000000</ele>
<time>2014-01-03T08:07:22.000Z</time>
</trkpt>
<trkpt lat="30.8911780" lon="34.7882130">
<ele>513.200012</ele>
<time>2014-01-03T08:07:27.000Z</time>
</trkpt>
<trkpt lat="30.8912420" lon="34.7883000">
<ele>512.799988</ele>
<time>2014-01-03T08:07:34.000Z</time>
</trkpt>
<trkpt lat="30.8913020" lon="34.7883830">
<ele>512.400024</ele>
<time>2014-01-03T08:07:42.000Z</time>
</trkpt>
<trkpt lat="30.8913470" lon="34.7884750">
<ele>511.700012</ele>
<time>2014-01-03T08:07:49.000Z</time>
</trkpt>
<trkpt lat="30.8914230" lon="34.7885480">
<ele>511.299988</ele>
<time>2014-01-03T08:07:57.000Z</time>
</trkpt>
<trkpt lat="30.8915190" lon="34.7885810">
<ele>511.299988</ele>
<time>2014-01-03T08:08:04.000Z</time>
</trkpt>
<trkpt lat="30.8916200" lon="34.7885710">
<ele>511.700012</ele>
<time>2014-01-03T08:08:11.000Z</time>
</trkpt>
<trkpt lat="30.8917160" lon="34.7885660">
<ele>512.100037</ele>
<time>2014-01-03T08:08:16.000Z</time>
</trkpt>
<trkpt lat="30.8918080" lon="34.7885440">
<ele>512.700012</ele>
<time>2014-01-03T08:08:24.000Z</time>
</trkpt>
<trkpt lat="30.8918990" lon="34.7885250">
<ele>513.399963</ele>
<time>2014-01-03T08:08:28.000Z</time>
</trkpt>
<trkpt lat="30.8919990" lon="34.7885130">
<ele>513.900024</ele>
<time>2014-01-03T08:08:36.000Z</time>
</trkpt>
<trkpt lat="30.8920920" lon="34.7885310">
<ele>514.000000</ele>
<time>2014-01-03T08:08:42.000Z</time>
</trkpt>
<trkpt lat="30.8921870" lon="34.7885230">
<ele>514.500000</ele>
<time>2014-01-03T08:08:48.000Z</time>
</trkpt>
<trkpt lat="30.8922750" lon="34.7885670">
<ele>514.099976</ele>
<time>2014-01-03T08:08:55.000Z</time>
</trkpt>
<trkpt lat="30.8923590" lon="34.7886180">
<ele>513.500000</ele>
<time>2014-01-03T08:09:02.000Z</time>
</trkpt>
<trkpt lat="30.8924410" lon="34.7886840">
<ele>512.799988</ele>
<time>2014-01-03T08:09:10.000Z</time>
</trkpt>
<trkpt lat="30.8925280" lon="34.7887340">
<ele>512.400024</ele>
<time>2014-01-03T08:09:17.000Z</time>
</trkpt>
<trkpt lat="30.8925700" lon="34.7888280">
<ele>512.200012</ele>
<time>2014-01-03T08:09:25.000Z</time>
</trkpt>
<trkpt lat="30.8926560" lon="34.7888780">
<ele>512.500000</ele>
<time>2014-01-03T08:09:32.000Z</time>
</trkpt>
<trkpt lat="30.8927400" lon="34.7889520">
<ele>512.700012</ele>
<time>2014-01-03T08:09:38.000Z</time>
</trkpt>
<trkpt lat="30.8927910" lon="34.7890600">
<ele>512.599976</ele>
<time>2014-01-03T08:09:46.000Z</time>
</trkpt>
<trkpt lat="30.8928130" lon="34.7891670">
<ele>512.299988</ele>
<time>2014-01-03T08:09:53.000Z</time>
</trkpt>
<trkpt lat="30.8928790" lon="34.7891900">
<ele>512.400024</ele>
<time>2014-01-03T08:10:03.000Z</time>
</trkpt>
<trkpt lat="30.8929350" lon="34.7891930">
<ele>512.500000</ele>
<time>2014-01-03T08:10:12.000Z</time>
</trkpt>
<trkpt lat="30.8929840" lon="34.7892040">
<ele>512.799988</ele>
<time>2014-01-03T08:10:28.000Z</time>
</trkpt>
<trkpt lat="30.8930300" lon="34.7892030">
<ele>513.200012</ele>
<time>2014-01-03T08:10:39.000Z</time>
</trkpt>
<trkpt lat="30.8931000" lon="34.7891880">
<ele>513.700012</ele>
<time>2014-01-03T08:10:50.000Z</time>
</trkpt>
<trkpt lat="30.8930990" lon="34.7891910">
<ele>513.700012</ele>
<time>2014-01-03T08:11:29.000Z</time>
</trkpt>
<trkpt lat="30.8930970" lon="34.7891730">
<ele>513.799988</ele>
<time>2014-01-03T08:12:09.000Z</time>
</trkpt>
<trkpt lat="30.8930910" lon="34.7891900">
<ele>513.700012</ele>
<time>2014-01-03T08:12:50.000Z</time>
</trkpt>
<trkpt lat="30.8931340" lon="34.7891610">
<ele>514.099976</ele>
<time>2014-01-03T08:13:06.000Z</time>
</trkpt>
<trkpt lat="30.8932300" lon="34.7891140">
<ele>515.000000</ele>
<time>2014-01-03T08:13:13.000Z</time>
</trkpt>
<trkpt lat="30.8933160" lon="34.7890570">
<ele>515.900024</ele>
<time>2014-01-03T08:13:18.000Z</time>
</trkpt>
<trkpt lat="30.8934130" lon="34.7890050">
<ele>516.899963</ele>
<time>2014-01-03T08:13:24.000Z</time>
</trkpt>
<trkpt lat="30.8935140" lon="34.7889540">
<ele>517.900024</ele>
<time>2014-01-03T08:13:29.000Z</time>
</trkpt>
<trkpt lat="30.8935880" lon="34.7888780">
<ele>518.900024</ele>
<time>2014-01-03T08:13:33.000Z</time>
</trkpt>
<trkpt lat="30.8936500" lon="34.7887970">
<ele>519.899963</ele>
<time>2014-01-03T08:13:37.000Z</time>
</trkpt>
<trkpt lat="30.8937190" lon="34.7887060">
<ele>521.000000</ele>
<time>2014-01-03T08:13:41.000Z</time>
</trkpt>
<trkpt lat="30.8937890" lon="34.7886250">
<ele>521.799988</ele>
<time>2014-01-03T08:13:45.000Z</time>
</trkpt>
<trkpt lat="30.8938390" lon="34.7885310">
<ele>522.500000</ele>
<time>2014-01-03T08:13:49.000Z</time>
</trkpt>
<trkpt lat="30.8939170" lon="34.7884570">
<ele>523.100037</ele>
<time>2014-01-03T08:13:56.000Z</time>
</trkpt>
<trkpt lat="30.8939380" lon="34.7884570">
<ele>523.200012</ele>
<time>2014-01-03T08:14:35.000Z</time>
</trkpt>
<trkpt lat="30.8939520" lon="34.7884650">
<ele>523.200012</ele>
<time>2014-01-03T08:15:16.000Z</time>
</trkpt>
<trkpt lat="30.8940010" lon="34.7884620">
<ele>523.500000</ele>
<time>2014-01-03T08:15:27.000Z</time>
</trkpt>
<trkpt lat="30.8940890" lon="34.7884300">
<ele>523.900024</ele>
<time>2014-01-03T08:15:33.000Z</time>
</trkpt>
<trkpt lat="30.8941830" lon="34.7883840">
<ele>524.399963</ele>
<time>2014-01-03T08:15:40.000Z</time>
</trkpt>
<trkpt lat="30.8942590" lon="34.7883210">
<ele>524.900024</ele>
<time>2014-01-03T08:15:47.000Z</time>
</trkpt>
<trkpt lat="30.8943240" lon="34.7882470">
<ele>525.200012</ele>
<time>2014-01-03T08:15:52.000Z</time>
</trkpt>
<trkpt lat="30.8944010" lon="34.7881830">
<ele>525.500000</ele>
<time>2014-01-03T08:15:59.000Z</time>
</trkpt>
<trkpt lat="30.8944790" lon="34.7881160">
<ele>525.799988</ele>
<time>2014-01-03T08:16:07.000Z</time>
</trkpt>
<trkpt lat="30.8945740" lon="34.7880900">
<ele>526.000000</ele>
<time>2014-01-03T08:16:15.000Z</time>
</trkpt>
<trkpt lat="30.8946720" lon="34.7880980">
<ele>526.400024</ele>
<time>2014-01-03T08:16:22.000Z</time>
</trkpt>
<trkpt lat="30.8947620" lon="34.7881120">
<ele>526.700012</ele>
<time>2014-01-03T08:16:26.000Z</time>
</trkpt>
<trkpt lat="30.8948340" lon="34.7882000">
<ele>527.099976</ele>
<time>2014-01-03T08:16:33.000Z</time>
</trkpt>
<trkpt lat="30.8949040" lon="34.7882870">
<ele>527.500000</ele>
<time>2014-01-03T08:16:38.000Z</time>
</trkpt>
<trkpt lat="30.8949800" lon="34.7883530">
<ele>527.899963</ele>
<time>2014-01-03T08:16:44.000Z</time>
</trkpt>
<trkpt lat="30.8950780" lon="34.7884030">
<ele>528.500000</ele>
<time>2014-01-03T08:16:49.000Z</time>
</trkpt>
<trkpt lat="30.8951630" lon="34.7884590">
<ele>529.000000</ele>
<time>2014-01-03T08:16:54.000Z</time>
</trkpt>
<trkpt lat="30.8952460" lon="34.7885240">
<ele>529.500000</ele>
<time>2014-01-03T08:17:00.000Z</time>
</trkpt>
<trkpt lat="30.8953260" lon="34.7885940">
<ele>530.099976</ele>
<time>2014-01-03T08:17:04.000Z</time>
</trkpt>
<trkpt lat="30.8954100" lon="34.7886940">
<ele>530.799988</ele>
<time>2014-01-03T08:17:08.000Z</time>
</trkpt>
<trkpt lat="30.8954790" lon="34.7888050">
<ele>531.200012</ele>
<time>2014-01-03T08:17:12.000Z</time>
</trkpt>
<trkpt lat="30.8955300" lon="34.7889130">
<ele>531.299988</ele>
<time>2014-01-03T08:17:16.000Z</time>
</trkpt>
<trkpt lat="30.8955720" lon="34.7890220">
<ele>531.500000</ele>
<time>2014-01-03T08:17:20.000Z</time>
</trkpt>
<trkpt lat="30.8956170" lon="34.7891260">
<ele>531.700012</ele>
<time>2014-01-03T08:17:24.000Z</time>
</trkpt>
<trkpt lat="30.8956700" lon="34.7892320">
<ele>532.000000</ele>
<time>2014-01-03T08:17:28.000Z</time>
</trkpt>
<trkpt lat="30.8957280" lon="34.7893320">
<ele>532.299988</ele>
<time>2014-01-03T08:17:32.000Z</time>
</trkpt>
<trkpt lat="30.8957830" lon="34.7894290">
<ele>532.600037</ele>
<time>2014-01-03T08:17:36.000Z</time>
</trkpt>
<trkpt lat="30.8958360" lon="34.7895310">
<ele>532.900024</ele>
<time>2014-01-03T08:17:40.000Z</time>
</trkpt>
<trkpt lat="30.8958920" lon="34.7896490">
<ele>533.400024</ele>
<time>2014-01-03T08:17:43.000Z</time>
</trkpt>
<trkpt lat="30.8959590" lon="34.7897620">
<ele>533.799988</ele>
<time>2014-01-03T08:17:47.000Z</time>
</trkpt>
<trkpt lat="30.8960450" lon="34.7898400">
<ele>534.299988</ele>
<time>2014-01-03T08:17:51.000Z</time>
</trkpt>
<trkpt lat="30.8961490" lon="34.7898830">
<ele>534.900024</ele>
<time>2014-01-03T08:17:55.000Z</time>
</trkpt>
<trkpt lat="30.8962580" lon="34.7899250">
<ele>535.399963</ele>
<time>2014-01-03T08:17:59.000Z</time>
</trkpt>
<trkpt lat="30.8963620" lon="34.7899830">
<ele>535.700012</ele>
<time>2014-01-03T08:18:03.000Z</time>
</trkpt>
<trkpt lat="30.8964370" lon="34.7900620">
<ele>535.900024</ele>
<time>2014-01-03T08:18:07.000Z</time>
</trkpt>
<trkpt lat="30.8964710" lon="34.7901700">
<ele>536.200012</ele>
<time>2014-01-03T08:18:11.000Z</time>
</trkpt>
<trkpt lat="30.8964800" lon="34.7902800">
<ele>536.299988</ele>
<time>2014-01-03T08:18:15.000Z</time>
</trkpt>
<trkpt lat="30.8964920" lon="34.7903980">
<ele>536.599976</ele>
<time>2014-01-03T08:18:19.000Z</time>
</trkpt>
<trkpt lat="30.8964950" lon="34.7905030">
<ele>536.599976</ele>
<time>2014-01-03T08:18:22.000Z</time>
</trkpt>
<trkpt lat="30.8964850" lon="34.7906390">
<ele>536.700012</ele>
<time>2014-01-03T08:18:26.000Z</time>
</trkpt>
<trkpt lat="30.8964450" lon="34.7907680">
<ele>536.700012</ele>
<time>2014-01-03T08:18:30.000Z</time>
</trkpt>
<trkpt lat="30.8963910" lon="34.7908860">
<ele>536.500000</ele>
<time>2014-01-03T08:18:34.000Z</time>
</trkpt>
<trkpt lat="30.8963480" lon="34.7910100">
<ele>536.400024</ele>
<time>2014-01-03T08:18:38.000Z</time>
</trkpt>
<trkpt lat="30.8962930" lon="34.7911270">
<ele>536.200012</ele>
<time>2014-01-03T08:18:42.000Z</time>
</trkpt>
<trkpt lat="30.8962440" lon="34.7912200">
<ele>536.000000</ele>
<time>2014-01-03T08:18:45.000Z</time>
</trkpt>
<trkpt lat="30.8961900" lon="34.7913240">
<ele>535.900024</ele>
<time>2014-01-03T08:18:49.000Z</time>
</trkpt>
<trkpt lat="30.8961410" lon="34.7914300">
<ele>536.000000</ele>
<time>2014-01-03T08:18:52.000Z</time>
</trkpt>
<trkpt lat="30.8961000" lon="34.7915390">
<ele>536.099976</ele>
<time>2014-01-03T08:18:54.000Z</time>
</trkpt>
<trkpt lat="30.8960530" lon="34.7916480">
<ele>536.200012</ele>
<time>2014-01-03T08:18:57.000Z</time>
</trkpt>
<trkpt lat="30.8960020" lon="34.7917550">
<ele>536.400024</ele>
<time>2014-01-03T08:19:01.000Z</time>
</trkpt>
<trkpt lat="30.8959540" lon="34.7918560">
<ele>536.599976</ele>
<time>2014-01-03T08:19:04.000Z</time>
</trkpt>
<trkpt lat="30.8959050" lon="34.7919770">
<ele>536.799988</ele>
<time>2014-01-03T08:19:08.000Z</time>
</trkpt>
<trkpt lat="30.8958850" lon="34.7920940">
<ele>537.200012</ele>
<time>2014-01-03T08:19:12.000Z</time>
</trkpt>
<trkpt lat="30.8958600" lon="34.7921430">
<ele>537.299988</ele>
<time>2014-01-03T08:19:43.000Z</time>
</trkpt>
<trkpt lat="30.8957870" lon="34.7922450">
<ele>537.599976</ele>
<time>2014-01-03T08:19:47.000Z</time>
</trkpt>
<trkpt lat="30.8957160" lon="34.7923530">
<ele>537.900024</ele>
<time>2014-01-03T08:19:51.000Z</time>
</trkpt>
<trkpt lat="30.8956650" lon="34.7924510">
<ele>538.200012</ele>
<time>2014-01-03T08:19:55.000Z</time>
</trkpt>
<trkpt lat="30.8956230" lon="34.7925540">
<ele>538.600037</ele>
<time>2014-01-03T08:19:58.000Z</time>
</trkpt>
<trkpt lat="30.8955730" lon="34.7926520">
<ele>539.000000</ele>
<time>2014-01-03T08:20:01.000Z</time>
</trkpt>
<trkpt lat="30.8955260" lon="34.7927420">
<ele>539.299988</ele>
<time>2014-01-03T08:20:03.000Z</time>
</trkpt>
<trkpt lat="30.8954720" lon="34.7928650">
<ele>539.799988</ele>
<time>2014-01-03T08:20:07.000Z</time>
</trkpt>
<trkpt lat="30.8954270" lon="34.7929630">
<ele>540.099976</ele>
<time>2014-01-03T08:20:10.000Z</time>
</trkpt>
<trkpt lat="30.8954010" lon="34.7930700">
<ele>540.099976</ele>
<time>2014-01-03T08:20:14.000Z</time>
</trkpt>
<trkpt lat="30.8953680" lon="34.7931730">
<ele>540.000000</ele>
<time>2014-01-03T08:20:17.000Z</time>
</trkpt>
<trkpt lat="30.8953220" lon="34.7932710">
<ele>539.700012</ele>
<time>2014-01-03T08:20:20.000Z</time>
</trkpt>
<trkpt lat="30.8952790" lon="34.7933690">
<ele>539.599976</ele>
<time>2014-01-03T08:20:22.000Z</time>
</trkpt>
<trkpt lat="30.8952450" lon="34.7934910">
<ele>539.500000</ele>
<time>2014-01-03T08:20:26.000Z</time>
</trkpt>
<trkpt lat="30.8952510" lon="34.7936130">
<ele>539.599976</ele>
<time>2014-01-03T08:20:30.000Z</time>
</trkpt>
<trkpt lat="30.8952520" lon="34.7937210">
<ele>539.799988</ele>
<time>2014-01-03T08:20:33.000Z</time>
</trkpt>
<trkpt lat="30.8952370" lon="34.7938370">
<ele>539.700012</ele>
<time>2014-01-03T08:20:37.000Z</time>
</trkpt>
<trkpt lat="30.8951990" lon="34.7939440">
<ele>539.400024</ele>
<time>2014-01-03T08:20:40.000Z</time>
</trkpt>
<trkpt lat="30.8951530" lon="34.7940530">
<ele>539.099976</ele>
<time>2014-01-03T08:20:42.000Z</time>
</trkpt>
<trkpt lat="30.8951190" lon="34.7941690">
<ele>538.900024</ele>
<time>2014-01-03T08:20:45.000Z</time>
</trkpt>
<trkpt lat="30.8951160" lon="34.7942870">
<ele>538.900024</ele>
<time>2014-01-03T08:20:49.000Z</time>
</trkpt>
<trkpt lat="30.8951040" lon="34.7943940">
<ele>538.799988</ele>
<time>2014-01-03T08:20:52.000Z</time>
</trkpt>
<trkpt lat="30.8950710" lon="34.7944980">
<ele>538.700012</ele>
<time>2014-01-03T08:20:55.000Z</time>
</trkpt>
<trkpt lat="30.8950420" lon="34.7946260">
<ele>538.700012</ele>
<time>2014-01-03T08:20:59.000Z</time>
</trkpt>
<trkpt lat="30.8950350" lon="34.7947580">
<ele>538.799988</ele>
<time>2014-01-03T08:21:03.000Z</time>
</trkpt>
<trkpt lat="30.8950260" lon="34.7948850">
<ele>539.000000</ele>
<time>2014-01-03T08:21:07.000Z</time>
</trkpt>
<trkpt lat="30.8950110" lon="34.7950070">
<ele>539.000000</ele>
<time>2014-01-03T08:21:11.000Z</time>
</trkpt>
<trkpt lat="30.8949770" lon="34.7951350">
<ele>539.099976</ele>
<time>2014-01-03T08:21:15.000Z</time>
</trkpt>
<trkpt lat="30.8949620" lon="34.7952480">
<ele>539.200012</ele>
<time>2014-01-03T08:21:18.000Z</time>
</trkpt>
<trkpt lat="30.8949640" lon="34.7953790">
<ele>539.299988</ele>
<time>2014-01-03T08:21:22.000Z</time>
</trkpt>
<trkpt lat="30.8949710" lon="34.7955090">
<ele>539.299988</ele>
<time>2014-01-03T08:21:26.000Z</time>
</trkpt>
<trkpt lat="30.8949870" lon="34.7956170">
<ele>539.200012</ele>
<time>2014-01-03T08:21:28.000Z</time>
</trkpt>
<trkpt lat="30.8949950" lon="34.7957350">
<ele>539.099976</ele>
<time>2014-01-03T08:21:31.000Z</time>
</trkpt>
<trkpt lat="30.8949950" lon="34.7958520">
<ele>539.000000</ele>
<time>2014-01-03T08:21:35.000Z</time>
</trkpt>
<trkpt lat="30.8949970" lon="34.7959590">
<ele>538.799988</ele>
<time>2014-01-03T08:21:38.000Z</time>
</trkpt>
<trkpt lat="30.8950050" lon="34.7960680">
<ele>538.700012</ele>
<time>2014-01-03T08:21:41.000Z</time>
</trkpt>
<trkpt lat="30.8949990" lon="34.7961750">
<ele>538.600037</ele>
<time>2014-01-03T08:21:43.000Z</time>
</trkpt>
<trkpt lat="30.8949250" lon="34.7962770">
<ele>538.099976</ele>
<time>2014-01-03T08:21:47.000Z</time>
</trkpt>
<trkpt lat="30.8948310" lon="34.7963300">
<ele>537.500000</ele>
<time>2014-01-03T08:21:51.000Z</time>
</trkpt>
<trkpt lat="30.8947580" lon="34.7964190">
<ele>537.100037</ele>
<time>2014-01-03T08:21:57.000Z</time>
</trkpt>
<trkpt lat="30.8947110" lon="34.7965180">
<ele>536.899963</ele>
<time>2014-01-03T08:21:59.000Z</time>
</trkpt>
<trkpt lat="30.8946990" lon="34.7966370">
<ele>536.799988</ele>
<time>2014-01-03T08:22:02.000Z</time>
</trkpt>
<trkpt lat="30.8946890" lon="34.7967560">
<ele>536.799988</ele>
<time>2014-01-03T08:22:06.000Z</time>
</trkpt>
<trkpt lat="30.8946320" lon="34.7968480">
<ele>536.400024</ele>
<time>2014-01-03T08:22:09.000Z</time>
</trkpt>
<trkpt lat="30.8945730" lon="34.7969350">
<ele>535.900024</ele>
<time>2014-01-03T08:22:12.000Z</time>
</trkpt>
<trkpt lat="30.8945400" lon="34.7970410">
<ele>535.600037</ele>
<time>2014-01-03T08:22:14.000Z</time>
</trkpt>
<trkpt lat="30.8945280" lon="34.7971600">
<ele>535.600037</ele>
<time>2014-01-03T08:22:17.000Z</time>
</trkpt>
<trkpt lat="30.8945310" lon="34.7972860">
<ele>535.799988</ele>
<time>2014-01-03T08:22:21.000Z</time>
</trkpt>
<trkpt lat="30.8945480" lon="34.7974160">
<ele>536.099976</ele>
<time>2014-01-03T08:22:24.000Z</time>
</trkpt>
<trkpt lat="30.8945710" lon="34.7975440">
<ele>536.500000</ele>
<time>2014-01-03T08:22:26.000Z</time>
</trkpt>
<trkpt lat="30.8945810" lon="34.7976700">
<ele>536.700012</ele>
<time>2014-01-03T08:22:29.000Z</time>
</trkpt>
<trkpt lat="30.8945440" lon="34.7977810">
<ele>536.599976</ele>
<time>2014-01-03T08:22:33.000Z</time>
</trkpt>
<trkpt lat="30.8944740" lon="34.7978610">
<ele>536.400024</ele>
<time>2014-01-03T08:22:36.000Z</time>
</trkpt>
<trkpt lat="30.8943730" lon="34.7979290">
<ele>536.000000</ele>
<time>2014-01-03T08:22:40.000Z</time>
</trkpt>
<trkpt lat="30.8942860" lon="34.7979930">
<ele>535.799988</ele>
<time>2014-01-03T08:22:44.000Z</time>
</trkpt>
<trkpt lat="30.8942200" lon="34.7980650">
<ele>535.799988</ele>
<time>2014-01-03T08:22:48.000Z</time>
</trkpt>
<trkpt lat="30.8941710" lon="34.7981570">
<ele>535.900024</ele>
<time>2014-01-03T08:22:53.000Z</time>
</trkpt>
<trkpt lat="30.8941360" lon="34.7982560">
<ele>536.099976</ele>
<time>2014-01-03T08:23:00.000Z</time>
</trkpt>
<trkpt lat="30.8941310" lon="34.7983230">
<ele>536.299988</ele>
<time>2014-01-03T08:23:10.000Z</time>
</trkpt>
<trkpt lat="30.8941260" lon="34.7983170">
<ele>536.299988</ele>
<time>2014-01-03T08:23:50.000Z</time>
</trkpt>
<trkpt lat="30.8941280" lon="34.7983200">
<ele>536.299988</ele>
<time>2014-01-03T08:24:29.000Z</time>
</trkpt>
<trkpt lat="30.8941270" lon="34.7983200">
<ele>536.299988</ele>
<time>2014-01-03T08:25:10.000Z</time>
</trkpt>
<trkpt lat="30.8941250" lon="34.7983250">
<ele>536.299988</ele>
<time>2014-01-03T08:25:49.000Z</time>
</trkpt>
<trkpt lat="30.8941600" lon="34.7983610">
<ele>536.599976</ele>
<time>2014-01-03T08:26:11.000Z</time>
</trkpt>
<trkpt lat="30.8942450" lon="34.7984360">
<ele>537.100037</ele>
<time>2014-01-03T08:26:16.000Z</time>
</trkpt>
<trkpt lat="30.8943330" lon="34.7984980">
<ele>537.599976</ele>
<time>2014-01-03T08:26:21.000Z</time>
</trkpt>
<trkpt lat="30.8944290" lon="34.7984990">
<ele>537.900024</ele>
<time>2014-01-03T08:26:27.000Z</time>
</trkpt>
<trkpt lat="30.8945390" lon="34.7985190">
<ele>538.299988</ele>
<time>2014-01-03T08:26:32.000Z</time>
</trkpt>
<trkpt lat="30.8946410" lon="34.7985480">
<ele>538.500000</ele>
<time>2014-01-03T08:26:36.000Z</time>
</trkpt>
<trkpt lat="30.8947250" lon="34.7986060">
<ele>538.500000</ele>
<time>2014-01-03T08:26:40.000Z</time>
</trkpt>
<trkpt lat="30.8948120" lon="34.7986610">
<ele>538.399963</ele>
<time>2014-01-03T08:26:44.000Z</time>
</trkpt>
<trkpt lat="30.8948990" lon="34.7987320">
<ele>538.299988</ele>
<time>2014-01-03T08:26:50.000Z</time>
</trkpt>
<trkpt lat="30.8949970" lon="34.7987910">
<ele>537.900024</ele>
<time>2014-01-03T08:26:55.000Z</time>
</trkpt>
<trkpt lat="30.8950720" lon="34.7988540">
<ele>537.500000</ele>
<time>2014-01-03T08:27:00.000Z</time>
</trkpt>
<trkpt lat="30.8951210" lon="34.7989630">
<ele>536.899963</ele>
<time>2014-01-03T08:27:05.000Z</time>
</trkpt>
<trkpt lat="30.8951570" lon="34.7990990">
<ele>536.200012</ele>
<time>2014-01-03T08:27:07.000Z</time>
</trkpt>
<trkpt lat="30.8951740" lon="34.7992260">
<ele>535.500000</ele>
<time>2014-01-03T08:27:10.000Z</time>
</trkpt>
<trkpt lat="30.8952030" lon="34.7993350">
<ele>534.700012</ele>
<time>2014-01-03T08:27:14.000Z</time>
</trkpt>
<trkpt lat="30.8952520" lon="34.7994560">
<ele>533.700012</ele>
<time>2014-01-03T08:27:17.000Z</time>
</trkpt>
<trkpt lat="30.8953280" lon="34.7995720">
<ele>532.099976</ele>
<time>2014-01-03T08:27:19.000Z</time>
</trkpt>
<trkpt lat="30.8954360" lon="34.7996560">
<ele>531.100037</ele>
<time>2014-01-03T08:27:22.000Z</time>
</trkpt>
<trkpt lat="30.8955510" lon="34.7997200">
<ele>530.799988</ele>
<time>2014-01-03T08:27:26.000Z</time>
</trkpt>
<trkpt lat="30.8956470" lon="34.7997920">
<ele>530.500000</ele>
<time>2014-01-03T08:27:29.000Z</time>
</trkpt>
<trkpt lat="30.8957350" lon="34.7998700">
<ele>530.099976</ele>
<time>2014-01-03T08:27:32.000Z</time>
</trkpt>
<trkpt lat="30.8958130" lon="34.7999640">
<ele>529.700012</ele>
<time>2014-01-03T08:27:36.000Z</time>
</trkpt>
<trkpt lat="30.8958710" lon="34.8000700">
<ele>529.200012</ele>
<time>2014-01-03T08:27:37.000Z</time>
</trkpt>
<trkpt lat="30.8959140" lon="34.8001790">
<ele>528.700012</ele>
<time>2014-01-03T08:27:41.000Z</time>
</trkpt>
<trkpt lat="30.8959330" lon="34.8002870">
<ele>528.299988</ele>
<time>2014-01-03T08:27:44.000Z</time>
</trkpt>
<trkpt lat="30.8959360" lon="34.8003970">
<ele>528.100037</ele>
<time>2014-01-03T08:27:46.000Z</time>
</trkpt>
<trkpt lat="30.8959380" lon="34.8005030">
<ele>528.000000</ele>
<time>2014-01-03T08:27:49.000Z</time>
</trkpt>
<trkpt lat="30.8959710" lon="34.8006140">
<ele>527.700012</ele>
<time>2014-01-03T08:27:53.000Z</time>
</trkpt>
<trkpt lat="30.8960360" lon="34.8006890">
<ele>527.200012</ele>
<time>2014-01-03T08:27:57.000Z</time>
</trkpt>
<trkpt lat="30.8961070" lon="34.8007750">
<ele>526.799988</ele>
<time>2014-01-03T08:28:04.000Z</time>
</trkpt>
<trkpt lat="30.8961300" lon="34.8008090">
<ele>526.700012</ele>
<time>2014-01-03T08:28:43.000Z</time>
</trkpt>
<trkpt lat="30.8961340" lon="34.8008250">
<ele>526.700012</ele>
<time>2014-01-03T08:29:24.000Z</time>
</trkpt>
<trkpt lat="30.8961340" lon="34.8008250">
<ele>526.700012</ele>
<time>2014-01-03T08:30:04.000Z</time>
</trkpt>
<trkpt lat="30.8961350" lon="34.8008250">
<ele>526.700012</ele>
<time>2014-01-03T08:30:43.000Z</time>
</trkpt>
<trkpt lat="30.8961350" lon="34.8008250">
<ele>526.700012</ele>
<time>2014-01-03T08:31:24.000Z</time>
</trkpt>
<trkpt lat="30.8961350" lon="34.8008240">
<ele>526.700012</ele>
<time>2014-01-03T08:32:04.000Z</time>
</trkpt>
<trkpt lat="30.8961430" lon="34.8008280">
<ele>526.599976</ele>
<time>2014-01-03T08:32:43.000Z</time>
</trkpt>
<trkpt lat="30.8961430" lon="34.8008280">
<ele>526.599976</ele>
<time>2014-01-03T08:33:24.000Z</time>
</trkpt>
<trkpt lat="30.8961430" lon="34.8008280">
<ele>526.599976</ele>
<time>2014-01-03T08:34:03.000Z</time>
</trkpt>
<trkpt lat="30.8961430" lon="34.8008280">
<ele>526.599976</ele>
<time>2014-01-03T08:34:44.000Z</time>
</trkpt>
<trkpt lat="30.8961460" lon="34.8008240">
<ele>526.599976</ele>
<time>2014-01-03T08:35:24.000Z</time>
</trkpt>
<trkpt lat="30.8961460" lon="34.8008240">
<ele>526.599976</ele>
<time>2014-01-03T08:36:03.000Z</time>
</trkpt>
<trkpt lat="30.8961470" lon="34.8008230">
<ele>526.599976</ele>
<time>2014-01-03T08:36:44.000Z</time>
</trkpt>
<trkpt lat="30.8961470" lon="34.8008230">
<ele>526.599976</ele>
<time>2014-01-03T08:37:24.000Z</time>
</trkpt>
<trkpt lat="30.8961460" lon="34.8008230">
<ele>526.599976</ele>
<time>2014-01-03T08:38:03.000Z</time>
</trkpt>
<trkpt lat="30.8961460" lon="34.8008230">
<ele>526.599976</ele>
<time>2014-01-03T08:38:44.000Z</time>
</trkpt>
<trkpt lat="30.8961460" lon="34.8008230">
<ele>526.599976</ele>
<time>2014-01-03T08:39:23.000Z</time>
</trkpt>
<trkpt lat="30.8961460" lon="34.8008230">
<ele>526.599976</ele>
<time>2014-01-03T08:40:03.000Z</time>
</trkpt>
<trkpt lat="30.8961460" lon="34.8008230">
<ele>526.599976</ele>
<time>2014-01-03T08:40:44.000Z</time>
</trkpt>
<trkpt lat="30.8961460" lon="34.8008230">
<ele>526.599976</ele>
<time>2014-01-03T08:41:23.000Z</time>
</trkpt>
<trkpt lat="30.8961460" lon="34.8008230">
<ele>526.599976</ele>
<time>2014-01-03T08:42:04.000Z</time>
</trkpt>
<trkpt lat="30.8961460" lon="34.8008230">
<ele>526.599976</ele>
<time>2014-01-03T08:42:44.000Z</time>
</trkpt>
<trkpt lat="30.8961460" lon="34.8008230">
<ele>526.599976</ele>
<time>2014-01-03T08:43:23.000Z</time>
</trkpt>
<trkpt lat="30.8961460" lon="34.8008230">
<ele>526.599976</ele>
<time>2014-01-03T08:44:04.000Z</time>
</trkpt>
<trkpt lat="30.8961440" lon="34.8008130">
<ele>526.599976</ele>
<time>2014-01-03T08:44:43.000Z</time>
</trkpt>
<trkpt lat="30.8961230" lon="34.8008090">
<ele>526.700012</ele>
<time>2014-01-03T08:45:23.000Z</time>
</trkpt>
<trkpt lat="30.8961260" lon="34.8008250">
<ele>526.700012</ele>
<time>2014-01-03T08:46:04.000Z</time>
</trkpt>
<trkpt lat="30.8961360" lon="34.8008460">
<ele>526.700012</ele>
<time>2014-01-03T08:46:43.000Z</time>
</trkpt>
<trkpt lat="30.8961370" lon="34.8008470">
<ele>526.700012</ele>
<time>2014-01-03T08:47:24.000Z</time>
</trkpt>
<trkpt lat="30.8961430" lon="34.8008580">
<ele>526.700012</ele>
<time>2014-01-03T08:48:04.000Z</time>
</trkpt>
<trkpt lat="30.8962130" lon="34.8009480">
<ele>526.500000</ele>
<time>2014-01-03T08:48:11.000Z</time>
</trkpt>
<trkpt lat="30.8961350" lon="34.8010250">
<ele>527.000000</ele>
<time>2014-01-03T08:48:16.000Z</time>
</trkpt>
<trkpt lat="30.8960410" lon="34.8010760">
<ele>527.400024</ele>
<time>2014-01-03T08:48:19.000Z</time>
</trkpt>
<trkpt lat="30.8959470" lon="34.8011450">
<ele>527.799988</ele>
<time>2014-01-03T08:48:23.000Z</time>
</trkpt>
<trkpt lat="30.8958440" lon="34.8011680">
<ele>528.100037</ele>
<time>2014-01-03T08:48:27.000Z</time>
</trkpt>
<trkpt lat="30.8957210" lon="34.8011770">
<ele>528.400024</ele>
<time>2014-01-03T08:48:31.000Z</time>
</trkpt>
<trkpt lat="30.8956250" lon="34.8011710">
<ele>528.700012</ele>
<time>2014-01-03T08:48:34.000Z</time>
</trkpt>
<trkpt lat="30.8955290" lon="34.8011610">
<ele>529.099976</ele>
<time>2014-01-03T08:48:36.000Z</time>
</trkpt>
<trkpt lat="30.8954380" lon="34.8011680">
<ele>529.299988</ele>
<time>2014-01-03T08:48:39.000Z</time>
</trkpt>
<trkpt lat="30.8953270" lon="34.8011550">
<ele>529.700012</ele>
<time>2014-01-03T08:48:43.000Z</time>
</trkpt>
<trkpt lat="30.8952170" lon="34.8011040">
<ele>530.299988</ele>
<time>2014-01-03T08:48:47.000Z</time>
</trkpt>
<trkpt lat="30.8951320" lon="34.8010660">
<ele>530.899963</ele>
<time>2014-01-03T08:48:50.000Z</time>
</trkpt>
<trkpt lat="30.8950450" lon="34.8010230">
<ele>531.500000</ele>
<time>2014-01-03T08:48:54.000Z</time>
</trkpt>
<trkpt lat="30.8949560" lon="34.8009720">
<ele>532.200012</ele>
<time>2014-01-03T08:48:57.000Z</time>
</trkpt>
<trkpt lat="30.8948690" lon="34.8009350">
<ele>532.799988</ele>
<time>2014-01-03T08:48:59.000Z</time>
</trkpt>
<trkpt lat="30.8947710" lon="34.8008870">
<ele>533.599976</ele>
<time>2014-01-03T08:49:03.000Z</time>
</trkpt>
<trkpt lat="30.8946600" lon="34.8008440">
<ele>534.500000</ele>
<time>2014-01-03T08:49:08.000Z</time>
</trkpt>
<trkpt lat="30.8945600" lon="34.8008630">
<ele>534.799988</ele>
<time>2014-01-03T08:49:10.000Z</time>
</trkpt>
<trkpt lat="30.8944770" lon="34.8009270">
<ele>534.500000</ele>
<time>2014-01-03T08:49:13.000Z</time>
</trkpt>
<trkpt lat="30.8944020" lon="34.8009980">
<ele>534.299988</ele>
<time>2014-01-03T08:49:17.000Z</time>
</trkpt>
<trkpt lat="30.8943090" lon="34.8010680">
<ele>534.200012</ele>
<time>2014-01-03T08:49:21.000Z</time>
</trkpt>
<trkpt lat="30.8942190" lon="34.8010740">
<ele>534.700012</ele>
<time>2014-01-03T08:49:24.000Z</time>
</trkpt>
<trkpt lat="30.8941190" lon="34.8010530">
<ele>535.299988</ele>
<time>2014-01-03T08:49:26.000Z</time>
</trkpt>
<trkpt lat="30.8940150" lon="34.8010240">
<ele>536.000000</ele>
<time>2014-01-03T08:49:30.000Z</time>
</trkpt>
<trkpt lat="30.8939220" lon="34.8009920">
<ele>536.500000</ele>
<time>2014-01-03T08:49:37.000Z</time>
</trkpt>
<trkpt lat="30.8938270" lon="34.8009940">
<ele>537.000000</ele>
<time>2014-01-03T08:49:44.000Z</time>
</trkpt>
<trkpt lat="30.8937260" lon="34.8010190">
<ele>537.200012</ele>
<time>2014-01-03T08:49:49.000Z</time>
</trkpt>
<trkpt lat="30.8936350" lon="34.8010560">
<ele>536.899963</ele>
<time>2014-01-03T08:49:56.000Z</time>
</trkpt>
<trkpt lat="30.8935520" lon="34.8011160">
<ele>536.700012</ele>
<time>2014-01-03T08:50:02.000Z</time>
</trkpt>
<trkpt lat="30.8934590" lon="34.8011420">
<ele>536.599976</ele>
<time>2014-01-03T08:50:08.000Z</time>
</trkpt>
<trkpt lat="30.8934160" lon="34.8012400">
<ele>536.599976</ele>
<time>2014-01-03T08:50:16.000Z</time>
</trkpt>
<trkpt lat="30.8934310" lon="34.8013510">
<ele>536.700012</ele>
<time>2014-01-03T08:50:23.000Z</time>
</trkpt>
<trkpt lat="30.8934960" lon="34.8014470">
<ele>537.000000</ele>
<time>2014-01-03T08:50:31.000Z</time>
</trkpt>
<trkpt lat="30.8935800" lon="34.8015100">
<ele>537.200012</ele>
<time>2014-01-03T08:50:38.000Z</time>
</trkpt>
<trkpt lat="30.8936340" lon="34.8016070">
<ele>537.500000</ele>
<time>2014-01-03T08:50:46.000Z</time>
</trkpt>
<trkpt lat="30.8935480" lon="34.8016700">
<ele>537.400024</ele>
<time>2014-01-03T08:50:54.000Z</time>
</trkpt>
<trkpt lat="30.8934610" lon="34.8017050">
<ele>537.200012</ele>
<time>2014-01-03T08:51:01.000Z</time>
</trkpt>
<trkpt lat="30.8933580" lon="34.8016790">
<ele>536.799988</ele>
<time>2014-01-03T08:51:09.000Z</time>
</trkpt>
<trkpt lat="30.8932840" lon="34.8016190">
<ele>536.599976</ele>
<time>2014-01-03T08:51:14.000Z</time>
</trkpt>
<trkpt lat="30.8931920" lon="34.8015870">
<ele>536.299988</ele>
<time>2014-01-03T08:51:21.000Z</time>
</trkpt>
<trkpt lat="30.8931480" lon="34.8016790">
<ele>536.200012</ele>
<time>2014-01-03T08:51:29.000Z</time>
</trkpt>
<trkpt lat="30.8931980" lon="34.8017690">
<ele>536.299988</ele>
<time>2014-01-03T08:51:36.000Z</time>
</trkpt>
<trkpt lat="30.8932550" lon="34.8018560">
<ele>536.599976</ele>
<time>2014-01-03T08:51:45.000Z</time>
</trkpt>
<trkpt lat="30.8933360" lon="34.8018820">
<ele>536.899963</ele>
<time>2014-01-03T08:51:55.000Z</time>
</trkpt>
<trkpt lat="30.8933510" lon="34.8019060">
<ele>537.000000</ele>
<time>2014-01-03T08:52:35.000Z</time>
</trkpt>
<trkpt lat="30.8933190" lon="34.8018830">
<ele>536.799988</ele>
<time>2014-01-03T08:53:16.000Z</time>
</trkpt>
<trkpt lat="30.8932390" lon="34.8018290">
<ele>536.500000</ele>
<time>2014-01-03T08:53:21.000Z</time>
</trkpt>
<trkpt lat="30.8931700" lon="34.8017560">
<ele>536.299988</ele>
<time>2014-01-03T08:53:28.000Z</time>
</trkpt>
<trkpt lat="30.8931340" lon="34.8016480">
<ele>536.200012</ele>
<time>2014-01-03T08:53:33.000Z</time>
</trkpt>
<trkpt lat="30.8931310" lon="34.8015240">
<ele>536.200012</ele>
<time>2014-01-03T08:53:40.000Z</time>
</trkpt>
<trkpt lat="30.8930920" lon="34.8014130">
<ele>536.099976</ele>
<time>2014-01-03T08:53:44.000Z</time>
</trkpt>
<trkpt lat="30.8930120" lon="34.8013430">
<ele>536.000000</ele>
<time>2014-01-03T08:53:52.000Z</time>
</trkpt>
<trkpt lat="30.8929250" lon="34.8013160">
<ele>535.900024</ele>
<time>2014-01-03T08:53:59.000Z</time>
</trkpt>
<trkpt lat="30.8928240" lon="34.8013750">
<ele>534.900024</ele>
<time>2014-01-03T08:54:06.000Z</time>
</trkpt>
<trkpt lat="30.8927070" lon="34.8014090">
<ele>533.700012</ele>
<time>2014-01-03T08:54:10.000Z</time>
</trkpt>
<trkpt lat="30.8926010" lon="34.8014190">
<ele>532.700012</ele>
<time>2014-01-03T08:54:13.000Z</time>
</trkpt>
<trkpt lat="30.8924830" lon="34.8014120">
<ele>531.500000</ele>
<time>2014-01-03T08:54:15.000Z</time>
</trkpt>
<trkpt lat="30.8923600" lon="34.8014000">
<ele>530.400024</ele>
<time>2014-01-03T08:54:18.000Z</time>
</trkpt>
<trkpt lat="30.8922340" lon="34.8014010">
<ele>529.099976</ele>
<time>2014-01-03T08:54:22.000Z</time>
</trkpt>
<trkpt lat="30.8921080" lon="34.8014060">
<ele>527.899963</ele>
<time>2014-01-03T08:54:25.000Z</time>
</trkpt>
<trkpt lat="30.8919790" lon="34.8014190">
<ele>526.400024</ele>
<time>2014-01-03T08:54:27.000Z</time>
</trkpt>
<trkpt lat="30.8918370" lon="34.8014150">
<ele>524.700012</ele>
<time>2014-01-03T08:54:30.000Z</time>
</trkpt>
<trkpt lat="30.8917470" lon="34.8014260">
<ele>523.599976</ele>
<time>2014-01-03T08:54:33.000Z</time>
</trkpt>
<trkpt lat="30.8916510" lon="34.8014360">
<ele>522.500000</ele>
<time>2014-01-03T08:54:34.000Z</time>
</trkpt>
<trkpt lat="30.8915160" lon="34.8014320">
<ele>521.000000</ele>
<time>2014-01-03T08:54:37.000Z</time>
</trkpt>
<trkpt lat="30.8913890" lon="34.8014260">
<ele>519.500000</ele>
<time>2014-01-03T08:54:41.000Z</time>
</trkpt>
<trkpt lat="30.8912950" lon="34.8014250">
<ele>518.399963</ele>
<time>2014-01-03T08:54:42.000Z</time>
</trkpt>
<trkpt lat="30.8911650" lon="34.8014530">
<ele>517.299988</ele>
<time>2014-01-03T08:54:45.000Z</time>
</trkpt>
<trkpt lat="30.8910410" lon="34.8014480">
<ele>516.400024</ele>
<time>2014-01-03T08:54:49.000Z</time>
</trkpt>
<trkpt lat="30.8909150" lon="34.8014250">
<ele>515.299988</ele>
<time>2014-01-03T08:54:52.000Z</time>
</trkpt>
<trkpt lat="30.8907980" lon="34.8014220">
<ele>514.500000</ele>
<time>2014-01-03T08:54:54.000Z</time>
</trkpt>
<trkpt lat="30.8906720" lon="34.8014320">
<ele>513.600037</ele>
<time>2014-01-03T08:54:57.000Z</time>
</trkpt>
<trkpt lat="30.8905430" lon="34.8014300">
<ele>512.599976</ele>
<time>2014-01-03T08:55:01.000Z</time>
</trkpt>
<trkpt lat="30.8904500" lon="34.8013980">
<ele>511.800018</ele>
<time>2014-01-03T08:55:03.000Z</time>
</trkpt>
<trkpt lat="30.8903270" lon="34.8013400">
<ele>510.500000</ele>
<time>2014-01-03T08:55:05.000Z</time>
</trkpt>
<trkpt lat="30.8902040" lon="34.8012930">
<ele>509.299988</ele>
<time>2014-01-03T08:55:08.000Z</time>
</trkpt>
<trkpt lat="30.8900770" lon="34.8013050">
<ele>508.299988</ele>
<time>2014-01-03T08:55:12.000Z</time>
</trkpt>
<trkpt lat="30.8899560" lon="34.8013450">
<ele>507.300018</ele>
<time>2014-01-03T08:55:15.000Z</time>
</trkpt>
<trkpt lat="30.8898500" lon="34.8013820">
<ele>506.500000</ele>
<time>2014-01-03T08:55:17.000Z</time>
</trkpt>
<trkpt lat="30.8897360" lon="34.8013970">
<ele>505.500000</ele>
<time>2014-01-03T08:55:20.000Z</time>
</trkpt>
<trkpt lat="30.8896330" lon="34.8014130">
<ele>504.600006</ele>
<time>2014-01-03T08:55:24.000Z</time>
</trkpt>
<trkpt lat="30.8895390" lon="34.8014280">
<ele>503.899994</ele>
<time>2014-01-03T08:55:27.000Z</time>
</trkpt>
<trkpt lat="30.8894470" lon="34.8014300">
<ele>503.199982</ele>
<time>2014-01-03T08:55:30.000Z</time>
</trkpt>
<trkpt lat="30.8893490" lon="34.8014280">
<ele>502.500000</ele>
<time>2014-01-03T08:55:32.000Z</time>
</trkpt>
<trkpt lat="30.8892580" lon="34.8014440">
<ele>501.899994</ele>
<time>2014-01-03T08:55:35.000Z</time>
</trkpt>
<trkpt lat="30.8891630" lon="34.8014630">
<ele>501.199982</ele>
<time>2014-01-03T08:55:39.000Z</time>
</trkpt>
<trkpt lat="30.8890530" lon="34.8014760">
<ele>500.500031</ele>
<time>2014-01-03T08:55:42.000Z</time>
</trkpt>
<trkpt lat="30.8889480" lon="34.8015030">
<ele>499.699982</ele>
<time>2014-01-03T08:55:44.000Z</time>
</trkpt>
<trkpt lat="30.8888490" lon="34.8015380">
<ele>499.100006</ele>
<time>2014-01-03T08:55:47.000Z</time>
</trkpt>
<trkpt lat="30.8887420" lon="34.8015730">
<ele>498.299988</ele>
<time>2014-01-03T08:55:51.000Z</time>
</trkpt>
<trkpt lat="30.8886290" lon="34.8015860">
<ele>497.599976</ele>
<time>2014-01-03T08:55:54.000Z</time>
</trkpt>
<trkpt lat="30.8885170" lon="34.8015840">
<ele>496.799988</ele>
<time>2014-01-03T08:55:57.000Z</time>
</trkpt>
<trkpt lat="30.8883980" lon="34.8015700">
<ele>495.899994</ele>
<time>2014-01-03T08:55:59.000Z</time>
</trkpt>
<trkpt lat="30.8882910" lon="34.8014930">
<ele>495.199982</ele>
<time>2014-01-03T08:56:02.000Z</time>
</trkpt>
<trkpt lat="30.8882310" lon="34.8014140">
<ele>494.800018</ele>
<time>2014-01-03T08:56:05.000Z</time>
</trkpt>
<trkpt lat="30.8881290" lon="34.8013550">
<ele>494.200012</ele>
<time>2014-01-03T08:56:07.000Z</time>
</trkpt>
<trkpt lat="30.8880400" lon="34.8014140">
<ele>493.600006</ele>
<time>2014-01-03T08:56:10.000Z</time>
</trkpt>
<trkpt lat="30.8879940" lon="34.8015230">
<ele>493.200012</ele>
<time>2014-01-03T08:56:14.000Z</time>
</trkpt>
<trkpt lat="30.8879350" lon="34.8016400">
<ele>492.700012</ele>
<time>2014-01-03T08:56:18.000Z</time>
</trkpt>
<trkpt lat="30.8878860" lon="34.8017390">
<ele>492.299988</ele>
<time>2014-01-03T08:56:22.000Z</time>
</trkpt>
<trkpt lat="30.8878190" lon="34.8018160">
<ele>492.000000</ele>
<time>2014-01-03T08:56:28.000Z</time>
</trkpt>
<trkpt lat="30.8877530" lon="34.8018400">
<ele>491.699982</ele>
<time>2014-01-03T08:56:37.000Z</time>
</trkpt>
<trkpt lat="30.8877440" lon="34.8018460">
<ele>491.699982</ele>
<time>2014-01-03T08:57:18.000Z</time>
</trkpt>
<trkpt lat="30.8877440" lon="34.8018460">
<ele>491.699982</ele>
<time>2014-01-03T08:57:58.000Z</time>
</trkpt>
<trkpt lat="30.8877280" lon="34.8018540">
<ele>491.599976</ele>
<time>2014-01-03T08:58:37.000Z</time>
</trkpt>
<trkpt lat="30.8877280" lon="34.8018540">
<ele>491.599976</ele>
<time>2014-01-03T08:59:18.000Z</time>
</trkpt>
<trkpt lat="30.8877280" lon="34.8018540">
<ele>491.599976</ele>
<time>2014-01-03T08:59:58.000Z</time>
</trkpt>
<trkpt lat="30.8877170" lon="34.8019080">
<ele>491.500000</ele>
<time>2014-01-03T09:00:29.000Z</time>
</trkpt>
<trkpt lat="30.8877200" lon="34.8020230">
<ele>491.399994</ele>
<time>2014-01-03T09:00:33.000Z</time>
</trkpt>
<trkpt lat="30.8877230" lon="34.8021490">
<ele>491.299988</ele>
<time>2014-01-03T09:00:36.000Z</time>
</trkpt>
<trkpt lat="30.8877320" lon="34.8022720">
<ele>491.399994</ele>
<time>2014-01-03T09:00:40.000Z</time>
</trkpt>
<trkpt lat="30.8877480" lon="34.8023960">
<ele>491.500000</ele>
<time>2014-01-03T09:00:43.000Z</time>
</trkpt>
<trkpt lat="30.8877510" lon="34.8025090">
<ele>491.500000</ele>
<time>2014-01-03T09:00:44.000Z</time>
</trkpt>
<trkpt lat="30.8877540" lon="34.8026330">
<ele>491.500000</ele>
<time>2014-01-03T09:00:47.000Z</time>
</trkpt>
<trkpt lat="30.8877660" lon="34.8027520">
<ele>491.599976</ele>
<time>2014-01-03T09:00:48.000Z</time>
</trkpt>
<trkpt lat="30.8877660" lon="34.8028800">
<ele>491.599976</ele>
<time>2014-01-03T09:00:51.000Z</time>
</trkpt>
<trkpt lat="30.8877820" lon="34.8030170">
<ele>491.800018</ele>
<time>2014-01-03T09:00:52.000Z</time>
</trkpt>
<trkpt lat="30.8878040" lon="34.8031620">
<ele>492.000000</ele>
<time>2014-01-03T09:00:55.000Z</time>
</trkpt>
<trkpt lat="30.8878180" lon="34.8033050">
<ele>492.199982</ele>
<time>2014-01-03T09:00:56.000Z</time>
</trkpt>
<trkpt lat="30.8878380" lon="34.8034630">
<ele>492.400024</ele>
<time>2014-01-03T09:00:59.000Z</time>
</trkpt>
<trkpt lat="30.8878650" lon="34.8036230">
<ele>492.700012</ele>
<time>2014-01-03T09:01:00.000Z</time>
</trkpt>
<trkpt lat="30.8878910" lon="34.8037720">
<ele>492.899994</ele>
<time>2014-01-03T09:01:03.000Z</time>
</trkpt>
<trkpt lat="30.8879260" lon="34.8039050">
<ele>493.000000</ele>
<time>2014-01-03T09:01:04.000Z</time>
</trkpt>
<trkpt lat="30.8879400" lon="34.8040370">
<ele>493.099976</ele>
<time>2014-01-03T09:01:07.000Z</time>
</trkpt>
<trkpt lat="30.8879500" lon="34.8041620">
<ele>493.200012</ele>
<time>2014-01-03T09:01:08.000Z</time>
</trkpt>
<trkpt lat="30.8879610" lon="34.8042950">
<ele>493.200012</ele>
<time>2014-01-03T09:01:11.000Z</time>
</trkpt>
<trkpt lat="30.8879520" lon="34.8044320">
<ele>493.200012</ele>
<time>2014-01-03T09:01:12.000Z</time>
</trkpt>
<trkpt lat="30.8879420" lon="34.8045680">
<ele>493.099976</ele>
<time>2014-01-03T09:01:15.000Z</time>
</trkpt>
<trkpt lat="30.8879440" lon="34.8047170">
<ele>493.099976</ele>
<time>2014-01-03T09:01:17.000Z</time>
</trkpt>
<trkpt lat="30.8879650" lon="34.8048590">
<ele>493.300018</ele>
<time>2014-01-03T09:01:19.000Z</time>
</trkpt>
<trkpt lat="30.8879850" lon="34.8050190">
<ele>493.399994</ele>
<time>2014-01-03T09:01:21.000Z</time>
</trkpt>
<trkpt lat="30.8880080" lon="34.8051540">
<ele>493.500000</ele>
<time>2014-01-03T09:01:22.000Z</time>
</trkpt>
<trkpt lat="30.8880190" lon="34.8052850">
<ele>493.600006</ele>
<time>2014-01-03T09:01:25.000Z</time>
</trkpt>
<trkpt lat="30.8880440" lon="34.8054280">
<ele>493.699982</ele>
<time>2014-01-03T09:01:26.000Z</time>
</trkpt>
<trkpt lat="30.8880550" lon="34.8055560">
<ele>493.500000</ele>
<time>2014-01-03T09:01:29.000Z</time>
</trkpt>
<trkpt lat="30.8880650" lon="34.8056910">
<ele>493.200012</ele>
<time>2014-01-03T09:01:30.000Z</time>
</trkpt>
<trkpt lat="30.8880830" lon="34.8058260">
<ele>493.000000</ele>
<time>2014-01-03T09:01:33.000Z</time>
</trkpt>
<trkpt lat="30.8881070" lon="34.8059470">
<ele>492.899994</ele>
<time>2014-01-03T09:01:34.000Z</time>
</trkpt>
<trkpt lat="30.8881140" lon="34.8060810">
<ele>492.600006</ele>
<time>2014-01-03T09:01:37.000Z</time>
</trkpt>
<trkpt lat="30.8881430" lon="34.8062210">
<ele>492.400024</ele>
<time>2014-01-03T09:01:38.000Z</time>
</trkpt>
<trkpt lat="30.8881530" lon="34.8063490">
<ele>492.400024</ele>
<time>2014-01-03T09:01:41.000Z</time>
</trkpt>
<trkpt lat="30.8881420" lon="34.8064880">
<ele>492.299988</ele>
<time>2014-01-03T09:01:44.000Z</time>
</trkpt>
<trkpt lat="30.8881600" lon="34.8066870">
<ele>492.299988</ele>
<time>2014-01-03T09:01:46.000Z</time>
</trkpt>
<trkpt lat="30.8881950" lon="34.8068430">
<ele>492.400024</ele>
<time>2014-01-03T09:01:48.000Z</time>
</trkpt>
<trkpt lat="30.8882110" lon="34.8069850">
<ele>492.500000</ele>
<time>2014-01-03T09:01:50.000Z</time>
</trkpt>
<trkpt lat="30.8882180" lon="34.8070890">
<ele>492.400024</ele>
<time>2014-01-03T09:01:53.000Z</time>
</trkpt>
<trkpt lat="30.8882280" lon="34.8072350">
<ele>492.299988</ele>
<time>2014-01-03T09:01:54.000Z</time>
</trkpt>
<trkpt lat="30.8882540" lon="34.8074130">
<ele>492.199982</ele>
<time>2014-01-03T09:02:00.000Z</time>
</trkpt>
<trkpt lat="30.8882670" lon="34.8075420">
<ele>492.100006</ele>
<time>2014-01-03T09:02:01.000Z</time>
</trkpt>
<trkpt lat="30.8882710" lon="34.8076650">
<ele>492.000000</ele>
<time>2014-01-03T09:02:05.000Z</time>
</trkpt>
<trkpt lat="30.8882940" lon="34.8077910">
<ele>492.000000</ele>
<time>2014-01-03T09:02:08.000Z</time>
</trkpt>
<trkpt lat="30.8883160" lon="34.8079190">
<ele>491.899994</ele>
<time>2014-01-03T09:02:11.000Z</time>
</trkpt>
<trkpt lat="30.8883430" lon="34.8080350">
<ele>492.100006</ele>
<time>2014-01-03T09:02:13.000Z</time>
</trkpt>
<trkpt lat="30.8883680" lon="34.8081640">
<ele>492.299988</ele>
<time>2014-01-03T09:02:17.000Z</time>
</trkpt>
<trkpt lat="30.8883900" lon="34.8082710">
<ele>492.500000</ele>
<time>2014-01-03T09:02:20.000Z</time>
</trkpt>
<trkpt lat="30.8884160" lon="34.8083720">
<ele>492.700012</ele>
<time>2014-01-03T09:02:24.000Z</time>
</trkpt>
<trkpt lat="30.8884400" lon="34.8084920">
<ele>492.899994</ele>
<time>2014-01-03T09:02:28.000Z</time>
</trkpt>
<trkpt lat="30.8884670" lon="34.8086100">
<ele>493.200012</ele>
<time>2014-01-03T09:02:32.000Z</time>
</trkpt>
<trkpt lat="30.8885020" lon="34.8087270">
<ele>493.500000</ele>
<time>2014-01-03T09:02:36.000Z</time>
</trkpt>
<trkpt lat="30.8885220" lon="34.8088470">
<ele>493.900024</ele>
<time>2014-01-03T09:02:40.000Z</time>
</trkpt>
<trkpt lat="30.8885470" lon="34.8089600">
<ele>494.299988</ele>
<time>2014-01-03T09:02:43.000Z</time>
</trkpt>
<trkpt lat="30.8885780" lon="34.8090880">
<ele>494.800018</ele>
<time>2014-01-03T09:02:47.000Z</time>
</trkpt>
<trkpt lat="30.8885940" lon="34.8091960">
<ele>495.100006</ele>
<time>2014-01-03T09:02:51.000Z</time>
</trkpt>
<trkpt lat="30.8886070" lon="34.8093310">
<ele>495.500000</ele>
<time>2014-01-03T09:02:55.000Z</time>
</trkpt>
<trkpt lat="30.8886430" lon="34.8094280">
<ele>496.000000</ele>
<time>2014-01-03T09:02:58.000Z</time>
</trkpt>
<trkpt lat="30.8886830" lon="34.8095260">
<ele>496.500000</ele>
<time>2014-01-03T09:03:00.000Z</time>
</trkpt>
<trkpt lat="30.8887110" lon="34.8096340">
<ele>496.900024</ele>
<time>2014-01-03T09:03:03.000Z</time>
</trkpt>
<trkpt lat="30.8887420" lon="34.8097340">
<ele>497.299988</ele>
<time>2014-01-03T09:03:07.000Z</time>
</trkpt>
<trkpt lat="30.8887730" lon="34.8098450">
<ele>497.800018</ele>
<time>2014-01-03T09:03:10.000Z</time>
</trkpt>
<trkpt lat="30.8887970" lon="34.8099800">
<ele>498.199982</ele>
<time>2014-01-03T09:03:13.000Z</time>
</trkpt>
<trkpt lat="30.8888150" lon="34.8101290">
<ele>498.700012</ele>
<time>2014-01-03T09:03:15.000Z</time>
</trkpt>
<trkpt lat="30.8888390" lon="34.8102710">
<ele>499.200012</ele>
<time>2014-01-03T09:03:18.000Z</time>
</trkpt>
<trkpt lat="30.8888870" lon="34.8104000">
<ele>499.800018</ele>
<time>2014-01-03T09:03:22.000Z</time>
</trkpt>
<trkpt lat="30.8889340" lon="34.8105260">
<ele>499.600006</ele>
<time>2014-01-03T09:03:25.000Z</time>
</trkpt>
<trkpt lat="30.8889760" lon="34.8106530">
<ele>499.200012</ele>
<time>2014-01-03T09:03:27.000Z</time>
</trkpt>
<trkpt lat="30.8890270" lon="34.8107760">
<ele>498.899994</ele>
<time>2014-01-03T09:03:30.000Z</time>
</trkpt>
<trkpt lat="30.8890840" lon="34.8108880">
<ele>498.700012</ele>
<time>2014-01-03T09:03:34.000Z</time>
</trkpt>
<trkpt lat="30.8891470" lon="34.8109850">
<ele>498.700012</ele>
<time>2014-01-03T09:03:37.000Z</time>
</trkpt>
<trkpt lat="30.8892170" lon="34.8110740">
<ele>498.600006</ele>
<time>2014-01-03T09:03:40.000Z</time>
</trkpt>
<trkpt lat="30.8892580" lon="34.8111770">
<ele>498.400024</ele>
<time>2014-01-03T09:03:42.000Z</time>
</trkpt>
<trkpt lat="30.8892920" lon="34.8112840">
<ele>498.299988</ele>
<time>2014-01-03T09:03:45.000Z</time>
</trkpt>
<trkpt lat="30.8893260" lon="34.8114180">
<ele>498.899994</ele>
<time>2014-01-03T09:03:49.000Z</time>
</trkpt>
<trkpt lat="30.8893670" lon="34.8115650">
<ele>499.500000</ele>
<time>2014-01-03T09:03:52.000Z</time>
</trkpt>
<trkpt lat="30.8894090" lon="34.8117060">
<ele>500.000000</ele>
<time>2014-01-03T09:03:54.000Z</time>
</trkpt>
<trkpt lat="30.8894540" lon="34.8118460">
<ele>500.700012</ele>
<time>2014-01-03T09:03:57.000Z</time>
</trkpt>
<trkpt lat="30.8894920" lon="34.8119770">
<ele>501.199982</ele>
<time>2014-01-03T09:04:01.000Z</time>
</trkpt>
<trkpt lat="30.8895300" lon="34.8120900">
<ele>501.699982</ele>
<time>2014-01-03T09:04:04.000Z</time>
</trkpt>
<trkpt lat="30.8895690" lon="34.8121990">
<ele>501.899994</ele>
<time>2014-01-03T09:04:07.000Z</time>
</trkpt>
<trkpt lat="30.8896040" lon="34.8123040">
<ele>502.200012</ele>
<time>2014-01-03T09:04:09.000Z</time>
</trkpt>
<trkpt lat="30.8896420" lon="34.8124100">
<ele>502.399994</ele>
<time>2014-01-03T09:04:12.000Z</time>
</trkpt>
<trkpt lat="30.8896760" lon="34.8125180">
<ele>502.599976</ele>
<time>2014-01-03T09:04:16.000Z</time>
</trkpt>
<trkpt lat="30.8897090" lon="34.8126400">
<ele>502.800018</ele>
<time>2014-01-03T09:04:19.000Z</time>
</trkpt>
<trkpt lat="30.8896920" lon="34.8128120">
<ele>502.599976</ele>
<time>2014-01-03T09:04:21.000Z</time>
</trkpt>
<trkpt lat="30.8897040" lon="34.8129250">
<ele>502.599976</ele>
<time>2014-01-03T09:04:24.000Z</time>
</trkpt>
<trkpt lat="30.8897210" lon="34.8130540">
<ele>502.599976</ele>
<time>2014-01-03T09:04:27.000Z</time>
</trkpt>
<trkpt lat="30.8897360" lon="34.8131580">
<ele>502.699982</ele>
<time>2014-01-03T09:04:30.000Z</time>
</trkpt>
<trkpt lat="30.8897580" lon="34.8132670">
<ele>502.800018</ele>
<time>2014-01-03T09:04:32.000Z</time>
</trkpt>
<trkpt lat="30.8897800" lon="34.8134000">
<ele>502.800018</ele>
<time>2014-01-03T09:04:35.000Z</time>
</trkpt>
<trkpt lat="30.8898060" lon="34.8135470">
<ele>502.899994</ele>
<time>2014-01-03T09:04:39.000Z</time>
</trkpt>
<trkpt lat="30.8898310" lon="34.8136720">
<ele>502.899994</ele>
<time>2014-01-03T09:04:40.000Z</time>
</trkpt>
<trkpt lat="30.8898640" lon="34.8137920">
<ele>502.800018</ele>
<time>2014-01-03T09:04:43.000Z</time>
</trkpt>
<trkpt lat="30.8898980" lon="34.8139480">
<ele>502.100006</ele>
<time>2014-01-03T09:04:46.000Z</time>
</trkpt>
<trkpt lat="30.8899140" lon="34.8140570">
<ele>501.600006</ele>
<time>2014-01-03T09:04:47.000Z</time>
</trkpt>
<trkpt lat="30.8899410" lon="34.8141650">
<ele>501.199982</ele>
<time>2014-01-03T09:04:50.000Z</time>
</trkpt>
<trkpt lat="30.8899620" lon="34.8142680">
<ele>500.800018</ele>
<time>2014-01-03T09:04:51.000Z</time>
</trkpt>
<trkpt lat="30.8899960" lon="34.8144070">
<ele>500.299988</ele>
<time>2014-01-03T09:04:55.000Z</time>
</trkpt>
<trkpt lat="30.8900190" lon="34.8145480">
<ele>499.800018</ele>
<time>2014-01-03T09:04:58.000Z</time>
</trkpt>
<trkpt lat="30.8900520" lon="34.8146840">
<ele>499.699982</ele>
<time>2014-01-03T09:05:01.000Z</time>
</trkpt>
<trkpt lat="30.8900800" lon="34.8148200">
<ele>499.699982</ele>
<time>2014-01-03T09:05:03.000Z</time>
</trkpt>
<trkpt lat="30.8901110" lon="34.8149620">
<ele>499.699982</ele>
<time>2014-01-03T09:05:06.000Z</time>
</trkpt>
<trkpt lat="30.8901500" lon="34.8151010">
<ele>499.800018</ele>
<time>2014-01-03T09:05:10.000Z</time>
</trkpt>
<trkpt lat="30.8901790" lon="34.8152300">
<ele>499.800018</ele>
<time>2014-01-03T09:05:13.000Z</time>
</trkpt>
<trkpt lat="30.8902140" lon="34.8153310">
<ele>499.900024</ele>
<time>2014-01-03T09:05:15.000Z</time>
</trkpt>
<trkpt lat="30.8902670" lon="34.8154360">
<ele>500.100006</ele>
<time>2014-01-03T09:05:18.000Z</time>
</trkpt>
<trkpt lat="30.8903070" lon="34.8155610">
<ele>500.399994</ele>
<time>2014-01-03T09:05:22.000Z</time>
</trkpt>
<trkpt lat="30.8903490" lon="34.8156830">
<ele>500.600006</ele>
<time>2014-01-03T09:05:25.000Z</time>
</trkpt>
<trkpt lat="30.8903880" lon="34.8157830">
<ele>500.800018</ele>
<time>2014-01-03T09:05:28.000Z</time>
</trkpt>
<trkpt lat="30.8904120" lon="34.8158920">
<ele>501.000000</ele>
<time>2014-01-03T09:05:32.000Z</time>
</trkpt>
<trkpt lat="30.8904360" lon="34.8159990">
<ele>501.100006</ele>
<time>2014-01-03T09:05:34.000Z</time>
</trkpt>
<trkpt lat="30.8904650" lon="34.8161130">
<ele>501.300018</ele>
<time>2014-01-03T09:05:37.000Z</time>
</trkpt>
<trkpt lat="30.8905090" lon="34.8162280">
<ele>501.600006</ele>
<time>2014-01-03T09:05:41.000Z</time>
</trkpt>
<trkpt lat="30.8905620" lon="34.8163330">
<ele>501.899994</ele>
<time>2014-01-03T09:05:44.000Z</time>
</trkpt>
<trkpt lat="30.8906130" lon="34.8164240">
<ele>502.200012</ele>
<time>2014-01-03T09:05:47.000Z</time>
</trkpt>
<trkpt lat="30.8906680" lon="34.8165130">
<ele>502.500000</ele>
<time>2014-01-03T09:05:49.000Z</time>
</trkpt>
<trkpt lat="30.8907220" lon="34.8166420">
<ele>502.800018</ele>
<time>2014-01-03T09:05:52.000Z</time>
</trkpt>
<trkpt lat="30.8907430" lon="34.8167580">
<ele>502.899994</ele>
<time>2014-01-03T09:05:56.000Z</time>
</trkpt>
<trkpt lat="30.8907290" lon="34.8168960">
<ele>502.800018</ele>
<time>2014-01-03T09:06:00.000Z</time>
</trkpt>
<trkpt lat="30.8907460" lon="34.8170210">
<ele>502.800018</ele>
<time>2014-01-03T09:06:03.000Z</time>
</trkpt>
<trkpt lat="30.8907790" lon="34.8171450">
<ele>502.899994</ele>
<time>2014-01-03T09:06:05.000Z</time>
</trkpt>
<trkpt lat="30.8908380" lon="34.8172670">
<ele>503.100006</ele>
<time>2014-01-03T09:06:08.000Z</time>
</trkpt>
<trkpt lat="30.8908990" lon="34.8173880">
<ele>503.299988</ele>
<time>2014-01-03T09:06:12.000Z</time>
</trkpt>
<trkpt lat="30.8909630" lon="34.8175020">
<ele>503.499969</ele>
<time>2014-01-03T09:06:15.000Z</time>
</trkpt>
<trkpt lat="30.8910280" lon="34.8176260">
<ele>503.600006</ele>
<time>2014-01-03T09:06:18.000Z</time>
</trkpt>
<trkpt lat="30.8911020" lon="34.8177490">
<ele>503.799988</ele>
<time>2014-01-03T09:06:20.000Z</time>
</trkpt>
<trkpt lat="30.8911520" lon="34.8178380">
<ele>503.899994</ele>
<time>2014-01-03T09:06:23.000Z</time>
</trkpt>
<trkpt lat="30.8912280" lon="34.8179430">
<ele>504.000000</ele>
<time>2014-01-03T09:06:27.000Z</time>
</trkpt>
<trkpt lat="30.8913010" lon="34.8180500">
<ele>504.300018</ele>
<time>2014-01-03T09:06:31.000Z</time>
</trkpt>
<trkpt lat="30.8913690" lon="34.8181490">
<ele>504.600006</ele>
<time>2014-01-03T09:06:35.000Z</time>
</trkpt>
<trkpt lat="30.8914340" lon="34.8182410">
<ele>504.799988</ele>
<time>2014-01-03T09:06:36.000Z</time>
</trkpt>
<trkpt lat="30.8915080" lon="34.8183200">
<ele>505.100006</ele>
<time>2014-01-03T09:06:39.000Z</time>
</trkpt>
<trkpt lat="30.8915700" lon="34.8184030">
<ele>505.399994</ele>
<time>2014-01-03T09:06:41.000Z</time>
</trkpt>
<trkpt lat="30.8916410" lon="34.8184730">
<ele>505.599976</ele>
<time>2014-01-03T09:06:43.000Z</time>
</trkpt>
<trkpt lat="30.8917200" lon="34.8185850">
<ele>505.899994</ele>
<time>2014-01-03T09:06:46.000Z</time>
</trkpt>
<trkpt lat="30.8917990" lon="34.8187020">
<ele>506.299988</ele>
<time>2014-01-03T09:06:49.000Z</time>
</trkpt>
<trkpt lat="30.8918890" lon="34.8188010">
<ele>506.400024</ele>
<time>2014-01-03T09:06:51.000Z</time>
</trkpt>
<trkpt lat="30.8919550" lon="34.8188810">
<ele>506.500000</ele>
<time>2014-01-03T09:06:54.000Z</time>
</trkpt>
<trkpt lat="30.8920340" lon="34.8189600">
<ele>506.600006</ele>
<time>2014-01-03T09:06:55.000Z</time>
</trkpt>
<trkpt lat="30.8921090" lon="34.8190490">
<ele>506.799988</ele>
<time>2014-01-03T09:06:58.000Z</time>
</trkpt>
<trkpt lat="30.8921960" lon="34.8191560">
<ele>507.099976</ele>
<time>2014-01-03T09:07:01.000Z</time>
</trkpt>
<trkpt lat="30.8922730" lon="34.8192490">
<ele>507.300018</ele>
<time>2014-01-03T09:07:03.000Z</time>
</trkpt>
<trkpt lat="30.8923470" lon="34.8193640">
<ele>507.500000</ele>
<time>2014-01-03T09:07:06.000Z</time>
</trkpt>
<trkpt lat="30.8924120" lon="34.8194710">
<ele>507.699982</ele>
<time>2014-01-03T09:07:10.000Z</time>
</trkpt>
<trkpt lat="30.8924810" lon="34.8195710">
<ele>507.900024</ele>
<time>2014-01-03T09:07:13.000Z</time>
</trkpt>
<trkpt lat="30.8925690" lon="34.8196740">
<ele>508.100006</ele>
<time>2014-01-03T09:07:16.000Z</time>
</trkpt>
<trkpt lat="30.8926360" lon="34.8197650">
<ele>508.100006</ele>
<time>2014-01-03T09:07:17.000Z</time>
</trkpt>
<trkpt lat="30.8927050" lon="34.8198450">
<ele>508.100006</ele>
<time>2014-01-03T09:07:20.000Z</time>
</trkpt>
<trkpt lat="30.8927870" lon="34.8199340">
<ele>508.200012</ele>
<time>2014-01-03T09:07:21.000Z</time>
</trkpt>
<trkpt lat="30.8928440" lon="34.8200330">
<ele>508.100006</ele>
<time>2014-01-03T09:07:24.000Z</time>
</trkpt>
<trkpt lat="30.8929340" lon="34.8201490">
<ele>508.100006</ele>
<time>2014-01-03T09:07:26.000Z</time>
</trkpt>
<trkpt lat="30.8930060" lon="34.8202510">
<ele>508.100006</ele>
<time>2014-01-03T09:07:29.000Z</time>
</trkpt>
<trkpt lat="30.8930810" lon="34.8203470">
<ele>508.100006</ele>
<time>2014-01-03T09:07:33.000Z</time>
</trkpt>
<trkpt lat="30.8931620" lon="34.8204470">
<ele>508.100006</ele>
<time>2014-01-03T09:07:36.000Z</time>
</trkpt>
<trkpt lat="30.8932050" lon="34.8205690">
<ele>508.100006</ele>
<time>2014-01-03T09:07:39.000Z</time>
</trkpt>
<trkpt lat="30.8932300" lon="34.8206990">
<ele>508.000000</ele>
<time>2014-01-03T09:07:41.000Z</time>
</trkpt>
<trkpt lat="30.8932700" lon="34.8208400">
<ele>508.000000</ele>
<time>2014-01-03T09:07:47.000Z</time>
</trkpt>
<trkpt lat="30.8933010" lon="34.8209460">
<ele>507.900024</ele>
<time>2014-01-03T09:07:51.000Z</time>
</trkpt>
<trkpt lat="30.8932360" lon="34.8210300">
<ele>507.500000</ele>
<time>2014-01-03T09:08:00.000Z</time>
</trkpt>
<trkpt lat="30.8931720" lon="34.8209410">
<ele>507.399994</ele>
<time>2014-01-03T09:08:10.000Z</time>
</trkpt>
<trkpt lat="30.8931800" lon="34.8208580">
<ele>507.600006</ele>
<time>2014-01-03T09:08:19.000Z</time>
</trkpt>
<trkpt lat="30.8932010" lon="34.8207970">
<ele>507.799988</ele>
<time>2014-01-03T09:08:34.000Z</time>
</trkpt>
<trkpt lat="30.8932200" lon="34.8206870">
<ele>508.000000</ele>
<time>2014-01-03T09:08:37.000Z</time>
</trkpt>
<trkpt lat="30.8932140" lon="34.8205570">
<ele>508.200012</ele>
<time>2014-01-03T09:08:39.000Z</time>
</trkpt>
<trkpt lat="30.8931800" lon="34.8204170">
<ele>508.299988</ele>
<time>2014-01-03T09:08:42.000Z</time>
</trkpt>
<trkpt lat="30.8931130" lon="34.8202990">
<ele>508.500000</ele>
<time>2014-01-03T09:08:46.000Z</time>
</trkpt>
<trkpt lat="30.8930200" lon="34.8201940">
<ele>508.399994</ele>
<time>2014-01-03T09:08:49.000Z</time>
</trkpt>
<trkpt lat="30.8929380" lon="34.8201150">
<ele>508.200012</ele>
<time>2014-01-03T09:08:50.000Z</time>
</trkpt>
<trkpt lat="30.8928760" lon="34.8200270">
<ele>508.200012</ele>
<time>2014-01-03T09:08:53.000Z</time>
</trkpt>
<trkpt lat="30.8928160" lon="34.8199200">
<ele>508.399994</ele>
<time>2014-01-03T09:08:54.000Z</time>
</trkpt>
<trkpt lat="30.8927390" lon="34.8198290">
<ele>508.299988</ele>
<time>2014-01-03T09:08:57.000Z</time>
</trkpt>
<trkpt lat="30.8926550" lon="34.8197630">
<ele>508.200012</ele>
<time>2014-01-03T09:08:58.000Z</time>
</trkpt>
<trkpt lat="30.8925850" lon="34.8196840">
<ele>508.100006</ele>
<time>2014-01-03T09:09:01.000Z</time>
</trkpt>
<trkpt lat="30.8925070" lon="34.8195870">
<ele>508.000000</ele>
<time>2014-01-03T09:09:04.000Z</time>
</trkpt>
<trkpt lat="30.8924260" lon="34.8194840">
<ele>507.799988</ele>
<time>2014-01-03T09:09:08.000Z</time>
</trkpt>
<trkpt lat="30.8923600" lon="34.8194020">
<ele>507.500000</ele>
<time>2014-01-03T09:09:10.000Z</time>
</trkpt>
<trkpt lat="30.8922900" lon="34.8193180">
<ele>507.300018</ele>
<time>2014-01-03T09:09:14.000Z</time>
</trkpt>
<trkpt lat="30.8921810" lon="34.8193310">
<ele>506.799988</ele>
<time>2014-01-03T09:09:21.000Z</time>
</trkpt>
<trkpt lat="30.8920790" lon="34.8193550">
<ele>506.299988</ele>
<time>2014-01-03T09:09:27.000Z</time>
</trkpt>
<trkpt lat="30.8919990" lon="34.8194360">
<ele>505.800018</ele>
<time>2014-01-03T09:09:32.000Z</time>
</trkpt>
<trkpt lat="30.8919180" lon="34.8195160">
<ele>505.299988</ele>
<time>2014-01-03T09:09:36.000Z</time>
</trkpt>
<trkpt lat="30.8918410" lon="34.8196040">
<ele>504.799988</ele>
<time>2014-01-03T09:09:40.000Z</time>
</trkpt>
<trkpt lat="30.8917570" lon="34.8196700">
<ele>504.300018</ele>
<time>2014-01-03T09:09:44.000Z</time>
</trkpt>
<trkpt lat="30.8916620" lon="34.8197350">
<ele>503.700012</ele>
<time>2014-01-03T09:09:47.000Z</time>
</trkpt>
<trkpt lat="30.8915680" lon="34.8197920">
<ele>503.199982</ele>
<time>2014-01-03T09:09:50.000Z</time>
</trkpt>
<trkpt lat="30.8914670" lon="34.8198350">
<ele>502.699982</ele>
<time>2014-01-03T09:09:52.000Z</time>
</trkpt>
<trkpt lat="30.8913770" lon="34.8198610">
<ele>502.200012</ele>
<time>2014-01-03T09:09:55.000Z</time>
</trkpt>
<trkpt lat="30.8912370" lon="34.8198640">
<ele>501.600006</ele>
<time>2014-01-03T09:09:58.000Z</time>
</trkpt>
<trkpt lat="30.8911160" lon="34.8198760">
<ele>501.100006</ele>
<time>2014-01-03T09:10:00.000Z</time>
</trkpt>
<trkpt lat="30.8910050" lon="34.8199140">
<ele>500.700012</ele>
<time>2014-01-03T09:10:03.000Z</time>
</trkpt>
<trkpt lat="30.8908990" lon="34.8199390">
<ele>500.200012</ele>
<time>2014-01-03T09:10:07.000Z</time>
</trkpt>
<trkpt lat="30.8907910" lon="34.8199700">
<ele>499.800018</ele>
<time>2014-01-03T09:10:10.000Z</time>
</trkpt>
<trkpt lat="30.8906860" lon="34.8200200">
<ele>499.500000</ele>
<time>2014-01-03T09:10:12.000Z</time>
</trkpt>
<trkpt lat="30.8905840" lon="34.8200780">
<ele>499.200012</ele>
<time>2014-01-03T09:10:15.000Z</time>
</trkpt>
<trkpt lat="30.8904890" lon="34.8201510">
<ele>498.899994</ele>
<time>2014-01-03T09:10:19.000Z</time>
</trkpt>
<trkpt lat="30.8904040" lon="34.8202450">
<ele>498.799988</ele>
<time>2014-01-03T09:10:22.000Z</time>
</trkpt>
<trkpt lat="30.8903250" lon="34.8203470">
<ele>498.700012</ele>
<time>2014-01-03T09:10:25.000Z</time>
</trkpt>
<trkpt lat="30.8902620" lon="34.8204410">
<ele>498.600006</ele>
<time>2014-01-03T09:10:27.000Z</time>
</trkpt>
<trkpt lat="30.8902080" lon="34.8205340">
<ele>498.299988</ele>
<time>2014-01-03T09:10:30.000Z</time>
</trkpt>
<trkpt lat="30.8901630" lon="34.8206370">
<ele>498.000000</ele>
<time>2014-01-03T09:10:34.000Z</time>
</trkpt>
<trkpt lat="30.8901100" lon="34.8207430">
<ele>497.700012</ele>
<time>2014-01-03T09:10:37.000Z</time>
</trkpt>
<trkpt lat="30.8900570" lon="34.8208410">
<ele>497.399994</ele>
<time>2014-01-03T09:10:39.000Z</time>
</trkpt>
<trkpt lat="30.8900010" lon="34.8209500">
<ele>497.000000</ele>
<time>2014-01-03T09:10:44.000Z</time>
</trkpt>
<trkpt lat="30.8899480" lon="34.8210520">
<ele>496.699982</ele>
<time>2014-01-03T09:10:48.000Z</time>
</trkpt>
<trkpt lat="30.8898990" lon="34.8211420">
<ele>496.300018</ele>
<time>2014-01-03T09:10:50.000Z</time>
</trkpt>
<trkpt lat="30.8898430" lon="34.8212440">
<ele>495.899994</ele>
<time>2014-01-03T09:10:53.000Z</time>
</trkpt>
<trkpt lat="30.8897800" lon="34.8213590">
<ele>496.000000</ele>
<time>2014-01-03T09:10:57.000Z</time>
</trkpt>
<trkpt lat="30.8897220" lon="34.8214720">
<ele>496.099976</ele>
<time>2014-01-03T09:11:00.000Z</time>
</trkpt>
<trkpt lat="30.8896650" lon="34.8215790">
<ele>496.300018</ele>
<time>2014-01-03T09:11:02.000Z</time>
</trkpt>
<trkpt lat="30.8896060" lon="34.8216810">
<ele>496.600006</ele>
<time>2014-01-03T09:11:05.000Z</time>
</trkpt>
<trkpt lat="30.8895470" lon="34.8217860">
<ele>497.100006</ele>
<time>2014-01-03T09:11:09.000Z</time>
</trkpt>
<trkpt lat="30.8894870" lon="34.8218960">
<ele>497.599976</ele>
<time>2014-01-03T09:11:12.000Z</time>
</trkpt>
<trkpt lat="30.8894270" lon="34.8220040">
<ele>498.100006</ele>
<time>2014-01-03T09:11:15.000Z</time>
</trkpt>
<trkpt lat="30.8893720" lon="34.8221110">
<ele>498.600006</ele>
<time>2014-01-03T09:11:17.000Z</time>
</trkpt>
<trkpt lat="30.8893150" lon="34.8222110">
<ele>498.799988</ele>
<time>2014-01-03T09:11:20.000Z</time>
</trkpt>
<trkpt lat="30.8892580" lon="34.8223150">
<ele>499.000031</ele>
<time>2014-01-03T09:11:24.000Z</time>
</trkpt>
<trkpt lat="30.8892000" lon="34.8224220">
<ele>499.000031</ele>
<time>2014-01-03T09:11:27.000Z</time>
</trkpt>
<trkpt lat="30.8891420" lon="34.8225370">
<ele>499.000031</ele>
<time>2014-01-03T09:11:29.000Z</time>
</trkpt>
<trkpt lat="30.8890850" lon="34.8226550">
<ele>498.799988</ele>
<time>2014-01-03T09:11:32.000Z</time>
</trkpt>
<trkpt lat="30.8890330" lon="34.8227700">
<ele>498.500000</ele>
<time>2014-01-03T09:11:36.000Z</time>
</trkpt>
<trkpt lat="30.8889840" lon="34.8228800">
<ele>498.199982</ele>
<time>2014-01-03T09:11:39.000Z</time>
</trkpt>
<trkpt lat="30.8889430" lon="34.8229900">
<ele>498.100006</ele>
<time>2014-01-03T09:11:42.000Z</time>
</trkpt>
<trkpt lat="30.8889090" lon="34.8231010">
<ele>498.199982</ele>
<time>2014-01-03T09:11:44.000Z</time>
</trkpt>
<trkpt lat="30.8888830" lon="34.8232120">
<ele>498.400024</ele>
<time>2014-01-03T09:11:47.000Z</time>
</trkpt>
<trkpt lat="30.8888570" lon="34.8233230">
<ele>498.700012</ele>
<time>2014-01-03T09:11:51.000Z</time>
</trkpt>
<trkpt lat="30.8888260" lon="34.8234250">
<ele>498.899994</ele>
<time>2014-01-03T09:11:54.000Z</time>
</trkpt>
<trkpt lat="30.8887590" lon="34.8235380">
<ele>499.200012</ele>
<time>2014-01-03T09:11:58.000Z</time>
</trkpt>
<trkpt lat="30.8886760" lon="34.8236360">
<ele>499.500000</ele>
<time>2014-01-03T09:12:02.000Z</time>
</trkpt>
<trkpt lat="30.8885970" lon="34.8237380">
<ele>499.800018</ele>
<time>2014-01-03T09:12:05.000Z</time>
</trkpt>
<trkpt lat="30.8885470" lon="34.8238280">
<ele>499.800018</ele>
<time>2014-01-03T09:12:07.000Z</time>
</trkpt>
<trkpt lat="30.8885270" lon="34.8239350">
<ele>499.900024</ele>
<time>2014-01-03T09:12:09.000Z</time>
</trkpt>
<trkpt lat="30.8885300" lon="34.8240850">
<ele>500.100006</ele>
<time>2014-01-03T09:12:11.000Z</time>
</trkpt>
<trkpt lat="30.8885370" lon="34.8242050">
<ele>500.200012</ele>
<time>2014-01-03T09:12:14.000Z</time>
</trkpt>
<trkpt lat="30.8884820" lon="34.8243290">
<ele>500.299988</ele>
<time>2014-01-03T09:12:18.000Z</time>
</trkpt>
<trkpt lat="30.8884180" lon="34.8244110">
<ele>500.500031</ele>
<time>2014-01-03T09:12:22.000Z</time>
</trkpt>
<trkpt lat="30.8883400" lon="34.8245010">
<ele>500.800018</ele>
<time>2014-01-03T09:12:26.000Z</time>
</trkpt>
<trkpt lat="30.8882620" lon="34.8245710">
<ele>501.100006</ele>
<time>2014-01-03T09:12:30.000Z</time>
</trkpt>
<trkpt lat="30.8881780" lon="34.8246220">
<ele>501.400024</ele>
<time>2014-01-03T09:12:36.000Z</time>
</trkpt>
<trkpt lat="30.8880890" lon="34.8246860">
<ele>501.799988</ele>
<time>2014-01-03T09:12:42.000Z</time>
</trkpt>
<trkpt lat="30.8880000" lon="34.8247670">
<ele>502.200012</ele>
<time>2014-01-03T09:12:48.000Z</time>
</trkpt>
<trkpt lat="30.8879030" lon="34.8248160">
<ele>502.599976</ele>
<time>2014-01-03T09:12:52.000Z</time>
</trkpt>
<trkpt lat="30.8878310" lon="34.8248890">
<ele>503.000000</ele>
<time>2014-01-03T09:12:54.000Z</time>
</trkpt>
<trkpt lat="30.8877600" lon="34.8249660">
<ele>503.399994</ele>
<time>2014-01-03T09:12:57.000Z</time>
</trkpt>
<trkpt lat="30.8876880" lon="34.8250510">
<ele>503.799988</ele>
<time>2014-01-03T09:13:01.000Z</time>
</trkpt>
<trkpt lat="30.8876240" lon="34.8251360">
<ele>504.300018</ele>
<time>2014-01-03T09:13:04.000Z</time>
</trkpt>
<trkpt lat="30.8875440" lon="34.8252380">
<ele>504.799988</ele>
<time>2014-01-03T09:13:08.000Z</time>
</trkpt>
<trkpt lat="30.8874810" lon="34.8253150">
<ele>505.299988</ele>
<time>2014-01-03T09:13:11.000Z</time>
</trkpt>
<trkpt lat="30.8874150" lon="34.8253890">
<ele>505.700012</ele>
<time>2014-01-03T09:13:13.000Z</time>
</trkpt>
<trkpt lat="30.8873270" lon="34.8254810">
<ele>506.199982</ele>
<time>2014-01-03T09:13:17.000Z</time>
</trkpt>
<trkpt lat="30.8872620" lon="34.8255560">
<ele>506.500000</ele>
<time>2014-01-03T09:13:20.000Z</time>
</trkpt>
<trkpt lat="30.8872070" lon="34.8256470">
<ele>506.799988</ele>
<time>2014-01-03T09:13:24.000Z</time>
</trkpt>
<trkpt lat="30.8871600" lon="34.8257500">
<ele>507.099976</ele>
<time>2014-01-03T09:13:27.000Z</time>
</trkpt>
<trkpt lat="30.8871070" lon="34.8258520">
<ele>507.399994</ele>
<time>2014-01-03T09:13:30.000Z</time>
</trkpt>
<trkpt lat="30.8870420" lon="34.8259280">
<ele>507.900024</ele>
<time>2014-01-03T09:13:32.000Z</time>
</trkpt>
<trkpt lat="30.8869600" lon="34.8259860">
<ele>508.399994</ele>
<time>2014-01-03T09:13:35.000Z</time>
</trkpt>
<trkpt lat="30.8868620" lon="34.8260290">
<ele>509.100006</ele>
<time>2014-01-03T09:13:39.000Z</time>
</trkpt>
<trkpt lat="30.8867460" lon="34.8260660">
<ele>509.799988</ele>
<time>2014-01-03T09:13:42.000Z</time>
</trkpt>
<trkpt lat="30.8866330" lon="34.8261030">
<ele>510.500000</ele>
<time>2014-01-03T09:13:44.000Z</time>
</trkpt>
<trkpt lat="30.8865300" lon="34.8261500">
<ele>511.200012</ele>
<time>2014-01-03T09:13:47.000Z</time>
</trkpt>
<trkpt lat="30.8864380" lon="34.8262150">
<ele>511.800018</ele>
<time>2014-01-03T09:13:51.000Z</time>
</trkpt>
<trkpt lat="30.8863440" lon="34.8262930">
<ele>512.100037</ele>
<time>2014-01-03T09:13:54.000Z</time>
</trkpt>
<trkpt lat="30.8862540" lon="34.8263760">
<ele>512.100037</ele>
<time>2014-01-03T09:13:57.000Z</time>
</trkpt>
<trkpt lat="30.8861720" lon="34.8264640">
<ele>511.899994</ele>
<time>2014-01-03T09:13:59.000Z</time>
</trkpt>
<trkpt lat="30.8860740" lon="34.8265260">
<ele>512.100037</ele>
<time>2014-01-03T09:14:02.000Z</time>
</trkpt>
<trkpt lat="30.8859610" lon="34.8265440">
<ele>512.599976</ele>
<time>2014-01-03T09:14:06.000Z</time>
</trkpt>
<trkpt lat="30.8858530" lon="34.8265480">
<ele>513.200012</ele>
<time>2014-01-03T09:14:09.000Z</time>
</trkpt>
<trkpt lat="30.8857550" lon="34.8265590">
<ele>513.700012</ele>
<time>2014-01-03T09:14:11.000Z</time>
</trkpt>
<trkpt lat="30.8856790" lon="34.8266280">
<ele>513.700012</ele>
<time>2014-01-03T09:14:14.000Z</time>
</trkpt>
<trkpt lat="30.8856510" lon="34.8267440">
<ele>513.000000</ele>
<time>2014-01-03T09:14:17.000Z</time>
</trkpt>
<trkpt lat="30.8856070" lon="34.8268630">
<ele>512.400024</ele>
<time>2014-01-03T09:14:18.000Z</time>
</trkpt>
<trkpt lat="30.8855580" lon="34.8269600">
<ele>512.000000</ele>
<time>2014-01-03T09:14:21.000Z</time>
</trkpt>
<trkpt lat="30.8855040" lon="34.8270920">
<ele>511.399994</ele>
<time>2014-01-03T09:14:24.000Z</time>
</trkpt>
<trkpt lat="30.8854280" lon="34.8271800">
<ele>511.500031</ele>
<time>2014-01-03T09:14:26.000Z</time>
</trkpt>
<trkpt lat="30.8853580" lon="34.8272700">
<ele>511.500031</ele>
<time>2014-01-03T09:14:29.000Z</time>
</trkpt>
<trkpt lat="30.8853010" lon="34.8273560">
<ele>511.299988</ele>
<time>2014-01-03T09:14:33.000Z</time>
</trkpt>
<trkpt lat="30.8852360" lon="34.8274690">
<ele>511.000000</ele>
<time>2014-01-03T09:14:37.000Z</time>
</trkpt>
<trkpt lat="30.8851690" lon="34.8275780">
<ele>510.500000</ele>
<time>2014-01-03T09:14:41.000Z</time>
</trkpt>
<trkpt lat="30.8850880" lon="34.8276770">
<ele>509.899994</ele>
<time>2014-01-03T09:14:45.000Z</time>
</trkpt>
<trkpt lat="30.8850050" lon="34.8277810">
<ele>509.199982</ele>
<time>2014-01-03T09:14:49.000Z</time>
</trkpt>
<trkpt lat="30.8849480" lon="34.8278760">
<ele>508.399994</ele>
<time>2014-01-03T09:14:52.000Z</time>
</trkpt>
<trkpt lat="30.8848900" lon="34.8279630">
<ele>508.000000</ele>
<time>2014-01-03T09:14:55.000Z</time>
</trkpt>
<trkpt lat="30.8848120" lon="34.8280240">
<ele>508.000000</ele>
<time>2014-01-03T09:14:57.000Z</time>
</trkpt>
<trkpt lat="30.8847430" lon="34.8281090">
<ele>508.000000</ele>
<time>2014-01-03T09:15:00.000Z</time>
</trkpt>
<trkpt lat="30.8846910" lon="34.8282140">
<ele>508.000000</ele>
<time>2014-01-03T09:15:04.000Z</time>
</trkpt>
<trkpt lat="30.8846350" lon="34.8283170">
<ele>508.000000</ele>
<time>2014-01-03T09:15:07.000Z</time>
</trkpt>
<trkpt lat="30.8845710" lon="34.8284070">
<ele>508.100006</ele>
<time>2014-01-03T09:15:09.000Z</time>
</trkpt>
<trkpt lat="30.8845010" lon="34.8284890">
<ele>508.599976</ele>
<time>2014-01-03T09:15:12.000Z</time>
</trkpt>
<trkpt lat="30.8844260" lon="34.8285570">
<ele>509.199982</ele>
<time>2014-01-03T09:15:16.000Z</time>
</trkpt>
<trkpt lat="30.8843580" lon="34.8286300">
<ele>509.500000</ele>
<time>2014-01-03T09:15:19.000Z</time>
</trkpt>
<trkpt lat="30.8842730" lon="34.8287230">
<ele>509.899994</ele>
<time>2014-01-03T09:15:23.000Z</time>
</trkpt>
<trkpt lat="30.8842010" lon="34.8288150">
<ele>510.300018</ele>
<time>2014-01-03T09:15:27.000Z</time>
</trkpt>
<trkpt lat="30.8841340" lon="34.8289140">
<ele>510.799988</ele>
<time>2014-01-03T09:15:31.000Z</time>
</trkpt>
<trkpt lat="30.8840580" lon="34.8290150">
<ele>511.299988</ele>
<time>2014-01-03T09:15:35.000Z</time>
</trkpt>
<trkpt lat="30.8839790" lon="34.8291150">
<ele>511.700012</ele>
<time>2014-01-03T09:15:39.000Z</time>
</trkpt>
<trkpt lat="30.8839180" lon="34.8291930">
<ele>512.100037</ele>
<time>2014-01-03T09:15:42.000Z</time>
</trkpt>
<trkpt lat="30.8838510" lon="34.8292700">
<ele>512.500000</ele>
<time>2014-01-03T09:15:45.000Z</time>
</trkpt>
<trkpt lat="30.8837810" lon="34.8293530">
<ele>512.799988</ele>
<time>2014-01-03T09:15:47.000Z</time>
</trkpt>
<trkpt lat="30.8837150" lon="34.8294310">
<ele>513.099976</ele>
<time>2014-01-03T09:15:50.000Z</time>
</trkpt>
<trkpt lat="30.8836460" lon="34.8295140">
<ele>513.099976</ele>
<time>2014-01-03T09:15:54.000Z</time>
</trkpt>
<trkpt lat="30.8835770" lon="34.8295980">
<ele>513.000000</ele>
<time>2014-01-03T09:15:57.000Z</time>
</trkpt>
<trkpt lat="30.8835140" lon="34.8296910">
<ele>513.099976</ele>
<time>2014-01-03T09:15:59.000Z</time>
</trkpt>
<trkpt lat="30.8834600" lon="34.8297890">
<ele>513.200012</ele>
<time>2014-01-03T09:16:02.000Z</time>
</trkpt>
<trkpt lat="30.8833960" lon="34.8298910">
<ele>513.200012</ele>
<time>2014-01-03T09:16:06.000Z</time>
</trkpt>
<trkpt lat="30.8833270" lon="34.8299870">
<ele>513.200012</ele>
<time>2014-01-03T09:16:09.000Z</time>
</trkpt>
<trkpt lat="30.8832520" lon="34.8300750">
<ele>513.200012</ele>
<time>2014-01-03T09:16:12.000Z</time>
</trkpt>
<trkpt lat="30.8831720" lon="34.8301560">
<ele>513.200012</ele>
<time>2014-01-03T09:16:14.000Z</time>
</trkpt>
<trkpt lat="30.8830950" lon="34.8302430">
<ele>513.200012</ele>
<time>2014-01-03T09:16:17.000Z</time>
</trkpt>
<trkpt lat="30.8830190" lon="34.8303320">
<ele>513.099976</ele>
<time>2014-01-03T09:16:21.000Z</time>
</trkpt>
<trkpt lat="30.8829380" lon="34.8304240">
<ele>513.099976</ele>
<time>2014-01-03T09:16:24.000Z</time>
</trkpt>
<trkpt lat="30.8828520" lon="34.8305070">
<ele>513.799988</ele>
<time>2014-01-03T09:16:26.000Z</time>
</trkpt>
<trkpt lat="30.8827450" lon="34.8305670">
<ele>514.599976</ele>
<time>2014-01-03T09:16:29.000Z</time>
</trkpt>
<trkpt lat="30.8825370" lon="34.8306060">
<ele>516.000000</ele>
<time>2014-01-03T09:16:35.000Z</time>
</trkpt>
<trkpt lat="30.8824270" lon="34.8306340">
<ele>516.700012</ele>
<time>2014-01-03T09:16:37.000Z</time>
</trkpt>
<trkpt lat="30.8823390" lon="34.8306940">
<ele>517.200012</ele>
<time>2014-01-03T09:16:40.000Z</time>
</trkpt>
<trkpt lat="30.8822670" lon="34.8307800">
<ele>517.599976</ele>
<time>2014-01-03T09:16:44.000Z</time>
</trkpt>
<trkpt lat="30.8821970" lon="34.8308500">
<ele>517.900024</ele>
<time>2014-01-03T09:16:47.000Z</time>
</trkpt>
<trkpt lat="30.8821670" lon="34.8309630">
<ele>518.000000</ele>
<time>2014-01-03T09:16:52.000Z</time>
</trkpt>
<trkpt lat="30.8821090" lon="34.8311000">
<ele>518.099976</ele>
<time>2014-01-03T09:17:00.000Z</time>
</trkpt>
<trkpt lat="30.8820140" lon="34.8311530">
<ele>518.500000</ele>
<time>2014-01-03T09:17:04.000Z</time>
</trkpt>
<trkpt lat="30.8819190" lon="34.8311320">
<ele>519.099976</ele>
<time>2014-01-03T09:17:08.000Z</time>
</trkpt>
<trkpt lat="30.8818190" lon="34.8311150">
<ele>519.700012</ele>
<time>2014-01-03T09:17:12.000Z</time>
</trkpt>
<trkpt lat="30.8817220" lon="34.8311910">
<ele>520.000000</ele>
<time>2014-01-03T09:17:16.000Z</time>
</trkpt>
<trkpt lat="30.8816530" lon="34.8312940">
<ele>519.899963</ele>
<time>2014-01-03T09:17:20.000Z</time>
</trkpt>
<trkpt lat="30.8815830" lon="34.8313980">
<ele>519.899963</ele>
<time>2014-01-03T09:17:26.000Z</time>
</trkpt>
<trkpt lat="30.8815470" lon="34.8314970">
<ele>519.799988</ele>
<time>2014-01-03T09:17:30.000Z</time>
</trkpt>
<trkpt lat="30.8815190" lon="34.8316050">
<ele>519.599976</ele>
<time>2014-01-03T09:17:34.000Z</time>
</trkpt>
<trkpt lat="30.8814740" lon="34.8317240">
<ele>519.400024</ele>
<time>2014-01-03T09:17:38.000Z</time>
</trkpt>
<trkpt lat="30.8814230" lon="34.8318250">
<ele>519.200012</ele>
<time>2014-01-03T09:17:43.000Z</time>
</trkpt>
<trkpt lat="30.8813290" lon="34.8319260">
<ele>519.299988</ele>
<time>2014-01-03T09:17:47.000Z</time>
</trkpt>
<trkpt lat="30.8812500" lon="34.8319990">
<ele>519.299988</ele>
<time>2014-01-03T09:17:51.000Z</time>
</trkpt>
<trkpt lat="30.8811780" lon="34.8320810">
<ele>519.400024</ele>
<time>2014-01-03T09:17:56.000Z</time>
</trkpt>
<trkpt lat="30.8811150" lon="34.8321810">
<ele>519.899963</ele>
<time>2014-01-03T09:18:00.000Z</time>
</trkpt>
<trkpt lat="30.8810460" lon="34.8322670">
<ele>520.200012</ele>
<time>2014-01-03T09:18:04.000Z</time>
</trkpt>
<trkpt lat="30.8809630" lon="34.8323320">
<ele>520.599976</ele>
<time>2014-01-03T09:18:08.000Z</time>
</trkpt>
<trkpt lat="30.8808710" lon="34.8323800">
<ele>521.000000</ele>
<time>2014-01-03T09:18:12.000Z</time>
</trkpt>
<trkpt lat="30.8807710" lon="34.8324160">
<ele>521.399963</ele>
<time>2014-01-03T09:18:16.000Z</time>
</trkpt>
<trkpt lat="30.8806690" lon="34.8324490">
<ele>521.700012</ele>
<time>2014-01-03T09:18:20.000Z</time>
</trkpt>
<trkpt lat="30.8805710" lon="34.8324690">
<ele>522.000000</ele>
<time>2014-01-03T09:18:24.000Z</time>
</trkpt>
<trkpt lat="30.8804780" lon="34.8325260">
<ele>522.200012</ele>
<time>2014-01-03T09:18:28.000Z</time>
</trkpt>
<trkpt lat="30.8803890" lon="34.8325590">
<ele>522.400024</ele>
<time>2014-01-03T09:18:32.000Z</time>
</trkpt>
<trkpt lat="30.8803210" lon="34.8326390">
<ele>522.400024</ele>
<time>2014-01-03T09:18:36.000Z</time>
</trkpt>
<trkpt lat="30.8802900" lon="34.8327460">
<ele>522.200012</ele>
<time>2014-01-03T09:18:40.000Z</time>
</trkpt>
<trkpt lat="30.8801780" lon="34.8327670">
<ele>522.599976</ele>
<time>2014-01-03T09:18:45.000Z</time>
</trkpt>
<trkpt lat="30.8800190" lon="34.8327850">
<ele>523.299988</ele>
<time>2014-01-03T09:18:52.000Z</time>
</trkpt>
<trkpt lat="30.8799090" lon="34.8328000">
<ele>523.799988</ele>
<time>2014-01-03T09:18:55.000Z</time>
</trkpt>
<trkpt lat="30.8798070" lon="34.8327860">
<ele>524.299988</ele>
<time>2014-01-03T09:18:59.000Z</time>
</trkpt>
<trkpt lat="30.8797140" lon="34.8327640">
<ele>524.799988</ele>
<time>2014-01-03T09:19:03.000Z</time>
</trkpt>
<trkpt lat="30.8796250" lon="34.8327320">
<ele>525.299988</ele>
<time>2014-01-03T09:19:07.000Z</time>
</trkpt>
<trkpt lat="30.8795260" lon="34.8327100">
<ele>525.799988</ele>
<time>2014-01-03T09:19:11.000Z</time>
</trkpt>
<trkpt lat="30.8794250" lon="34.8327050">
<ele>526.500000</ele>
<time>2014-01-03T09:19:15.000Z</time>
</trkpt>
<trkpt lat="30.8793270" lon="34.8327030">
<ele>527.099976</ele>
<time>2014-01-03T09:19:19.000Z</time>
</trkpt>
<trkpt lat="30.8792360" lon="34.8327220">
<ele>527.599976</ele>
<time>2014-01-03T09:19:23.000Z</time>
</trkpt>
<trkpt lat="30.8791430" lon="34.8327550">
<ele>528.000000</ele>
<time>2014-01-03T09:19:27.000Z</time>
</trkpt>
<trkpt lat="30.8790410" lon="34.8327780">
<ele>528.599976</ele>
<time>2014-01-03T09:19:31.000Z</time>
</trkpt>
<trkpt lat="30.8789390" lon="34.8327580">
<ele>529.200012</ele>
<time>2014-01-03T09:19:35.000Z</time>
</trkpt>
<trkpt lat="30.8788370" lon="34.8327340">
<ele>529.900024</ele>
<time>2014-01-03T09:19:39.000Z</time>
</trkpt>
<trkpt lat="30.8787350" lon="34.8327300">
<ele>530.500000</ele>
<time>2014-01-03T09:19:44.000Z</time>
</trkpt>
<trkpt lat="30.8786370" lon="34.8327330">
<ele>531.000000</ele>
<time>2014-01-03T09:19:48.000Z</time>
</trkpt>
<trkpt lat="30.8785470" lon="34.8327210">
<ele>531.400024</ele>
<time>2014-01-03T09:19:52.000Z</time>
</trkpt>
<trkpt lat="30.8784540" lon="34.8327070">
<ele>531.799988</ele>
<time>2014-01-03T09:19:56.000Z</time>
</trkpt>
<trkpt lat="30.8783570" lon="34.8326990">
<ele>532.299988</ele>
<time>2014-01-03T09:20:00.000Z</time>
</trkpt>
<trkpt lat="30.8782670" lon="34.8326830">
<ele>532.700012</ele>
<time>2014-01-03T09:20:04.000Z</time>
</trkpt>
<trkpt lat="30.8781690" lon="34.8326630">
<ele>533.200012</ele>
<time>2014-01-03T09:20:09.000Z</time>
</trkpt>
<trkpt lat="30.8780710" lon="34.8326490">
<ele>533.599976</ele>
<time>2014-01-03T09:20:13.000Z</time>
</trkpt>
<trkpt lat="30.8779700" lon="34.8326280">
<ele>534.100037</ele>
<time>2014-01-03T09:20:19.000Z</time>
</trkpt>
<trkpt lat="30.8778680" lon="34.8325860">
<ele>534.599976</ele>
<time>2014-01-03T09:20:24.000Z</time>
</trkpt>
<trkpt lat="30.8777920" lon="34.8325240">
<ele>534.900024</ele>
<time>2014-01-03T09:20:28.000Z</time>
</trkpt>
<trkpt lat="30.8777130" lon="34.8324520">
<ele>535.200012</ele>
<time>2014-01-03T09:20:32.000Z</time>
</trkpt>
<trkpt lat="30.8776350" lon="34.8323880">
<ele>535.500000</ele>
<time>2014-01-03T09:20:39.000Z</time>
</trkpt>
<trkpt lat="30.8775370" lon="34.8323620">
<ele>535.700012</ele>
<time>2014-01-03T09:20:46.000Z</time>
</trkpt>
<trkpt lat="30.8774440" lon="34.8323660">
<ele>536.000000</ele>
<time>2014-01-03T09:20:52.000Z</time>
</trkpt>
<trkpt lat="30.8773510" lon="34.8323640">
<ele>536.299988</ele>
<time>2014-01-03T09:20:59.000Z</time>
</trkpt>
<trkpt lat="30.8772610" lon="34.8323520">
<ele>536.500000</ele>
<time>2014-01-03T09:21:07.000Z</time>
</trkpt>
<trkpt lat="30.8771720" lon="34.8323200">
<ele>536.599976</ele>
<time>2014-01-03T09:21:14.000Z</time>
</trkpt>
<trkpt lat="30.8770910" lon="34.8322720">
<ele>536.700012</ele>
<time>2014-01-03T09:21:21.000Z</time>
</trkpt>
<trkpt lat="30.8770010" lon="34.8322190">
<ele>536.700012</ele>
<time>2014-01-03T09:21:29.000Z</time>
</trkpt>
<trkpt lat="30.8769100" lon="34.8322050">
<ele>536.899963</ele>
<time>2014-01-03T09:21:37.000Z</time>
</trkpt>
<trkpt lat="30.8768110" lon="34.8322050">
<ele>537.200012</ele>
<time>2014-01-03T09:21:45.000Z</time>
</trkpt>
<trkpt lat="30.8767940" lon="34.8322080">
<ele>537.200012</ele>
<time>2014-01-03T09:22:24.000Z</time>
</trkpt>
<trkpt lat="30.8767940" lon="34.8322080">
<ele>537.200012</ele>
<time>2014-01-03T09:23:05.000Z</time>
</trkpt>
<trkpt lat="30.8767940" lon="34.8322080">
<ele>537.200012</ele>
<time>2014-01-03T09:23:45.000Z</time>
</trkpt>
<trkpt lat="30.8767540" lon="34.8321820">
<ele>537.200012</ele>
<time>2014-01-03T09:24:18.000Z</time>
</trkpt>
<trkpt lat="30.8766620" lon="34.8321530">
<ele>537.299988</ele>
<time>2014-01-03T09:24:23.000Z</time>
</trkpt>
<trkpt lat="30.8765710" lon="34.8321210">
<ele>537.400024</ele>
<time>2014-01-03T09:24:27.000Z</time>
</trkpt>
<trkpt lat="30.8764800" lon="34.8320900">
<ele>537.500000</ele>
<time>2014-01-03T09:24:34.000Z</time>
</trkpt>
<trkpt lat="30.8763900" lon="34.8320550">
<ele>537.599976</ele>
<time>2014-01-03T09:24:39.000Z</time>
</trkpt>
<trkpt lat="30.8762900" lon="34.8320730">
<ele>537.900024</ele>
<time>2014-01-03T09:24:45.000Z</time>
</trkpt>
<trkpt lat="30.8761970" lon="34.8321350">
<ele>538.299988</ele>
<time>2014-01-03T09:24:49.000Z</time>
</trkpt>
<trkpt lat="30.8761060" lon="34.8321790">
<ele>538.600037</ele>
<time>2014-01-03T09:24:51.000Z</time>
</trkpt>
<trkpt lat="30.8760090" lon="34.8321770">
<ele>538.600037</ele>
<time>2014-01-03T09:24:54.000Z</time>
</trkpt>
<trkpt lat="30.8759150" lon="34.8321410">
<ele>538.399963</ele>
<time>2014-01-03T09:24:58.000Z</time>
</trkpt>
<trkpt lat="30.8758160" lon="34.8320880">
<ele>538.000000</ele>
<time>2014-01-03T09:25:03.000Z</time>
</trkpt>
<trkpt lat="30.8757310" lon="34.8320290">
<ele>537.900024</ele>
<time>2014-01-03T09:25:09.000Z</time>
</trkpt>
<trkpt lat="30.8756380" lon="34.8320120">
<ele>537.900024</ele>
<time>2014-01-03T09:25:16.000Z</time>
</trkpt>
<trkpt lat="30.8755880" lon="34.8320150">
<ele>537.900024</ele>
<time>2014-01-03T09:25:37.000Z</time>
</trkpt>
<trkpt lat="30.8754960" lon="34.8320770">
<ele>538.000000</ele>
<time>2014-01-03T09:25:41.000Z</time>
</trkpt>
<trkpt lat="30.8754160" lon="34.8321380">
<ele>538.399963</ele>
<time>2014-01-03T09:25:44.000Z</time>
</trkpt>
<trkpt lat="30.8753100" lon="34.8321520">
<ele>538.500000</ele>
<time>2014-01-03T09:25:48.000Z</time>
</trkpt>
<trkpt lat="30.8752030" lon="34.8321310">
<ele>538.399963</ele>
<time>2014-01-03T09:25:51.000Z</time>
</trkpt>
<trkpt lat="30.8751080" lon="34.8321580">
<ele>538.600037</ele>
<time>2014-01-03T09:25:53.000Z</time>
</trkpt>
<trkpt lat="30.8750200" lon="34.8322140">
<ele>539.099976</ele>
<time>2014-01-03T09:25:56.000Z</time>
</trkpt>
<trkpt lat="30.8749270" lon="34.8321510">
<ele>538.600037</ele>
<time>2014-01-03T09:26:00.000Z</time>
</trkpt>
<trkpt lat="30.8748660" lon="34.8320610">
<ele>537.900024</ele>
<time>2014-01-03T09:26:04.000Z</time>
</trkpt>
<trkpt lat="30.8747740" lon="34.8319840">
<ele>537.500000</ele>
<time>2014-01-03T09:26:07.000Z</time>
</trkpt>
<trkpt lat="30.8746750" lon="34.8319360">
<ele>537.200012</ele>
<time>2014-01-03T09:26:10.000Z</time>
</trkpt>
<trkpt lat="30.8745640" lon="34.8319260">
<ele>537.000000</ele>
<time>2014-01-03T09:26:12.000Z</time>
</trkpt>
<trkpt lat="30.8744450" lon="34.8319060">
<ele>536.899963</ele>
<time>2014-01-03T09:26:15.000Z</time>
</trkpt>
<trkpt lat="30.8743350" lon="34.8318760">
<ele>536.599976</ele>
<time>2014-01-03T09:26:19.000Z</time>
</trkpt>
<trkpt lat="30.8742330" lon="34.8318530">
<ele>536.400024</ele>
<time>2014-01-03T09:26:22.000Z</time>
</trkpt>
<trkpt lat="30.8741160" lon="34.8318570">
<ele>536.299988</ele>
<time>2014-01-03T09:26:24.000Z</time>
</trkpt>
<trkpt lat="30.8740200" lon="34.8318470">
<ele>536.200012</ele>
<time>2014-01-03T09:26:27.000Z</time>
</trkpt>
<trkpt lat="30.8738970" lon="34.8318070">
<ele>535.799988</ele>
<time>2014-01-03T09:26:30.000Z</time>
</trkpt>
<trkpt lat="30.8737780" lon="34.8317760">
<ele>535.399963</ele>
<time>2014-01-03T09:26:33.000Z</time>
</trkpt>
<trkpt lat="30.8736720" lon="34.8317550">
<ele>535.399963</ele>
<time>2014-01-03T09:26:35.000Z</time>
</trkpt>
<trkpt lat="30.8735760" lon="34.8317360">
<ele>535.500000</ele>
<time>2014-01-03T09:26:38.000Z</time>
</trkpt>
<trkpt lat="30.8734620" lon="34.8317540">
<ele>535.900024</ele>
<time>2014-01-03T09:26:46.000Z</time>
</trkpt>
<trkpt lat="30.8733530" lon="34.8316840">
<ele>535.600037</ele>
<time>2014-01-03T09:26:50.000Z</time>
</trkpt>
<trkpt lat="30.8732680" lon="34.8316000">
<ele>535.200012</ele>
<time>2014-01-03T09:26:53.000Z</time>
</trkpt>
<trkpt lat="30.8731680" lon="34.8315490">
<ele>535.099976</ele>
<time>2014-01-03T09:26:56.000Z</time>
</trkpt>
<trkpt lat="30.8730650" lon="34.8315030">
<ele>535.099976</ele>
<time>2014-01-03T09:26:58.000Z</time>
</trkpt>
<trkpt lat="30.8729780" lon="34.8314680">
<ele>535.099976</ele>
<time>2014-01-03T09:27:01.000Z</time>
</trkpt>
<trkpt lat="30.8728650" lon="34.8314180">
<ele>535.200012</ele>
<time>2014-01-03T09:27:05.000Z</time>
</trkpt>
<trkpt lat="30.8727620" lon="34.8313830">
<ele>535.399963</ele>
<time>2014-01-03T09:27:09.000Z</time>
</trkpt>
<trkpt lat="30.8726470" lon="34.8313580">
<ele>535.700012</ele>
<time>2014-01-03T09:27:12.000Z</time>
</trkpt>
<trkpt lat="30.8725290" lon="34.8313520">
<ele>536.200012</ele>
<time>2014-01-03T09:27:14.000Z</time>
</trkpt>
<trkpt lat="30.8724200" lon="34.8313870">
<ele>536.700012</ele>
<time>2014-01-03T09:27:17.000Z</time>
</trkpt>
<trkpt lat="30.8723230" lon="34.8314210">
<ele>537.100037</ele>
<time>2014-01-03T09:27:21.000Z</time>
</trkpt>
<trkpt lat="30.8722290" lon="34.8314100">
<ele>537.500000</ele>
<time>2014-01-03T09:27:24.000Z</time>
</trkpt>
<trkpt lat="30.8721310" lon="34.8313730">
<ele>537.799988</ele>
<time>2014-01-03T09:27:27.000Z</time>
</trkpt>
<trkpt lat="30.8720260" lon="34.8313530">
<ele>537.700012</ele>
<time>2014-01-03T09:27:29.000Z</time>
</trkpt>
<trkpt lat="30.8719320" lon="34.8313500">
<ele>537.299988</ele>
<time>2014-01-03T09:27:32.000Z</time>
</trkpt>
<trkpt lat="30.8718170" lon="34.8313900">
<ele>536.799988</ele>
<time>2014-01-03T09:27:35.000Z</time>
</trkpt>
<trkpt lat="30.8717150" lon="34.8313930">
<ele>536.299988</ele>
<time>2014-01-03T09:27:39.000Z</time>
</trkpt>
<trkpt lat="30.8716310" lon="34.8313000">
<ele>535.900024</ele>
<time>2014-01-03T09:27:41.000Z</time>
</trkpt>
<trkpt lat="30.8715280" lon="34.8312430">
<ele>535.399963</ele>
<time>2014-01-03T09:27:44.000Z</time>
</trkpt>
<trkpt lat="30.8714220" lon="34.8312120">
<ele>534.900024</ele>
<time>2014-01-03T09:27:48.000Z</time>
</trkpt>
<trkpt lat="30.8713140" lon="34.8311840">
<ele>534.299988</ele>
<time>2014-01-03T09:27:51.000Z</time>
</trkpt>
<trkpt lat="30.8711920" lon="34.8312000">
<ele>533.799988</ele>
<time>2014-01-03T09:27:54.000Z</time>
</trkpt>
<trkpt lat="30.8710930" lon="34.8312040">
<ele>533.599976</ele>
<time>2014-01-03T09:27:55.000Z</time>
</trkpt>
<trkpt lat="30.8709910" lon="34.8311910">
<ele>533.299988</ele>
<time>2014-01-03T09:27:58.000Z</time>
</trkpt>
<trkpt lat="30.8708930" lon="34.8311910">
<ele>533.000000</ele>
<time>2014-01-03T09:27:59.000Z</time>
</trkpt>
<trkpt lat="30.8708040" lon="34.8311460">
<ele>532.700012</ele>
<time>2014-01-03T09:28:02.000Z</time>
</trkpt>
<trkpt lat="30.8707090" lon="34.8310720">
<ele>532.099976</ele>
<time>2014-01-03T09:28:03.000Z</time>
</trkpt>
<trkpt lat="30.8706030" lon="34.8310110">
<ele>531.599976</ele>
<time>2014-01-03T09:28:06.000Z</time>
</trkpt>
<trkpt lat="30.8705010" lon="34.8309660">
<ele>531.000000</ele>
<time>2014-01-03T09:28:07.000Z</time>
</trkpt>
<trkpt lat="30.8704050" lon="34.8309100">
<ele>530.400024</ele>
<time>2014-01-03T09:28:10.000Z</time>
</trkpt>
<trkpt lat="30.8703000" lon="34.8308770">
<ele>530.200012</ele>
<time>2014-01-03T09:28:11.000Z</time>
</trkpt>
<trkpt lat="30.8702070" lon="34.8308140">
<ele>529.799988</ele>
<time>2014-01-03T09:28:15.000Z</time>
</trkpt>
<trkpt lat="30.8701080" lon="34.8307690">
<ele>529.399963</ele>
<time>2014-01-03T09:28:19.000Z</time>
</trkpt>
<trkpt lat="30.8700180" lon="34.8307220">
<ele>529.000000</ele>
<time>2014-01-03T09:28:26.000Z</time>
</trkpt>
<trkpt lat="30.8699370" lon="34.8306650">
<ele>528.599976</ele>
<time>2014-01-03T09:28:34.000Z</time>
</trkpt>
<trkpt lat="30.8699040" lon="34.8306660">
<ele>528.500000</ele>
<time>2014-01-03T09:29:13.000Z</time>
</trkpt>
<trkpt lat="30.8699480" lon="34.8306890">
<ele>528.700012</ele>
<time>2014-01-03T09:29:24.000Z</time>
</trkpt>
<trkpt lat="30.8700420" lon="34.8307260">
<ele>529.099976</ele>
<time>2014-01-03T09:29:33.000Z</time>
</trkpt>
<trkpt lat="30.8701370" lon="34.8307630">
<ele>529.399963</ele>
<time>2014-01-03T09:29:43.000Z</time>
</trkpt>
<trkpt lat="30.8701650" lon="34.8307770">
<ele>529.500000</ele>
<time>2014-01-03T09:30:23.000Z</time>
</trkpt>
<trkpt lat="30.8701030" lon="34.8308450">
<ele>529.900024</ele>
<time>2014-01-03T09:30:34.000Z</time>
</trkpt>
<trkpt lat="30.8700020" lon="34.8308450">
<ele>529.799988</ele>
<time>2014-01-03T09:30:41.000Z</time>
</trkpt>
<trkpt lat="30.8698970" lon="34.8308750">
<ele>530.000000</ele>
<time>2014-01-03T09:30:46.000Z</time>
</trkpt>
<trkpt lat="30.8697980" lon="34.8308350">
<ele>529.600037</ele>
<time>2014-01-03T09:30:49.000Z</time>
</trkpt>
<trkpt lat="30.8696960" lon="34.8307900">
<ele>529.200012</ele>
<time>2014-01-03T09:30:53.000Z</time>
</trkpt>
<trkpt lat="30.8695960" lon="34.8307570">
<ele>528.900024</ele>
<time>2014-01-03T09:30:56.000Z</time>
</trkpt>
<trkpt lat="30.8694980" lon="34.8307390">
<ele>529.099976</ele>
<time>2014-01-03T09:30:59.000Z</time>
</trkpt>
<trkpt lat="30.8694050" lon="34.8307220">
<ele>529.399963</ele>
<time>2014-01-03T09:31:01.000Z</time>
</trkpt>
<trkpt lat="30.8693160" lon="34.8307010">
<ele>529.799988</ele>
<time>2014-01-03T09:31:04.000Z</time>
</trkpt>
<trkpt lat="30.8692130" lon="34.8307040">
<ele>530.299988</ele>
<time>2014-01-03T09:31:08.000Z</time>
</trkpt>
<trkpt lat="30.8690980" lon="34.8307210">
<ele>530.899963</ele>
<time>2014-01-03T09:31:11.000Z</time>
</trkpt>
<trkpt lat="30.8689790" lon="34.8307500">
<ele>531.599976</ele>
<time>2014-01-03T09:31:13.000Z</time>
</trkpt>
<trkpt lat="30.8688610" lon="34.8307840">
<ele>532.099976</ele>
<time>2014-01-03T09:31:16.000Z</time>
</trkpt>
<trkpt lat="30.8687310" lon="34.8308050">
<ele>532.700012</ele>
<time>2014-01-03T09:31:20.000Z</time>
</trkpt>
<trkpt lat="30.8686380" lon="34.8308330">
<ele>533.400024</ele>
<time>2014-01-03T09:31:21.000Z</time>
</trkpt>
<trkpt lat="30.8685440" lon="34.8308430">
<ele>534.200012</ele>
<time>2014-01-03T09:31:24.000Z</time>
</trkpt>
<trkpt lat="30.8684030" lon="34.8308450">
<ele>535.399963</ele>
<time>2014-01-03T09:31:27.000Z</time>
</trkpt>
<trkpt lat="30.8683120" lon="34.8308550">
<ele>536.099976</ele>
<time>2014-01-03T09:31:28.000Z</time>
</trkpt>
<trkpt lat="30.8682070" lon="34.8308700">
<ele>536.799988</ele>
<time>2014-01-03T09:31:31.000Z</time>
</trkpt>
<trkpt lat="30.8680990" lon="34.8308900">
<ele>537.599976</ele>
<time>2014-01-03T09:31:34.000Z</time>
</trkpt>
<trkpt lat="30.8680090" lon="34.8309350">
<ele>538.000000</ele>
<time>2014-01-03T09:31:36.000Z</time>
</trkpt>
<trkpt lat="30.8678980" lon="34.8309280">
<ele>538.700012</ele>
<time>2014-01-03T09:31:40.000Z</time>
</trkpt>
<trkpt lat="30.8678040" lon="34.8308890">
<ele>538.799988</ele>
<time>2014-01-03T09:31:44.000Z</time>
</trkpt>
<trkpt lat="30.8677030" lon="34.8308500">
<ele>538.900024</ele>
<time>2014-01-03T09:31:48.000Z</time>
</trkpt>
<trkpt lat="30.8675950" lon="34.8308330">
<ele>538.700012</ele>
<time>2014-01-03T09:31:54.000Z</time>
</trkpt>
<trkpt lat="30.8674860" lon="34.8308340">
<ele>538.500000</ele>
<time>2014-01-03T09:31:58.000Z</time>
</trkpt>
<trkpt lat="30.8673910" lon="34.8308310">
<ele>538.200012</ele>
<time>2014-01-03T09:32:03.000Z</time>
</trkpt>
<trkpt lat="30.8672970" lon="34.8308240">
<ele>538.000000</ele>
<time>2014-01-03T09:32:09.000Z</time>
</trkpt>
<trkpt lat="30.8672050" lon="34.8308090">
<ele>537.799988</ele>
<time>2014-01-03T09:32:14.000Z</time>
</trkpt>
<trkpt lat="30.8671080" lon="34.8307780">
<ele>537.599976</ele>
<time>2014-01-03T09:32:21.000Z</time>
</trkpt>
<trkpt lat="30.8670130" lon="34.8307300">
<ele>537.100037</ele>
<time>2014-01-03T09:32:28.000Z</time>
</trkpt>
<trkpt lat="30.8668990" lon="34.8306920">
<ele>536.299988</ele>
<time>2014-01-03T09:32:33.000Z</time>
</trkpt>
<trkpt lat="30.8667930" lon="34.8306450">
<ele>535.500000</ele>
<time>2014-01-03T09:32:36.000Z</time>
</trkpt>
<trkpt lat="30.8666920" lon="34.8305950">
<ele>534.700012</ele>
<time>2014-01-03T09:32:38.000Z</time>
</trkpt>
<trkpt lat="30.8666070" lon="34.8305440">
<ele>534.000000</ele>
<time>2014-01-03T09:32:42.000Z</time>
</trkpt>
<trkpt lat="30.8665180" lon="34.8304850">
<ele>533.299988</ele>
<time>2014-01-03T09:32:48.000Z</time>
</trkpt>
<trkpt lat="30.8664360" lon="34.8304350">
<ele>532.600037</ele>
<time>2014-01-03T09:32:52.000Z</time>
</trkpt>
<trkpt lat="30.8663280" lon="34.8303660">
<ele>531.500000</ele>
<time>2014-01-03T09:32:56.000Z</time>
</trkpt>
<trkpt lat="30.8662310" lon="34.8303050">
<ele>530.700012</ele>
<time>2014-01-03T09:32:59.000Z</time>
</trkpt>
<trkpt lat="30.8661390" lon="34.8302330">
<ele>530.099976</ele>
<time>2014-01-03T09:33:01.000Z</time>
</trkpt>
<trkpt lat="30.8660370" lon="34.8301300">
<ele>529.500000</ele>
<time>2014-01-03T09:33:05.000Z</time>
</trkpt>
<trkpt lat="30.8659710" lon="34.8300310">
<ele>528.900024</ele>
<time>2014-01-03T09:33:08.000Z</time>
</trkpt>
<trkpt lat="30.8659140" lon="34.8299310">
<ele>528.400024</ele>
<time>2014-01-03T09:33:12.000Z</time>
</trkpt>
<trkpt lat="30.8658670" lon="34.8298230">
<ele>527.899963</ele>
<time>2014-01-03T09:33:15.000Z</time>
</trkpt>
<trkpt lat="30.8658310" lon="34.8297050">
<ele>527.400024</ele>
<time>2014-01-03T09:33:18.000Z</time>
</trkpt>
<trkpt lat="30.8658050" lon="34.8295890">
<ele>526.900024</ele>
<time>2014-01-03T09:33:20.000Z</time>
</trkpt>
<trkpt lat="30.8657780" lon="34.8294690">
<ele>526.400024</ele>
<time>2014-01-03T09:33:23.000Z</time>
</trkpt>
<trkpt lat="30.8657520" lon="34.8293440">
<ele>525.899963</ele>
<time>2014-01-03T09:33:27.000Z</time>
</trkpt>
<trkpt lat="30.8657310" lon="34.8292120">
<ele>525.299988</ele>
<time>2014-01-03T09:33:30.000Z</time>
</trkpt>
<trkpt lat="30.8657050" lon="34.8290670">
<ele>524.700012</ele>
<time>2014-01-03T09:33:32.000Z</time>
</trkpt>
<trkpt lat="30.8656810" lon="34.8289200">
<ele>524.099976</ele>
<time>2014-01-03T09:33:35.000Z</time>
</trkpt>
<trkpt lat="30.8656440" lon="34.8287820">
<ele>523.500000</ele>
<time>2014-01-03T09:33:39.000Z</time>
</trkpt>
<trkpt lat="30.8655910" lon="34.8286550">
<ele>523.000000</ele>
<time>2014-01-03T09:33:42.000Z</time>
</trkpt>
<trkpt lat="30.8655290" lon="34.8285340">
<ele>522.599976</ele>
<time>2014-01-03T09:33:45.000Z</time>
</trkpt>
<trkpt lat="30.8654630" lon="34.8284030">
<ele>522.200012</ele>
<time>2014-01-03T09:33:47.000Z</time>
</trkpt>
<trkpt lat="30.8654090" lon="34.8283130">
<ele>522.000000</ele>
<time>2014-01-03T09:33:50.000Z</time>
</trkpt>
<trkpt lat="30.8653700" lon="34.8282090">
<ele>522.200012</ele>
<time>2014-01-03T09:33:51.000Z</time>
</trkpt>
<trkpt lat="30.8653550" lon="34.8280990">
<ele>522.200012</ele>
<time>2014-01-03T09:33:54.000Z</time>
</trkpt>
<trkpt lat="30.8653330" lon="34.8279460">
<ele>522.200012</ele>
<time>2014-01-03T09:33:57.000Z</time>
</trkpt>
<trkpt lat="30.8653490" lon="34.8278170">
<ele>521.700012</ele>
<time>2014-01-03T09:33:59.000Z</time>
</trkpt>
<trkpt lat="30.8653750" lon="34.8276970">
<ele>521.099976</ele>
<time>2014-01-03T09:34:03.000Z</time>
</trkpt>
<trkpt lat="30.8653750" lon="34.8275850">
<ele>520.599976</ele>
<time>2014-01-03T09:34:06.000Z</time>
</trkpt>
<trkpt lat="30.8653630" lon="34.8274600">
<ele>520.100037</ele>
<time>2014-01-03T09:34:10.000Z</time>
</trkpt>
<trkpt lat="30.8653330" lon="34.8273160">
<ele>519.599976</ele>
<time>2014-01-03T09:34:13.000Z</time>
</trkpt>
<trkpt lat="30.8652780" lon="34.8271820">
<ele>519.400024</ele>
<time>2014-01-03T09:34:16.000Z</time>
</trkpt>
<trkpt lat="30.8651990" lon="34.8270750">
<ele>519.599976</ele>
<time>2014-01-03T09:34:18.000Z</time>
</trkpt>
<trkpt lat="30.8651140" lon="34.8269880">
<ele>520.700012</ele>
<time>2014-01-03T09:34:21.000Z</time>
</trkpt>
<trkpt lat="30.8650190" lon="34.8269110">
<ele>521.799988</ele>
<time>2014-01-03T09:34:25.000Z</time>
</trkpt>
<trkpt lat="30.8649110" lon="34.8268430">
<ele>522.899963</ele>
<time>2014-01-03T09:34:28.000Z</time>
</trkpt>
<trkpt lat="30.8647930" lon="34.8268100">
<ele>523.900024</ele>
<time>2014-01-03T09:34:30.000Z</time>
</trkpt>
<trkpt lat="30.8647090" lon="34.8268570">
<ele>524.200012</ele>
<time>2014-01-03T09:34:33.000Z</time>
</trkpt>
<trkpt lat="30.8646470" lon="34.8269480">
<ele>524.200012</ele>
<time>2014-01-03T09:34:37.000Z</time>
</trkpt>
<trkpt lat="30.8645450" lon="34.8269250">
<ele>524.799988</ele>
<time>2014-01-03T09:34:41.000Z</time>
</trkpt>
<trkpt lat="30.8644810" lon="34.8268380">
<ele>525.299988</ele>
<time>2014-01-03T09:34:47.000Z</time>
</trkpt>
<trkpt lat="30.8644140" lon="34.8267460">
<ele>525.700012</ele>
<time>2014-01-03T09:34:52.000Z</time>
</trkpt>
<trkpt lat="30.8643540" lon="34.8266610">
<ele>526.000000</ele>
<time>2014-01-03T09:34:56.000Z</time>
</trkpt>
<trkpt lat="30.8642810" lon="34.8265690">
<ele>526.200012</ele>
<time>2014-01-03T09:35:03.000Z</time>
</trkpt>
<trkpt lat="30.8642050" lon="34.8265100">
<ele>526.200012</ele>
<time>2014-01-03T09:35:07.000Z</time>
</trkpt>
<trkpt lat="30.8641200" lon="34.8264350">
<ele>526.200012</ele>
<time>2014-01-03T09:35:14.000Z</time>
</trkpt>
<trkpt lat="30.8641100" lon="34.8263270">
<ele>526.200012</ele>
<time>2014-01-03T09:35:18.000Z</time>
</trkpt>
<trkpt lat="30.8641170" lon="34.8262010">
<ele>526.599976</ele>
<time>2014-01-03T09:35:23.000Z</time>
</trkpt>
<trkpt lat="30.8641260" lon="34.8260800">
<ele>527.299988</ele>
<time>2014-01-03T09:35:27.000Z</time>
</trkpt>
<trkpt lat="30.8641300" lon="34.8259600">
<ele>527.899963</ele>
<time>2014-01-03T09:35:34.000Z</time>
</trkpt>
<trkpt lat="30.8641380" lon="34.8258490">
<ele>528.500000</ele>
<time>2014-01-03T09:35:39.000Z</time>
</trkpt>
<trkpt lat="30.8641440" lon="34.8257430">
<ele>529.099976</ele>
<time>2014-01-03T09:35:46.000Z</time>
</trkpt>
<trkpt lat="30.8641500" lon="34.8256250">
<ele>529.799988</ele>
<time>2014-01-03T09:35:53.000Z</time>
</trkpt>
<trkpt lat="30.8641560" lon="34.8255110">
<ele>530.400024</ele>
<time>2014-01-03T09:36:00.000Z</time>
</trkpt>
<trkpt lat="30.8641630" lon="34.8253940">
<ele>531.100037</ele>
<time>2014-01-03T09:36:06.000Z</time>
</trkpt>
<trkpt lat="30.8641530" lon="34.8252770">
<ele>531.599976</ele>
<time>2014-01-03T09:36:13.000Z</time>
</trkpt>
<trkpt lat="30.8641470" lon="34.8251440">
<ele>532.200012</ele>
<time>2014-01-03T09:36:16.000Z</time>
</trkpt>
<trkpt lat="30.8641660" lon="34.8250370">
<ele>532.799988</ele>
<time>2014-01-03T09:36:17.000Z</time>
</trkpt>
<trkpt lat="30.8641740" lon="34.8249300">
<ele>533.400024</ele>
<time>2014-01-03T09:36:21.000Z</time>
</trkpt>
<trkpt lat="30.8641700" lon="34.8248080">
<ele>533.899963</ele>
<time>2014-01-03T09:36:25.000Z</time>
</trkpt>
<trkpt lat="30.8641700" lon="34.8246990">
<ele>534.500000</ele>
<time>2014-01-03T09:36:31.000Z</time>
</trkpt>
<trkpt lat="30.8641680" lon="34.8245760">
<ele>535.000000</ele>
<time>2014-01-03T09:36:37.000Z</time>
</trkpt>
<trkpt lat="30.8641700" lon="34.8244580">
<ele>534.900024</ele>
<time>2014-01-03T09:36:44.000Z</time>
</trkpt>
<trkpt lat="30.8641720" lon="34.8243420">
<ele>534.700012</ele>
<time>2014-01-03T09:36:50.000Z</time>
</trkpt>
<trkpt lat="30.8641820" lon="34.8242320">
<ele>534.700012</ele>
<time>2014-01-03T09:36:55.000Z</time>
</trkpt>
<trkpt lat="30.8641880" lon="34.8241060">
<ele>534.599976</ele>
<time>2014-01-03T09:37:02.000Z</time>
</trkpt>
<trkpt lat="30.8641870" lon="34.8239970">
<ele>534.500000</ele>
<time>2014-01-03T09:37:07.000Z</time>
</trkpt>
<trkpt lat="30.8641800" lon="34.8238900">
<ele>534.299988</ele>
<time>2014-01-03T09:37:11.000Z</time>
</trkpt>
<trkpt lat="30.8641730" lon="34.8237740">
<ele>534.100037</ele>
<time>2014-01-03T09:37:17.000Z</time>
</trkpt>
<trkpt lat="30.8641790" lon="34.8236630">
<ele>534.200012</ele>
<time>2014-01-03T09:37:22.000Z</time>
</trkpt>
<trkpt lat="30.8641800" lon="34.8235380">
<ele>534.299988</ele>
<time>2014-01-03T09:37:26.000Z</time>
</trkpt>
<trkpt lat="30.8641760" lon="34.8234160">
<ele>534.299988</ele>
<time>2014-01-03T09:37:30.000Z</time>
</trkpt>
<trkpt lat="30.8641810" lon="34.8232970">
<ele>534.500000</ele>
<time>2014-01-03T09:37:34.000Z</time>
</trkpt>
<trkpt lat="30.8641870" lon="34.8231850">
<ele>534.599976</ele>
<time>2014-01-03T09:37:38.000Z</time>
</trkpt>
<trkpt lat="30.8641890" lon="34.8230750">
<ele>534.700012</ele>
<time>2014-01-03T09:37:42.000Z</time>
</trkpt>
<trkpt lat="30.8641910" lon="34.8229670">
<ele>534.799988</ele>
<time>2014-01-03T09:37:46.000Z</time>
</trkpt>
<trkpt lat="30.8641980" lon="34.8228510">
<ele>534.500000</ele>
<time>2014-01-03T09:37:50.000Z</time>
</trkpt>
<trkpt lat="30.8642080" lon="34.8227350">
<ele>533.799988</ele>
<time>2014-01-03T09:37:54.000Z</time>
</trkpt>
<trkpt lat="30.8642140" lon="34.8226220">
<ele>533.000000</ele>
<time>2014-01-03T09:37:58.000Z</time>
</trkpt>
<trkpt lat="30.8642200" lon="34.8225080">
<ele>532.299988</ele>
<time>2014-01-03T09:38:02.000Z</time>
</trkpt>
<trkpt lat="30.8642280" lon="34.8223940">
<ele>531.599976</ele>
<time>2014-01-03T09:38:06.000Z</time>
</trkpt>
<trkpt lat="30.8642400" lon="34.8222820">
<ele>531.000000</ele>
<time>2014-01-03T09:38:11.000Z</time>
</trkpt>
<trkpt lat="30.8642560" lon="34.8221610">
<ele>530.500000</ele>
<time>2014-01-03T09:38:15.000Z</time>
</trkpt>
<trkpt lat="30.8642730" lon="34.8220410">
<ele>530.200012</ele>
<time>2014-01-03T09:38:19.000Z</time>
</trkpt>
<trkpt lat="30.8642810" lon="34.8219130">
<ele>529.900024</ele>
<time>2014-01-03T09:38:23.000Z</time>
</trkpt>
<trkpt lat="30.8642760" lon="34.8217960">
<ele>529.500000</ele>
<time>2014-01-03T09:38:27.000Z</time>
</trkpt>
<trkpt lat="30.8642400" lon="34.8216980">
<ele>528.500000</ele>
<time>2014-01-03T09:38:31.000Z</time>
</trkpt>
<trkpt lat="30.8641830" lon="34.8216140">
<ele>527.200012</ele>
<time>2014-01-03T09:38:36.000Z</time>
</trkpt>
<trkpt lat="30.8641310" lon="34.8215130">
<ele>526.000000</ele>
<time>2014-01-03T09:38:42.000Z</time>
</trkpt>
<trkpt lat="30.8640780" lon="34.8213920">
<ele>524.799988</ele>
<time>2014-01-03T09:38:46.000Z</time>
</trkpt>
<trkpt lat="30.8640410" lon="34.8212930">
<ele>524.000000</ele>
<time>2014-01-03T09:38:48.000Z</time>
</trkpt>
<trkpt lat="30.8639950" lon="34.8211610">
<ele>522.599976</ele>
<time>2014-01-03T09:38:51.000Z</time>
</trkpt>
<trkpt lat="30.8639570" lon="34.8210630">
<ele>521.299988</ele>
<time>2014-01-03T09:38:55.000Z</time>
</trkpt>
<trkpt lat="30.8639150" lon="34.8209660">
<ele>519.899963</ele>
<time>2014-01-03T09:39:00.000Z</time>
</trkpt>
<trkpt lat="30.8638600" lon="34.8208770">
<ele>518.099976</ele>
<time>2014-01-03T09:39:07.000Z</time>
</trkpt>
<trkpt lat="30.8638070" lon="34.8207830">
<ele>516.299988</ele>
<time>2014-01-03T09:39:14.000Z</time>
</trkpt>
<trkpt lat="30.8637200" lon="34.8207270">
<ele>514.200012</ele>
<time>2014-01-03T09:39:22.000Z</time>
</trkpt>
<trkpt lat="30.8636640" lon="34.8207110">
<ele>513.299988</ele>
<time>2014-01-03T09:39:32.000Z</time>
</trkpt>
<trkpt lat="30.8636010" lon="34.8206460">
<ele>511.899994</ele>
<time>2014-01-03T09:39:41.000Z</time>
</trkpt>
<trkpt lat="30.8635740" lon="34.8206040">
<ele>511.200012</ele>
<time>2014-01-03T09:40:00.000Z</time>
</trkpt>
<trkpt lat="30.8635930" lon="34.8206380">
<ele>511.700012</ele>
<time>2014-01-03T09:40:39.000Z</time>
</trkpt>
<trkpt lat="30.8635870" lon="34.8206470">
<ele>511.700012</ele>
<time>2014-01-03T09:41:20.000Z</time>
</trkpt>
<trkpt lat="30.8636330" lon="34.8206530">
<ele>512.400024</ele>
<time>2014-01-03T09:41:42.000Z</time>
</trkpt>
<trkpt lat="30.8636370" lon="34.8206760">
<ele>512.700012</ele>
<time>2014-01-03T09:42:23.000Z</time>
</trkpt>
<trkpt lat="30.8635960" lon="34.8206680">
<ele>512.100037</ele>
<time>2014-01-03T09:43:02.000Z</time>
</trkpt>
<trkpt lat="30.8636120" lon="34.8206720">
<ele>512.299988</ele>
<time>2014-01-03T09:43:43.000Z</time>
</trkpt>
<trkpt lat="30.8636170" lon="34.8206810">
<ele>512.500000</ele>
<time>2014-01-03T09:44:23.000Z</time>
</trkpt>
<trkpt lat="30.8636210" lon="34.8206750">
<ele>512.500000</ele>
<time>2014-01-03T09:45:02.000Z</time>
</trkpt>
<trkpt lat="30.8636480" lon="34.8206670">
<ele>512.700012</ele>
<time>2014-01-03T09:45:43.000Z</time>
</trkpt>
<trkpt lat="30.8636360" lon="34.8206810">
<ele>512.700012</ele>
<time>2014-01-03T09:46:22.000Z</time>
</trkpt>
<trkpt lat="30.8636360" lon="34.8206740">
<ele>512.599976</ele>
<time>2014-01-03T09:47:02.000Z</time>
</trkpt>
<trkpt lat="30.8636310" lon="34.8206700">
<ele>512.500000</ele>
<time>2014-01-03T09:47:43.000Z</time>
</trkpt>
<trkpt lat="30.8636320" lon="34.8206880">
<ele>512.700012</ele>
<time>2014-01-03T09:48:22.000Z</time>
</trkpt>
<trkpt lat="30.8636230" lon="34.8206700">
<ele>512.400024</ele>
<time>2014-01-03T09:49:03.000Z</time>
</trkpt>
<trkpt lat="30.8636240" lon="34.8206700">
<ele>512.500000</ele>
<time>2014-01-03T09:49:43.000Z</time>
</trkpt>
<trkpt lat="30.8636550" lon="34.8206870">
<ele>513.000000</ele>
<time>2014-01-03T09:50:22.000Z</time>
</trkpt>
<trkpt lat="30.8636980" lon="34.8207040">
<ele>513.700012</ele>
<time>2014-01-03T09:50:52.000Z</time>
</trkpt>
<trkpt lat="30.8636940" lon="34.8207150">
<ele>513.799988</ele>
<time>2014-01-03T09:51:31.000Z</time>
</trkpt>
<trkpt lat="30.8637100" lon="34.8207520">
<ele>514.299988</ele>
<time>2014-01-03T09:52:12.000Z</time>
</trkpt>
<trkpt lat="30.8637400" lon="34.8206990">
<ele>514.200012</ele>
<time>2014-01-03T09:52:22.000Z</time>
</trkpt>
<trkpt lat="30.8638230" lon="34.8206180">
<ele>515.399963</ele>
<time>2014-01-03T09:52:28.000Z</time>
</trkpt>
<trkpt lat="30.8638760" lon="34.8205340">
<ele>516.000000</ele>
<time>2014-01-03T09:52:30.000Z</time>
</trkpt>
<trkpt lat="30.8639350" lon="34.8204440">
<ele>516.799988</ele>
<time>2014-01-03T09:52:35.000Z</time>
</trkpt>
<trkpt lat="30.8639950" lon="34.8203590">
<ele>517.100037</ele>
<time>2014-01-03T09:52:37.000Z</time>
</trkpt>
<trkpt lat="30.8640510" lon="34.8202770">
<ele>517.000000</ele>
<time>2014-01-03T09:52:40.000Z</time>
</trkpt>
<trkpt lat="30.8641220" lon="34.8201880">
<ele>517.400024</ele>
<time>2014-01-03T09:52:44.000Z</time>
</trkpt>
<trkpt lat="30.8641720" lon="34.8200870">
<ele>517.100037</ele>
<time>2014-01-03T09:52:48.000Z</time>
</trkpt>
<trkpt lat="30.8642280" lon="34.8199790">
<ele>517.100037</ele>
<time>2014-01-03T09:52:52.000Z</time>
</trkpt>
<trkpt lat="30.8642790" lon="34.8198920">
<ele>517.400024</ele>
<time>2014-01-03T09:52:55.000Z</time>
</trkpt>
<trkpt lat="30.8643390" lon="34.8197790">
<ele>517.700012</ele>
<time>2014-01-03T09:52:57.000Z</time>
</trkpt>
<trkpt lat="30.8644070" lon="34.8196600">
<ele>518.500000</ele>
<time>2014-01-03T09:53:00.000Z</time>
</trkpt>
<trkpt lat="30.8644710" lon="34.8195450">
<ele>519.799988</ele>
<time>2014-01-03T09:53:04.000Z</time>
</trkpt>
<trkpt lat="30.8645320" lon="34.8194200">
<ele>522.099976</ele>
<time>2014-01-03T09:53:07.000Z</time>
</trkpt>
<trkpt lat="30.8646140" lon="34.8192560">
<ele>524.299988</ele>
<time>2014-01-03T09:53:11.000Z</time>
</trkpt>
<trkpt lat="30.8646360" lon="34.8191240">
<ele>524.600037</ele>
<time>2014-01-03T09:53:14.000Z</time>
</trkpt>
<trkpt lat="30.8646180" lon="34.8189730">
<ele>524.399963</ele>
<time>2014-01-03T09:53:16.000Z</time>
</trkpt>
<trkpt lat="30.8645820" lon="34.8188570">
<ele>523.900024</ele>
<time>2014-01-03T09:53:19.000Z</time>
</trkpt>
<trkpt lat="30.8645730" lon="34.8187430">
<ele>523.599976</ele>
<time>2014-01-03T09:53:20.000Z</time>
</trkpt>
<trkpt lat="30.8645690" lon="34.8186250">
<ele>523.000000</ele>
<time>2014-01-03T09:53:23.000Z</time>
</trkpt>
<trkpt lat="30.8645590" lon="34.8185160">
<ele>522.200012</ele>
<time>2014-01-03T09:53:24.000Z</time>
</trkpt>
<trkpt lat="30.8645530" lon="34.8183910">
<ele>521.500000</ele>
<time>2014-01-03T09:53:27.000Z</time>
</trkpt>
<trkpt lat="30.8645510" lon="34.8182770">
<ele>521.000000</ele>
<time>2014-01-03T09:53:29.000Z</time>
</trkpt>
<trkpt lat="30.8645520" lon="34.8181620">
<ele>520.599976</ele>
<time>2014-01-03T09:53:31.000Z</time>
</trkpt>
<trkpt lat="30.8645420" lon="34.8180140">
<ele>519.599976</ele>
<time>2014-01-03T09:53:34.000Z</time>
</trkpt>
<trkpt lat="30.8645270" lon="34.8179060">
<ele>518.600037</ele>
<time>2014-01-03T09:53:35.000Z</time>
</trkpt>
<trkpt lat="30.8645160" lon="34.8177520">
<ele>517.200012</ele>
<time>2014-01-03T09:53:38.000Z</time>
</trkpt>
<trkpt lat="30.8645120" lon="34.8176150">
<ele>516.200012</ele>
<time>2014-01-03T09:53:42.000Z</time>
</trkpt>
<trkpt lat="30.8645040" lon="34.8174640">
<ele>515.099976</ele>
<time>2014-01-03T09:53:45.000Z</time>
</trkpt>
<trkpt lat="30.8644940" lon="34.8173250">
<ele>514.000000</ele>
<time>2014-01-03T09:53:47.000Z</time>
</trkpt>
<trkpt lat="30.8645040" lon="34.8171910">
<ele>513.500000</ele>
<time>2014-01-03T09:53:50.000Z</time>
</trkpt>
<trkpt lat="30.8645200" lon="34.8170740">
<ele>513.299988</ele>
<time>2014-01-03T09:53:54.000Z</time>
</trkpt>
<trkpt lat="30.8645300" lon="34.8169570">
<ele>512.900024</ele>
<time>2014-01-03T09:53:57.000Z</time>
</trkpt>
<trkpt lat="30.8645090" lon="34.8168190">
<ele>511.800018</ele>
<time>2014-01-03T09:54:01.000Z</time>
</trkpt>
<trkpt lat="30.8644430" lon="34.8167060">
<ele>509.899994</ele>
<time>2014-01-03T09:54:05.000Z</time>
</trkpt>
<trkpt lat="30.8643840" lon="34.8166120">
<ele>508.399994</ele>
<time>2014-01-03T09:54:09.000Z</time>
</trkpt>
<trkpt lat="30.8643420" lon="34.8165130">
<ele>507.399994</ele>
<time>2014-01-03T09:54:13.000Z</time>
</trkpt>
<trkpt lat="30.8642910" lon="34.8164120">
<ele>506.400024</ele>
<time>2014-01-03T09:54:17.000Z</time>
</trkpt>
<trkpt lat="30.8642380" lon="34.8163160">
<ele>505.500000</ele>
<time>2014-01-03T09:54:21.000Z</time>
</trkpt>
<trkpt lat="30.8641850" lon="34.8162200">
<ele>504.600006</ele>
<time>2014-01-03T09:54:24.000Z</time>
</trkpt>
<trkpt lat="30.8641360" lon="34.8161220">
<ele>503.799988</ele>
<time>2014-01-03T09:54:27.000Z</time>
</trkpt>
<trkpt lat="30.8640780" lon="34.8160050">
<ele>502.899994</ele>
<time>2014-01-03T09:54:31.000Z</time>
</trkpt>
<trkpt lat="30.8640220" lon="34.8158890">
<ele>502.200012</ele>
<time>2014-01-03T09:54:35.000Z</time>
</trkpt>
<trkpt lat="30.8639750" lon="34.8157920">
<ele>501.699982</ele>
<time>2014-01-03T09:54:37.000Z</time>
</trkpt>
<trkpt lat="30.8639100" lon="34.8156550">
<ele>501.300018</ele>
<time>2014-01-03T09:54:40.000Z</time>
</trkpt>
<trkpt lat="30.8638480" lon="34.8155460">
<ele>501.100006</ele>
<time>2014-01-03T09:54:43.000Z</time>
</trkpt>
<trkpt lat="30.8637760" lon="34.8154220">
<ele>501.100006</ele>
<time>2014-01-03T09:54:44.000Z</time>
</trkpt>
<trkpt lat="30.8637110" lon="34.8152930">
<ele>500.700012</ele>
<time>2014-01-03T09:54:47.000Z</time>
</trkpt>
<trkpt lat="30.8636750" lon="34.8151660">
<ele>500.600006</ele>
<time>2014-01-03T09:54:48.000Z</time>
</trkpt>
<trkpt lat="30.8636820" lon="34.8150390">
<ele>500.700012</ele>
<time>2014-01-03T09:54:51.000Z</time>
</trkpt>
<trkpt lat="30.8637130" lon="34.8149250">
<ele>500.800018</ele>
<time>2014-01-03T09:54:52.000Z</time>
</trkpt>
<trkpt lat="30.8637710" lon="34.8147300">
<ele>500.899994</ele>
<time>2014-01-03T09:54:56.000Z</time>
</trkpt>
<trkpt lat="30.8638320" lon="34.8145250">
<ele>500.600006</ele>
<time>2014-01-03T09:54:59.000Z</time>
</trkpt>
<trkpt lat="30.8638890" lon="34.8144030">
<ele>500.399994</ele>
<time>2014-01-03T09:55:00.000Z</time>
</trkpt>
<trkpt lat="30.8639620" lon="34.8142870">
<ele>500.100006</ele>
<time>2014-01-03T09:55:03.000Z</time>
</trkpt>
<trkpt lat="30.8640600" lon="34.8142030">
<ele>499.800018</ele>
<time>2014-01-03T09:55:06.000Z</time>
</trkpt>
<trkpt lat="30.8642220" lon="34.8140800">
<ele>499.399994</ele>
<time>2014-01-03T09:55:07.000Z</time>
</trkpt>
<trkpt lat="30.8643240" lon="34.8139930">
<ele>499.200012</ele>
<time>2014-01-03T09:55:10.000Z</time>
</trkpt>
<trkpt lat="30.8644240" lon="34.8139040">
<ele>499.100006</ele>
<time>2014-01-03T09:55:11.000Z</time>
</trkpt>
<trkpt lat="30.8645210" lon="34.8138060">
<ele>499.000031</ele>
<time>2014-01-03T09:55:14.000Z</time>
</trkpt>
<trkpt lat="30.8646310" lon="34.8137110">
<ele>498.600006</ele>
<time>2014-01-03T09:55:15.000Z</time>
</trkpt>
<trkpt lat="30.8647310" lon="34.8136310">
<ele>497.800018</ele>
<time>2014-01-03T09:55:18.000Z</time>
</trkpt>
<trkpt lat="30.8648600" lon="34.8135090">
<ele>496.799988</ele>
<time>2014-01-03T09:55:22.000Z</time>
</trkpt>
<trkpt lat="30.8649670" lon="34.8133730">
<ele>496.000000</ele>
<time>2014-01-03T09:55:23.000Z</time>
</trkpt>
<trkpt lat="30.8650490" lon="34.8132910">
<ele>495.500000</ele>
<time>2014-01-03T09:55:26.000Z</time>
</trkpt>
<trkpt lat="30.8651270" lon="34.8132110">
<ele>495.100006</ele>
<time>2014-01-03T09:55:27.000Z</time>
</trkpt>
<trkpt lat="30.8652140" lon="34.8131230">
<ele>494.700012</ele>
<time>2014-01-03T09:55:30.000Z</time>
</trkpt>
<trkpt lat="30.8653010" lon="34.8130320">
<ele>494.299988</ele>
<time>2014-01-03T09:55:31.000Z</time>
</trkpt>
<trkpt lat="30.8653860" lon="34.8129420">
<ele>494.100006</ele>
<time>2014-01-03T09:55:34.000Z</time>
</trkpt>
<trkpt lat="30.8654590" lon="34.8128400">
<ele>493.699982</ele>
<time>2014-01-03T09:55:35.000Z</time>
</trkpt>
<trkpt lat="30.8655260" lon="34.8127350">
<ele>493.200012</ele>
<time>2014-01-03T09:55:38.000Z</time>
</trkpt>
<trkpt lat="30.8655580" lon="34.8126240">
<ele>492.899994</ele>
<time>2014-01-03T09:55:39.000Z</time>
</trkpt>
<trkpt lat="30.8655690" lon="34.8125090">
<ele>492.700012</ele>
<time>2014-01-03T09:55:42.000Z</time>
</trkpt>
<trkpt lat="30.8655710" lon="34.8123960">
<ele>492.400024</ele>
<time>2014-01-03T09:55:44.000Z</time>
</trkpt>
<trkpt lat="30.8655640" lon="34.8122770">
<ele>492.199982</ele>
<time>2014-01-03T09:55:46.000Z</time>
</trkpt>
<trkpt lat="30.8655750" lon="34.8121580">
<ele>492.000000</ele>
<time>2014-01-03T09:55:48.000Z</time>
</trkpt>
<trkpt lat="30.8655970" lon="34.8120570">
<ele>491.699982</ele>
<time>2014-01-03T09:55:53.000Z</time>
</trkpt>
<trkpt lat="30.8656470" lon="34.8119490">
<ele>491.200012</ele>
<time>2014-01-03T09:56:01.000Z</time>
</trkpt>
<trkpt lat="30.8656690" lon="34.8118320">
<ele>490.699982</ele>
<time>2014-01-03T09:56:04.000Z</time>
</trkpt>
<trkpt lat="30.8656230" lon="34.8116590">
<ele>490.000000</ele>
<time>2014-01-03T09:56:06.000Z</time>
</trkpt>
<trkpt lat="30.8656030" lon="34.8115510">
<ele>489.499969</ele>
<time>2014-01-03T09:56:09.000Z</time>
</trkpt>
<trkpt lat="30.8656010" lon="34.8114360">
<ele>489.000000</ele>
<time>2014-01-03T09:56:11.000Z</time>
</trkpt>
<trkpt lat="30.8655840" lon="34.8113240">
<ele>488.500000</ele>
<time>2014-01-03T09:56:13.000Z</time>
</trkpt>
<trkpt lat="30.8655670" lon="34.8112100">
<ele>488.100006</ele>
<time>2014-01-03T09:56:15.000Z</time>
</trkpt>
<trkpt lat="30.8655200" lon="34.8111050">
<ele>487.799988</ele>
<time>2014-01-03T09:56:16.000Z</time>
</trkpt>
<trkpt lat="30.8654810" lon="34.8109930">
<ele>487.400024</ele>
<time>2014-01-03T09:56:19.000Z</time>
</trkpt>
<trkpt lat="30.8654350" lon="34.8108830">
<ele>487.100006</ele>
<time>2014-01-03T09:56:20.000Z</time>
</trkpt>
<trkpt lat="30.8653760" lon="34.8107520">
<ele>486.700012</ele>
<time>2014-01-03T09:56:23.000Z</time>
</trkpt>
<trkpt lat="30.8653220" lon="34.8106200">
<ele>486.200012</ele>
<time>2014-01-03T09:56:24.000Z</time>
</trkpt>
<trkpt lat="30.8652770" lon="34.8104760">
<ele>485.699982</ele>
<time>2014-01-03T09:56:27.000Z</time>
</trkpt>
<trkpt lat="30.8652300" lon="34.8103450">
<ele>485.099976</ele>
<time>2014-01-03T09:56:28.000Z</time>
</trkpt>
<trkpt lat="30.8651750" lon="34.8102090">
<ele>484.600006</ele>
<time>2014-01-03T09:56:31.000Z</time>
</trkpt>
<trkpt lat="30.8651140" lon="34.8100790">
<ele>484.100006</ele>
<time>2014-01-03T09:56:32.000Z</time>
</trkpt>
<trkpt lat="30.8650440" lon="34.8099650">
<ele>483.800018</ele>
<time>2014-01-03T09:56:35.000Z</time>
</trkpt>
<trkpt lat="30.8649620" lon="34.8098520">
<ele>483.399994</ele>
<time>2014-01-03T09:56:36.000Z</time>
</trkpt>
<trkpt lat="30.8648820" lon="34.8097330">
<ele>483.200012</ele>
<time>2014-01-03T09:56:39.000Z</time>
</trkpt>
<trkpt lat="30.8648190" lon="34.8096070">
<ele>483.000000</ele>
<time>2014-01-03T09:56:40.000Z</time>
</trkpt>
<trkpt lat="30.8647690" lon="34.8094770">
<ele>482.900024</ele>
<time>2014-01-03T09:56:43.000Z</time>
</trkpt>
<trkpt lat="30.8647100" lon="34.8093470">
<ele>482.799988</ele>
<time>2014-01-03T09:56:44.000Z</time>
</trkpt>
<trkpt lat="30.8646290" lon="34.8092230">
<ele>482.600006</ele>
<time>2014-01-03T09:56:47.000Z</time>
</trkpt>
<trkpt lat="30.8645420" lon="34.8091050">
<ele>482.500000</ele>
<time>2014-01-03T09:56:48.000Z</time>
</trkpt>
<trkpt lat="30.8644630" lon="34.8090000">
<ele>482.500000</ele>
<time>2014-01-03T09:56:51.000Z</time>
</trkpt>
<trkpt lat="30.8643890" lon="34.8088770">
<ele>482.500000</ele>
<time>2014-01-03T09:56:52.000Z</time>
</trkpt>
<trkpt lat="30.8643260" lon="34.8087620">
<ele>482.300018</ele>
<time>2014-01-03T09:56:55.000Z</time>
</trkpt>
<trkpt lat="30.8642590" lon="34.8086350">
<ele>482.399994</ele>
<time>2014-01-03T09:56:56.000Z</time>
</trkpt>
<trkpt lat="30.8641870" lon="34.8085010">
<ele>482.500000</ele>
<time>2014-01-03T09:56:59.000Z</time>
</trkpt>
<trkpt lat="30.8641140" lon="34.8083850">
<ele>482.500000</ele>
<time>2014-01-03T09:57:00.000Z</time>
</trkpt>
<trkpt lat="30.8640280" lon="34.8082690">
<ele>482.500000</ele>
<time>2014-01-03T09:57:03.000Z</time>
</trkpt>
<trkpt lat="30.8639580" lon="34.8081540">
<ele>482.399994</ele>
<time>2014-01-03T09:57:05.000Z</time>
</trkpt>
<trkpt lat="30.8639090" lon="34.8080260">
<ele>482.300018</ele>
<time>2014-01-03T09:57:07.000Z</time>
</trkpt>
<trkpt lat="30.8638750" lon="34.8078800">
<ele>482.000000</ele>
<time>2014-01-03T09:57:09.000Z</time>
</trkpt>
<trkpt lat="30.8638310" lon="34.8077420">
<ele>481.500000</ele>
<time>2014-01-03T09:57:10.000Z</time>
</trkpt>
<trkpt lat="30.8637820" lon="34.8076050">
<ele>480.899994</ele>
<time>2014-01-03T09:57:13.000Z</time>
</trkpt>
<trkpt lat="30.8637230" lon="34.8074800">
<ele>480.399994</ele>
<time>2014-01-03T09:57:14.000Z</time>
</trkpt>
<trkpt lat="30.8636670" lon="34.8073370">
<ele>479.699982</ele>
<time>2014-01-03T09:57:17.000Z</time>
</trkpt>
<trkpt lat="30.8636170" lon="34.8071990">
<ele>479.099976</ele>
<time>2014-01-03T09:57:18.000Z</time>
</trkpt>
<trkpt lat="30.8635610" lon="34.8070810">
<ele>478.499969</ele>
<time>2014-01-03T09:57:21.000Z</time>
</trkpt>
<trkpt lat="30.8635010" lon="34.8069570">
<ele>478.299988</ele>
<time>2014-01-03T09:57:22.000Z</time>
</trkpt>
<trkpt lat="30.8634210" lon="34.8068630">
<ele>478.100006</ele>
<time>2014-01-03T09:57:25.000Z</time>
</trkpt>
<trkpt lat="30.8633190" lon="34.8068170">
<ele>477.800018</ele>
<time>2014-01-03T09:57:26.000Z</time>
</trkpt>
<trkpt lat="30.8632130" lon="34.8067940">
<ele>477.599976</ele>
<time>2014-01-03T09:57:29.000Z</time>
</trkpt>
<trkpt lat="30.8631100" lon="34.8067720">
<ele>477.399994</ele>
<time>2014-01-03T09:57:30.000Z</time>
</trkpt>
<trkpt lat="30.8629980" lon="34.8067220">
<ele>477.200012</ele>
<time>2014-01-03T09:57:33.000Z</time>
</trkpt>
<trkpt lat="30.8629010" lon="34.8066580">
<ele>476.999969</ele>
<time>2014-01-03T09:57:34.000Z</time>
</trkpt>
<trkpt lat="30.8628110" lon="34.8065930">
<ele>477.100006</ele>
<time>2014-01-03T09:57:37.000Z</time>
</trkpt>
<trkpt lat="30.8627240" lon="34.8065400">
<ele>477.200012</ele>
<time>2014-01-03T09:57:38.000Z</time>
</trkpt>
<trkpt lat="30.8626040" lon="34.8064970">
<ele>477.299988</ele>
<time>2014-01-03T09:57:41.000Z</time>
</trkpt>
<trkpt lat="30.8625090" lon="34.8064840">
<ele>477.399994</ele>
<time>2014-01-03T09:57:44.000Z</time>
</trkpt>
<trkpt lat="30.8623830" lon="34.8064360">
<ele>477.500000</ele>
<time>2014-01-03T09:57:46.000Z</time>
</trkpt>
<trkpt lat="30.8622800" lon="34.8064180">
<ele>477.599976</ele>
<time>2014-01-03T09:57:49.000Z</time>
</trkpt>
<trkpt lat="30.8621800" lon="34.8063820">
<ele>477.699982</ele>
<time>2014-01-03T09:57:50.000Z</time>
</trkpt>
<trkpt lat="30.8620450" lon="34.8063500">
<ele>477.800018</ele>
<time>2014-01-03T09:57:53.000Z</time>
</trkpt>
<trkpt lat="30.8619480" lon="34.8063320">
<ele>477.800018</ele>
<time>2014-01-03T09:57:56.000Z</time>
</trkpt>
<trkpt lat="30.8618570" lon="34.8062990">
<ele>477.699982</ele>
<time>2014-01-03T09:57:57.000Z</time>
</trkpt>
<trkpt lat="30.8617570" lon="34.8062540">
<ele>477.599976</ele>
<time>2014-01-03T09:58:00.000Z</time>
</trkpt>
<trkpt lat="30.8616700" lon="34.8062210">
<ele>477.500000</ele>
<time>2014-01-03T09:58:01.000Z</time>
</trkpt>
<trkpt lat="30.8615790" lon="34.8061840">
<ele>477.299988</ele>
<time>2014-01-03T09:58:04.000Z</time>
</trkpt>
<trkpt lat="30.8614920" lon="34.8061420">
<ele>477.200012</ele>
<time>2014-01-03T09:58:05.000Z</time>
</trkpt>
<trkpt lat="30.8614070" lon="34.8061000">
<ele>477.200012</ele>
<time>2014-01-03T09:58:08.000Z</time>
</trkpt>
<trkpt lat="30.8613130" lon="34.8060610">
<ele>477.200012</ele>
<time>2014-01-03T09:58:09.000Z</time>
</trkpt>
<trkpt lat="30.8612250" lon="34.8060200">
<ele>477.200012</ele>
<time>2014-01-03T09:58:12.000Z</time>
</trkpt>
<trkpt lat="30.8611350" lon="34.8059770">
<ele>476.999969</ele>
<time>2014-01-03T09:58:13.000Z</time>
</trkpt>
<trkpt lat="30.8610430" lon="34.8059360">
<ele>476.699982</ele>
<time>2014-01-03T09:58:16.000Z</time>
</trkpt>
<trkpt lat="30.8609550" lon="34.8058980">
<ele>476.399994</ele>
<time>2014-01-03T09:58:17.000Z</time>
</trkpt>
<trkpt lat="30.8608680" lon="34.8058700">
<ele>476.100006</ele>
<time>2014-01-03T09:58:20.000Z</time>
</trkpt>
<trkpt lat="30.8607650" lon="34.8058240">
<ele>475.800018</ele>
<time>2014-01-03T09:58:21.000Z</time>
</trkpt>
<trkpt lat="30.8606740" lon="34.8057860">
<ele>475.399994</ele>
<time>2014-01-03T09:58:24.000Z</time>
</trkpt>
<trkpt lat="30.8605840" lon="34.8057440">
<ele>475.000000</ele>
<time>2014-01-03T09:58:26.000Z</time>
</trkpt>
<trkpt lat="30.8604890" lon="34.8056890">
<ele>474.600006</ele>
<time>2014-01-03T09:58:28.000Z</time>
</trkpt>
<trkpt lat="30.8604030" lon="34.8056220">
<ele>474.200012</ele>
<time>2014-01-03T09:58:30.000Z</time>
</trkpt>
<trkpt lat="30.8603250" lon="34.8055460">
<ele>474.000031</ele>
<time>2014-01-03T09:58:32.000Z</time>
</trkpt>
<trkpt lat="30.8602440" lon="34.8054770">
<ele>473.899994</ele>
<time>2014-01-03T09:58:36.000Z</time>
</trkpt>
<trkpt lat="30.8601290" lon="34.8054810">
<ele>473.700012</ele>
<time>2014-01-03T09:58:40.000Z</time>
</trkpt>
<trkpt lat="30.8600210" lon="34.8055400">
<ele>473.700012</ele>
<time>2014-01-03T09:58:44.000Z</time>
</trkpt>
<trkpt lat="30.8599300" lon="34.8055720">
<ele>473.600006</ele>
<time>2014-01-03T09:58:47.000Z</time>
</trkpt>
<trkpt lat="30.8598270" lon="34.8055940">
<ele>473.500000</ele>
<time>2014-01-03T09:58:51.000Z</time>
</trkpt>
<trkpt lat="30.8596870" lon="34.8056310">
<ele>473.400024</ele>
<time>2014-01-03T09:58:54.000Z</time>
</trkpt>
<trkpt lat="30.8595920" lon="34.8056610">
<ele>473.300018</ele>
<time>2014-01-03T09:58:55.000Z</time>
</trkpt>
<trkpt lat="30.8595060" lon="34.8056960">
<ele>473.400024</ele>
<time>2014-01-03T09:58:58.000Z</time>
</trkpt>
<trkpt lat="30.8593800" lon="34.8057210">
<ele>473.600006</ele>
<time>2014-01-03T09:59:01.000Z</time>
</trkpt>
<trkpt lat="30.8592700" lon="34.8056750">
<ele>473.700012</ele>
<time>2014-01-03T09:59:03.000Z</time>
</trkpt>
<trkpt lat="30.8592560" lon="34.8055620">
<ele>473.600006</ele>
<time>2014-01-03T09:59:06.000Z</time>
</trkpt>
<trkpt lat="30.8592270" lon="34.8054560">
<ele>473.500000</ele>
<time>2014-01-03T09:59:10.000Z</time>
</trkpt>
<trkpt lat="30.8591230" lon="34.8053940">
<ele>473.400024</ele>
<time>2014-01-03T09:59:14.000Z</time>
</trkpt>
<trkpt lat="30.8590160" lon="34.8054310">
<ele>473.700012</ele>
<time>2014-01-03T09:59:17.000Z</time>
</trkpt>
<trkpt lat="30.8589090" lon="34.8054670">
<ele>473.899994</ele>
<time>2014-01-03T09:59:20.000Z</time>
</trkpt>
<trkpt lat="30.8587900" lon="34.8054660">
<ele>474.000031</ele>
<time>2014-01-03T09:59:22.000Z</time>
</trkpt>
<trkpt lat="30.8586820" lon="34.8054080">
<ele>473.899994</ele>
<time>2014-01-03T09:59:25.000Z</time>
</trkpt>
<trkpt lat="30.8585950" lon="34.8053140">
<ele>473.300018</ele>
<time>2014-01-03T09:59:29.000Z</time>
</trkpt>
<trkpt lat="30.8584960" lon="34.8052490">
<ele>473.100006</ele>
<time>2014-01-03T09:59:32.000Z</time>
</trkpt>
<trkpt lat="30.8583870" lon="34.8052010">
<ele>473.100006</ele>
<time>2014-01-03T09:59:34.000Z</time>
</trkpt>
<trkpt lat="30.8582690" lon="34.8051620">
<ele>473.300018</ele>
<time>2014-01-03T09:59:37.000Z</time>
</trkpt>
<trkpt lat="30.8581440" lon="34.8051310">
<ele>473.600006</ele>
<time>2014-01-03T09:59:41.000Z</time>
</trkpt>
<trkpt lat="30.8580320" lon="34.8051000">
<ele>474.000031</ele>
<time>2014-01-03T09:59:44.000Z</time>
</trkpt>
<trkpt lat="30.8579190" lon="34.8050630">
<ele>474.399994</ele>
<time>2014-01-03T09:59:48.000Z</time>
</trkpt>
<trkpt lat="30.8578250" lon="34.8050370">
<ele>474.699982</ele>
<time>2014-01-03T09:59:51.000Z</time>
</trkpt>
<trkpt lat="30.8576730" lon="34.8050040">
<ele>475.200012</ele>
<time>2014-01-03T09:59:55.000Z</time>
</trkpt>
<trkpt lat="30.8575490" lon="34.8049780">
<ele>475.600006</ele>
<time>2014-01-03T09:59:57.000Z</time>
</trkpt>
<trkpt lat="30.8574300" lon="34.8049400">
<ele>476.100006</ele>
<time>2014-01-03T10:00:00.000Z</time>
</trkpt>
<trkpt lat="30.8573170" lon="34.8048800">
<ele>476.500000</ele>
<time>2014-01-03T10:00:04.000Z</time>
</trkpt>
<trkpt lat="30.8572130" lon="34.8048110">
<ele>476.999969</ele>
<time>2014-01-03T10:00:07.000Z</time>
</trkpt>
<trkpt lat="30.8571070" lon="34.8047960">
<ele>477.399994</ele>
<time>2014-01-03T10:00:09.000Z</time>
</trkpt>
<trkpt lat="30.8569890" lon="34.8048190">
<ele>477.299988</ele>
<time>2014-01-03T10:00:12.000Z</time>
</trkpt>
<trkpt lat="30.8568770" lon="34.8047850">
<ele>477.299988</ele>
<time>2014-01-03T10:00:16.000Z</time>
</trkpt>
<trkpt lat="30.8567950" lon="34.8046910">
<ele>477.399994</ele>
<time>2014-01-03T10:00:19.000Z</time>
</trkpt>
<trkpt lat="30.8567430" lon="34.8045730">
<ele>477.599976</ele>
<time>2014-01-03T10:00:22.000Z</time>
</trkpt>
<trkpt lat="30.8566680" lon="34.8044790">
<ele>477.399994</ele>
<time>2014-01-03T10:00:24.000Z</time>
</trkpt>
<trkpt lat="30.8565750" lon="34.8044440">
<ele>477.299988</ele>
<time>2014-01-03T10:00:27.000Z</time>
</trkpt>
<trkpt lat="30.8564970" lon="34.8045070">
<ele>477.200012</ele>
<time>2014-01-03T10:00:31.000Z</time>
</trkpt>
<trkpt lat="30.8564280" lon="34.8045790">
<ele>477.200012</ele>
<time>2014-01-03T10:00:34.000Z</time>
</trkpt>
<trkpt lat="30.8563400" lon="34.8046180">
<ele>476.999969</ele>
<time>2014-01-03T10:00:36.000Z</time>
</trkpt>
<trkpt lat="30.8562550" lon="34.8047100">
<ele>476.699982</ele>
<time>2014-01-03T10:00:41.000Z</time>
</trkpt>
<trkpt lat="30.8561910" lon="34.8047930">
<ele>476.399994</ele>
<time>2014-01-03T10:00:43.000Z</time>
</trkpt>
<trkpt lat="30.8561180" lon="34.8048590">
<ele>476.199982</ele>
<time>2014-01-03T10:00:46.000Z</time>
</trkpt>
<trkpt lat="30.8560120" lon="34.8049040">
<ele>476.100006</ele>
<time>2014-01-03T10:00:50.000Z</time>
</trkpt>
<trkpt lat="30.8559180" lon="34.8049800">
<ele>475.800018</ele>
<time>2014-01-03T10:00:54.000Z</time>
</trkpt>
<trkpt lat="30.8558240" lon="34.8050550">
<ele>475.600006</ele>
<time>2014-01-03T10:00:58.000Z</time>
</trkpt>
<trkpt lat="30.8557260" lon="34.8050940">
<ele>475.500031</ele>
<time>2014-01-03T10:01:03.000Z</time>
</trkpt>
<trkpt lat="30.8556750" lon="34.8051040">
<ele>475.500031</ele>
<time>2014-01-03T10:01:13.000Z</time>
</trkpt>
<trkpt lat="30.8556690" lon="34.8051080">
<ele>475.500031</ele>
<time>2014-01-03T10:01:53.000Z</time>
</trkpt>
<trkpt lat="30.8556690" lon="34.8051080">
<ele>475.500031</ele>
<time>2014-01-03T10:02:34.000Z</time>
</trkpt>
<trkpt lat="30.8556620" lon="34.8050500">
<ele>475.600006</ele>
<time>2014-01-03T10:03:01.000Z</time>
</trkpt>
<trkpt lat="30.8557500" lon="34.8050070">
<ele>475.700012</ele>
<time>2014-01-03T10:03:10.000Z</time>
</trkpt>
<trkpt lat="30.8558010" lon="34.8049080">
<ele>475.899994</ele>
<time>2014-01-03T10:03:17.000Z</time>
</trkpt>
<trkpt lat="30.8558420" lon="34.8047900">
<ele>476.100006</ele>
<time>2014-01-03T10:03:21.000Z</time>
</trkpt>
<trkpt lat="30.8558670" lon="34.8046550">
<ele>476.399994</ele>
<time>2014-01-03T10:03:25.000Z</time>
</trkpt>
<trkpt lat="30.8558980" lon="34.8045320">
<ele>476.500000</ele>
<time>2014-01-03T10:03:29.000Z</time>
</trkpt>
<trkpt lat="30.8559380" lon="34.8045660">
<ele>476.600006</ele>
<time>2014-01-03T10:03:40.000Z</time>
</trkpt>
<trkpt lat="30.8558680" lon="34.8044840">
<ele>476.399994</ele>
<time>2014-01-03T10:03:44.000Z</time>
</trkpt>
<trkpt lat="30.8558410" lon="34.8043730">
<ele>476.300018</ele>
<time>2014-01-03T10:03:48.000Z</time>
</trkpt>
<trkpt lat="30.8558790" lon="34.8042730">
<ele>476.199982</ele>
<time>2014-01-03T10:03:52.000Z</time>
</trkpt>
<trkpt lat="30.8559370" lon="34.8041920">
<ele>476.300018</ele>
<time>2014-01-03T10:03:55.000Z</time>
</trkpt>
<trkpt lat="30.8560100" lon="34.8041050">
<ele>476.399994</ele>
<time>2014-01-03T10:03:59.000Z</time>
</trkpt>
<trkpt lat="30.8560420" lon="34.8039870">
<ele>476.399994</ele>
<time>2014-01-03T10:04:02.000Z</time>
</trkpt>
<trkpt lat="30.8561210" lon="34.8038510">
<ele>476.600006</ele>
<time>2014-01-03T10:04:04.000Z</time>
</trkpt>
<trkpt lat="30.8561840" lon="34.8037260">
<ele>476.799988</ele>
<time>2014-01-03T10:04:07.000Z</time>
</trkpt>
<trkpt lat="30.8561980" lon="34.8035790">
<ele>476.899994</ele>
<time>2014-01-03T10:04:11.000Z</time>
</trkpt>
<trkpt lat="30.8561980" lon="34.8034690">
<ele>476.899994</ele>
<time>2014-01-03T10:04:12.000Z</time>
</trkpt>
<trkpt lat="30.8561850" lon="34.8033480">
<ele>476.899994</ele>
<time>2014-01-03T10:04:15.000Z</time>
</trkpt>
<trkpt lat="30.8561660" lon="34.8032380">
<ele>476.899994</ele>
<time>2014-01-03T10:04:17.000Z</time>
</trkpt>
<trkpt lat="30.8561730" lon="34.8031190">
<ele>476.999969</ele>
<time>2014-01-03T10:04:19.000Z</time>
</trkpt>
<trkpt lat="30.8562100" lon="34.8030160">
<ele>476.999969</ele>
<time>2014-01-03T10:04:21.000Z</time>
</trkpt>
<trkpt lat="30.8562810" lon="34.8029320">
<ele>476.999969</ele>
<time>2014-01-03T10:04:22.000Z</time>
</trkpt>
<trkpt lat="30.8563630" lon="34.8028430">
<ele>476.500000</ele>
<time>2014-01-03T10:04:25.000Z</time>
</trkpt>
<trkpt lat="30.8564420" lon="34.8027180">
<ele>475.899994</ele>
<time>2014-01-03T10:04:27.000Z</time>
</trkpt>
<trkpt lat="30.8565130" lon="34.8026030">
<ele>475.299988</ele>
<time>2014-01-03T10:04:30.000Z</time>
</trkpt>
<trkpt lat="30.8566110" lon="34.8025470">
<ele>475.000000</ele>
<time>2014-01-03T10:04:34.000Z</time>
</trkpt>
<trkpt lat="30.8567250" lon="34.8025290">
<ele>474.800018</ele>
<time>2014-01-03T10:04:37.000Z</time>
</trkpt>
<trkpt lat="30.8568260" lon="34.8024510">
<ele>474.500000</ele>
<time>2014-01-03T10:04:39.000Z</time>
</trkpt>
<trkpt lat="30.8568810" lon="34.8023550">
<ele>474.100006</ele>
<time>2014-01-03T10:04:42.000Z</time>
</trkpt>
<trkpt lat="30.8569440" lon="34.8022770">
<ele>473.700012</ele>
<time>2014-01-03T10:04:44.000Z</time>
</trkpt>
<trkpt lat="30.8570130" lon="34.8021940">
<ele>473.400024</ele>
<time>2014-01-03T10:04:46.000Z</time>
</trkpt>
<trkpt lat="30.8570890" lon="34.8021150">
<ele>473.100006</ele>
<time>2014-01-03T10:04:48.000Z</time>
</trkpt>
<trkpt lat="30.8571780" lon="34.8019920">
<ele>473.300018</ele>
<time>2014-01-03T10:04:50.000Z</time>
</trkpt>
<trkpt lat="30.8572490" lon="34.8019080">
<ele>473.700012</ele>
<time>2014-01-03T10:04:53.000Z</time>
</trkpt>
<trkpt lat="30.8573170" lon="34.8018170">
<ele>474.000031</ele>
<time>2014-01-03T10:04:54.000Z</time>
</trkpt>
<trkpt lat="30.8573780" lon="34.8017210">
<ele>474.399994</ele>
<time>2014-01-03T10:04:57.000Z</time>
</trkpt>
<trkpt lat="30.8574550" lon="34.8016040">
<ele>474.900024</ele>
<time>2014-01-03T10:05:00.000Z</time>
</trkpt>
<trkpt lat="30.8575530" lon="34.8014870">
<ele>475.399994</ele>
<time>2014-01-03T10:05:02.000Z</time>
</trkpt>
<trkpt lat="30.8576030" lon="34.8014000">
<ele>475.800018</ele>
<time>2014-01-03T10:05:05.000Z</time>
</trkpt>
<trkpt lat="30.8576410" lon="34.8012920">
<ele>476.199982</ele>
<time>2014-01-03T10:05:06.000Z</time>
</trkpt>
<trkpt lat="30.8576830" lon="34.8011830">
<ele>476.000000</ele>
<time>2014-01-03T10:05:09.000Z</time>
</trkpt>
<trkpt lat="30.8577130" lon="34.8010640">
<ele>475.299988</ele>
<time>2014-01-03T10:05:11.000Z</time>
</trkpt>
<trkpt lat="30.8577270" lon="34.8009450">
<ele>474.600006</ele>
<time>2014-01-03T10:05:13.000Z</time>
</trkpt>
<trkpt lat="30.8577370" lon="34.8008280">
<ele>473.799988</ele>
<time>2014-01-03T10:05:15.000Z</time>
</trkpt>
<trkpt lat="30.8577450" lon="34.8007060">
<ele>473.000000</ele>
<time>2014-01-03T10:05:16.000Z</time>
</trkpt>
<trkpt lat="30.8577640" lon="34.8005910">
<ele>472.100006</ele>
<time>2014-01-03T10:05:19.000Z</time>
</trkpt>
<trkpt lat="30.8577590" lon="34.8004750">
<ele>471.300018</ele>
<time>2014-01-03T10:05:20.000Z</time>
</trkpt>
<trkpt lat="30.8577550" lon="34.8003700">
<ele>471.099976</ele>
<time>2014-01-03T10:05:23.000Z</time>
</trkpt>
<trkpt lat="30.8577460" lon="34.8002480">
<ele>471.600006</ele>
<time>2014-01-03T10:05:24.000Z</time>
</trkpt>
<trkpt lat="30.8577310" lon="34.8001400">
<ele>472.100006</ele>
<time>2014-01-03T10:05:27.000Z</time>
</trkpt>
<trkpt lat="30.8577170" lon="34.8000140">
<ele>472.599976</ele>
<time>2014-01-03T10:05:28.000Z</time>
</trkpt>
<trkpt lat="30.8576980" lon="34.7998870">
<ele>473.199982</ele>
<time>2014-01-03T10:05:31.000Z</time>
</trkpt>
<trkpt lat="30.8577020" lon="34.7997710">
<ele>473.600006</ele>
<time>2014-01-03T10:05:32.000Z</time>
</trkpt>
<trkpt lat="30.8577020" lon="34.7996500">
<ele>474.000031</ele>
<time>2014-01-03T10:05:35.000Z</time>
</trkpt>
<trkpt lat="30.8576910" lon="34.7995140">
<ele>474.399994</ele>
<time>2014-01-03T10:05:36.000Z</time>
</trkpt>
<trkpt lat="30.8576850" lon="34.7993870">
<ele>474.500000</ele>
<time>2014-01-03T10:05:39.000Z</time>
</trkpt>
<trkpt lat="30.8576710" lon="34.7992630">
<ele>474.699982</ele>
<time>2014-01-03T10:05:40.000Z</time>
</trkpt>
<trkpt lat="30.8576550" lon="34.7991350">
<ele>474.800018</ele>
<time>2014-01-03T10:05:43.000Z</time>
</trkpt>
<trkpt lat="30.8576380" lon="34.7990130">
<ele>474.900024</ele>
<time>2014-01-03T10:05:44.000Z</time>
</trkpt>
<trkpt lat="30.8576170" lon="34.7988850">
<ele>475.000000</ele>
<time>2014-01-03T10:05:47.000Z</time>
</trkpt>
<trkpt lat="30.8576070" lon="34.7987540">
<ele>475.000000</ele>
<time>2014-01-03T10:05:48.000Z</time>
</trkpt>
<trkpt lat="30.8576000" lon="34.7986280">
<ele>474.300018</ele>
<time>2014-01-03T10:05:51.000Z</time>
</trkpt>
<trkpt lat="30.8575760" lon="34.7984900">
<ele>473.500000</ele>
<time>2014-01-03T10:05:52.000Z</time>
</trkpt>
<trkpt lat="30.8575480" lon="34.7983550">
<ele>472.700012</ele>
<time>2014-01-03T10:05:55.000Z</time>
</trkpt>
<trkpt lat="30.8575270" lon="34.7982180">
<ele>471.799988</ele>
<time>2014-01-03T10:05:56.000Z</time>
</trkpt>
<trkpt lat="30.8575180" lon="34.7980960">
<ele>471.099976</ele>
<time>2014-01-03T10:05:59.000Z</time>
</trkpt>
<trkpt lat="30.8575080" lon="34.7979690">
<ele>470.299988</ele>
<time>2014-01-03T10:06:00.000Z</time>
</trkpt>
<trkpt lat="30.8574910" lon="34.7978340">
<ele>470.199982</ele>
<time>2014-01-03T10:06:03.000Z</time>
</trkpt>
<trkpt lat="30.8574750" lon="34.7976950">
<ele>470.600006</ele>
<time>2014-01-03T10:06:05.000Z</time>
</trkpt>
<trkpt lat="30.8574530" lon="34.7975630">
<ele>471.000000</ele>
<time>2014-01-03T10:06:07.000Z</time>
</trkpt>
<trkpt lat="30.8574310" lon="34.7974310">
<ele>471.399994</ele>
<time>2014-01-03T10:06:09.000Z</time>
</trkpt>
<trkpt lat="30.8574230" lon="34.7973010">
<ele>471.900024</ele>
<time>2014-01-03T10:06:10.000Z</time>
</trkpt>
<trkpt lat="30.8574320" lon="34.7971770">
<ele>472.299988</ele>
<time>2014-01-03T10:06:13.000Z</time>
</trkpt>
<trkpt lat="30.8574640" lon="34.7970680">
<ele>472.599976</ele>
<time>2014-01-03T10:06:14.000Z</time>
</trkpt>
<trkpt lat="30.8575010" lon="34.7969340">
<ele>472.899994</ele>
<time>2014-01-03T10:06:18.000Z</time>
</trkpt>
<trkpt lat="30.8574880" lon="34.7968280">
<ele>473.300018</ele>
<time>2014-01-03T10:06:19.000Z</time>
</trkpt>
<trkpt lat="30.8574350" lon="34.7966980">
<ele>473.700012</ele>
<time>2014-01-03T10:06:22.000Z</time>
</trkpt>
<trkpt lat="30.8573870" lon="34.7965660">
<ele>474.100006</ele>
<time>2014-01-03T10:06:26.000Z</time>
</trkpt>
<trkpt lat="30.8573420" lon="34.7964330">
<ele>474.500000</ele>
<time>2014-01-03T10:06:29.000Z</time>
</trkpt>
<trkpt lat="30.8573050" lon="34.7962960">
<ele>474.900024</ele>
<time>2014-01-03T10:06:32.000Z</time>
</trkpt>
<trkpt lat="30.8572710" lon="34.7961530">
<ele>474.600006</ele>
<time>2014-01-03T10:06:34.000Z</time>
</trkpt>
<trkpt lat="30.8572590" lon="34.7960060">
<ele>474.100006</ele>
<time>2014-01-03T10:06:37.000Z</time>
</trkpt>
<trkpt lat="30.8572530" lon="34.7958630">
<ele>473.500000</ele>
<time>2014-01-03T10:06:41.000Z</time>
</trkpt>
<trkpt lat="30.8572340" lon="34.7957220">
<ele>473.000000</ele>
<time>2014-01-03T10:06:44.000Z</time>
</trkpt>
<trkpt lat="30.8572060" lon="34.7955820">
<ele>472.500000</ele>
<time>2014-01-03T10:06:46.000Z</time>
</trkpt>
<trkpt lat="30.8571840" lon="34.7954550">
<ele>472.000000</ele>
<time>2014-01-03T10:06:49.000Z</time>
</trkpt>
<trkpt lat="30.8571560" lon="34.7953200">
<ele>472.100006</ele>
<time>2014-01-03T10:06:53.000Z</time>
</trkpt>
<trkpt lat="30.8571130" lon="34.7952000">
<ele>472.299988</ele>
<time>2014-01-03T10:06:56.000Z</time>
</trkpt>
<trkpt lat="30.8570860" lon="34.7950910">
<ele>472.399994</ele>
<time>2014-01-03T10:06:59.000Z</time>
</trkpt>
<trkpt lat="30.8570590" lon="34.7949700">
<ele>472.599976</ele>
<time>2014-01-03T10:07:01.000Z</time>
</trkpt>
<trkpt lat="30.8570060" lon="34.7948460">
<ele>472.800018</ele>
<time>2014-01-03T10:07:04.000Z</time>
</trkpt>
<trkpt lat="30.8569560" lon="34.7947200">
<ele>473.100006</ele>
<time>2014-01-03T10:07:08.000Z</time>
</trkpt>
<trkpt lat="30.8569140" lon="34.7945790">
<ele>473.400024</ele>
<time>2014-01-03T10:07:11.000Z</time>
</trkpt>
<trkpt lat="30.8568610" lon="34.7944420">
<ele>474.200012</ele>
<time>2014-01-03T10:07:13.000Z</time>
</trkpt>
<trkpt lat="30.8568240" lon="34.7943460">
<ele>474.800018</ele>
<time>2014-01-03T10:07:16.000Z</time>
</trkpt>
<trkpt lat="30.8567750" lon="34.7942550">
<ele>475.299988</ele>
<time>2014-01-03T10:07:17.000Z</time>
</trkpt>
<trkpt lat="30.8567260" lon="34.7941610">
<ele>475.899994</ele>
<time>2014-01-03T10:07:20.000Z</time>
</trkpt>
<trkpt lat="30.8566760" lon="34.7940730">
<ele>476.399994</ele>
<time>2014-01-03T10:07:21.000Z</time>
</trkpt>
<trkpt lat="30.8566080" lon="34.7939330">
<ele>477.299988</ele>
<time>2014-01-03T10:07:24.000Z</time>
</trkpt>
<trkpt lat="30.8565410" lon="34.7938060">
<ele>478.000000</ele>
<time>2014-01-03T10:07:28.000Z</time>
</trkpt>
<trkpt lat="30.8565020" lon="34.7937100">
<ele>478.199982</ele>
<time>2014-01-03T10:07:30.000Z</time>
</trkpt>
<trkpt lat="30.8564600" lon="34.7936140">
<ele>477.800018</ele>
<time>2014-01-03T10:07:31.000Z</time>
</trkpt>
<trkpt lat="30.8564000" lon="34.7934860">
<ele>477.299988</ele>
<time>2014-01-03T10:07:35.000Z</time>
</trkpt>
<trkpt lat="30.8563490" lon="34.7933520">
<ele>476.600006</ele>
<time>2014-01-03T10:07:38.000Z</time>
</trkpt>
<trkpt lat="30.8562950" lon="34.7932250">
<ele>475.899994</ele>
<time>2014-01-03T10:07:40.000Z</time>
</trkpt>
<trkpt lat="30.8562260" lon="34.7931100">
<ele>475.299988</ele>
<time>2014-01-03T10:07:43.000Z</time>
</trkpt>
<trkpt lat="30.8561480" lon="34.7929990">
<ele>475.299988</ele>
<time>2014-01-03T10:07:47.000Z</time>
</trkpt>
<trkpt lat="30.8560540" lon="34.7929130">
<ele>475.899994</ele>
<time>2014-01-03T10:07:50.000Z</time>
</trkpt>
<trkpt lat="30.8559690" lon="34.7928200">
<ele>476.399994</ele>
<time>2014-01-03T10:07:53.000Z</time>
</trkpt>
<trkpt lat="30.8559000" lon="34.7927050">
<ele>476.600006</ele>
<time>2014-01-03T10:07:55.000Z</time>
</trkpt>
<trkpt lat="30.8558200" lon="34.7926010">
<ele>476.999969</ele>
<time>2014-01-03T10:07:58.000Z</time>
</trkpt>
<trkpt lat="30.8557380" lon="34.7924930">
<ele>477.299988</ele>
<time>2014-01-03T10:08:02.000Z</time>
</trkpt>
<trkpt lat="30.8556750" lon="34.7923700">
<ele>477.299988</ele>
<time>2014-01-03T10:08:05.000Z</time>
</trkpt>
<trkpt lat="30.8556290" lon="34.7922300">
<ele>477.100006</ele>
<time>2014-01-03T10:08:07.000Z</time>
</trkpt>
<trkpt lat="30.8555900" lon="34.7920850">
<ele>476.799988</ele>
<time>2014-01-03T10:08:10.000Z</time>
</trkpt>
<trkpt lat="30.8555630" lon="34.7919350">
<ele>476.999969</ele>
<time>2014-01-03T10:08:14.000Z</time>
</trkpt>
<trkpt lat="30.8555550" lon="34.7917840">
<ele>477.200012</ele>
<time>2014-01-03T10:08:17.000Z</time>
</trkpt>
<trkpt lat="30.8555390" lon="34.7916430">
<ele>477.299988</ele>
<time>2014-01-03T10:08:20.000Z</time>
</trkpt>
<trkpt lat="30.8555190" lon="34.7914970">
<ele>477.299988</ele>
<time>2014-01-03T10:08:22.000Z</time>
</trkpt>
<trkpt lat="30.8554780" lon="34.7913590">
<ele>477.299988</ele>
<time>2014-01-03T10:08:25.000Z</time>
</trkpt>
<trkpt lat="30.8553970" lon="34.7912430">
<ele>476.999969</ele>
<time>2014-01-03T10:08:29.000Z</time>
</trkpt>
<trkpt lat="30.8553020" lon="34.7911350">
<ele>477.500000</ele>
<time>2014-01-03T10:08:32.000Z</time>
</trkpt>
<trkpt lat="30.8552200" lon="34.7910310">
<ele>477.899994</ele>
<time>2014-01-03T10:08:34.000Z</time>
</trkpt>
<trkpt lat="30.8551570" lon="34.7909040">
<ele>478.299988</ele>
<time>2014-01-03T10:08:37.000Z</time>
</trkpt>
<trkpt lat="30.8550960" lon="34.7907890">
<ele>478.600006</ele>
<time>2014-01-03T10:08:41.000Z</time>
</trkpt>
<trkpt lat="30.8550450" lon="34.7906700">
<ele>478.899994</ele>
<time>2014-01-03T10:08:44.000Z</time>
</trkpt>
<trkpt lat="30.8550140" lon="34.7905220">
<ele>479.300018</ele>
<time>2014-01-03T10:08:47.000Z</time>
</trkpt>
<trkpt lat="30.8549960" lon="34.7904180">
<ele>479.500000</ele>
<time>2014-01-03T10:08:49.000Z</time>
</trkpt>
<trkpt lat="30.8549610" lon="34.7902930">
<ele>479.300018</ele>
<time>2014-01-03T10:08:52.000Z</time>
</trkpt>
<trkpt lat="30.8549400" lon="34.7901650">
<ele>479.099976</ele>
<time>2014-01-03T10:08:55.000Z</time>
</trkpt>
<trkpt lat="30.8549450" lon="34.7900430">
<ele>479.000000</ele>
<time>2014-01-03T10:08:57.000Z</time>
</trkpt>
<trkpt lat="30.8549500" lon="34.7899160">
<ele>478.799988</ele>
<time>2014-01-03T10:09:00.000Z</time>
</trkpt>
<trkpt lat="30.8549420" lon="34.7897770">
<ele>478.700012</ele>
<time>2014-01-03T10:09:04.000Z</time>
</trkpt>
<trkpt lat="30.8549490" lon="34.7896720">
<ele>478.499969</ele>
<time>2014-01-03T10:09:05.000Z</time>
</trkpt>
<trkpt lat="30.8549190" lon="34.7895480">
<ele>478.399994</ele>
<time>2014-01-03T10:09:08.000Z</time>
</trkpt>
<trkpt lat="30.8549150" lon="34.7894090">
<ele>478.499969</ele>
<time>2014-01-03T10:09:12.000Z</time>
</trkpt>
<trkpt lat="30.8549340" lon="34.7892660">
<ele>478.700012</ele>
<time>2014-01-03T10:09:16.000Z</time>
</trkpt>
<trkpt lat="30.8549390" lon="34.7891270">
<ele>478.799988</ele>
<time>2014-01-03T10:09:18.000Z</time>
</trkpt>
<trkpt lat="30.8549170" lon="34.7890110">
<ele>478.799988</ele>
<time>2014-01-03T10:09:20.000Z</time>
</trkpt>
<trkpt lat="30.8548520" lon="34.7889280">
<ele>478.600006</ele>
<time>2014-01-03T10:09:23.000Z</time>
</trkpt>
<trkpt lat="30.8547650" lon="34.7888730">
<ele>478.100006</ele>
<time>2014-01-03T10:09:27.000Z</time>
</trkpt>
<trkpt lat="30.8546620" lon="34.7888270">
<ele>477.500000</ele>
<time>2014-01-03T10:09:31.000Z</time>
</trkpt>
<trkpt lat="30.8545550" lon="34.7888580">
<ele>477.200012</ele>
<time>2014-01-03T10:09:35.000Z</time>
</trkpt>
<trkpt lat="30.8544580" lon="34.7888760">
<ele>477.299988</ele>
<time>2014-01-03T10:09:38.000Z</time>
</trkpt>
<trkpt lat="30.8543430" lon="34.7888690">
<ele>477.399994</ele>
<time>2014-01-03T10:09:39.000Z</time>
</trkpt>
<trkpt lat="30.8542590" lon="34.7888290">
<ele>477.399994</ele>
<time>2014-01-03T10:09:42.000Z</time>
</trkpt>
<trkpt lat="30.8541650" lon="34.7887340">
<ele>477.500000</ele>
<time>2014-01-03T10:09:45.000Z</time>
</trkpt>
<trkpt lat="30.8540970" lon="34.7886470">
<ele>477.500000</ele>
<time>2014-01-03T10:09:47.000Z</time>
</trkpt>
<trkpt lat="30.8540030" lon="34.7885860">
<ele>477.599976</ele>
<time>2014-01-03T10:09:50.000Z</time>
</trkpt>
<trkpt lat="30.8539160" lon="34.7885170">
<ele>477.599976</ele>
<time>2014-01-03T10:09:54.000Z</time>
</trkpt>
<trkpt lat="30.8537670" lon="34.7884080">
<ele>477.599976</ele>
<time>2014-01-03T10:09:58.000Z</time>
</trkpt>
<trkpt lat="30.8536810" lon="34.7883390">
<ele>477.500000</ele>
<time>2014-01-03T10:10:02.000Z</time>
</trkpt>
<trkpt lat="30.8536000" lon="34.7882680">
<ele>477.500000</ele>
<time>2014-01-03T10:10:05.000Z</time>
</trkpt>
<trkpt lat="30.8535280" lon="34.7882030">
<ele>477.500000</ele>
<time>2014-01-03T10:10:08.000Z</time>
</trkpt>
<trkpt lat="30.8534570" lon="34.7881380">
<ele>477.500000</ele>
<time>2014-01-03T10:10:10.000Z</time>
</trkpt>
<trkpt lat="30.8533600" lon="34.7880670">
<ele>477.599976</ele>
<time>2014-01-03T10:10:14.000Z</time>
</trkpt>
<trkpt lat="30.8532770" lon="34.7879790">
<ele>477.599976</ele>
<time>2014-01-03T10:10:18.000Z</time>
</trkpt>
<trkpt lat="30.8532060" lon="34.7879050">
<ele>477.699982</ele>
<time>2014-01-03T10:10:21.000Z</time>
</trkpt>
<trkpt lat="30.8531130" lon="34.7878360">
<ele>477.899994</ele>
<time>2014-01-03T10:10:25.000Z</time>
</trkpt>
<trkpt lat="30.8530140" lon="34.7877490">
<ele>478.100006</ele>
<time>2014-01-03T10:10:28.000Z</time>
</trkpt>
<trkpt lat="30.8529270" lon="34.7876680">
<ele>478.299988</ele>
<time>2014-01-03T10:10:30.000Z</time>
</trkpt>
<trkpt lat="30.8528420" lon="34.7876290">
<ele>478.499969</ele>
<time>2014-01-03T10:10:33.000Z</time>
</trkpt>
<trkpt lat="30.8529320" lon="34.7876550">
<ele>478.299988</ele>
<time>2014-01-03T10:10:41.000Z</time>
</trkpt>
<trkpt lat="30.8529930" lon="34.7877370">
<ele>478.100006</ele>
<time>2014-01-03T10:10:44.000Z</time>
</trkpt>
<trkpt lat="30.8530760" lon="34.7878170">
<ele>478.000000</ele>
<time>2014-01-03T10:10:48.000Z</time>
</trkpt>
<trkpt lat="30.8531680" lon="34.7878780">
<ele>477.800018</ele>
<time>2014-01-03T10:10:52.000Z</time>
</trkpt>
<trkpt lat="30.8532510" lon="34.7879230">
<ele>477.599976</ele>
<time>2014-01-03T10:10:57.000Z</time>
</trkpt>
<trkpt lat="30.8531650" lon="34.7878500">
<ele>477.800018</ele>
<time>2014-01-03T10:11:04.000Z</time>
</trkpt>
<trkpt lat="30.8530640" lon="34.7877700">
<ele>478.000000</ele>
<time>2014-01-03T10:11:07.000Z</time>
</trkpt>
<trkpt lat="30.8529670" lon="34.7876830">
<ele>478.199982</ele>
<time>2014-01-03T10:11:10.000Z</time>
</trkpt>
<trkpt lat="30.8528770" lon="34.7876130">
<ele>478.399994</ele>
<time>2014-01-03T10:11:12.000Z</time>
</trkpt>
<trkpt lat="30.8527910" lon="34.7875700">
<ele>478.600006</ele>
<time>2014-01-03T10:11:15.000Z</time>
</trkpt>
<trkpt lat="30.8527210" lon="34.7874950">
<ele>478.899994</ele>
<time>2014-01-03T10:11:19.000Z</time>
</trkpt>
<trkpt lat="30.8526410" lon="34.7874100">
<ele>479.099976</ele>
<time>2014-01-03T10:11:22.000Z</time>
</trkpt>
<trkpt lat="30.8525420" lon="34.7873310">
<ele>479.500000</ele>
<time>2014-01-03T10:11:24.000Z</time>
</trkpt>
<trkpt lat="30.8524420" lon="34.7872490">
<ele>479.799988</ele>
<time>2014-01-03T10:11:27.000Z</time>
</trkpt>
<trkpt lat="30.8523500" lon="34.7871660">
<ele>480.200012</ele>
<time>2014-01-03T10:11:31.000Z</time>
</trkpt>
<trkpt lat="30.8522550" lon="34.7870900">
<ele>480.599976</ele>
<time>2014-01-03T10:11:34.000Z</time>
</trkpt>
<trkpt lat="30.8521560" lon="34.7870200">
<ele>480.800018</ele>
<time>2014-01-03T10:11:37.000Z</time>
</trkpt>
<trkpt lat="30.8520670" lon="34.7869380">
<ele>481.000000</ele>
<time>2014-01-03T10:11:39.000Z</time>
</trkpt>
<trkpt lat="30.8519780" lon="34.7868720">
<ele>480.899994</ele>
<time>2014-01-03T10:11:42.000Z</time>
</trkpt>
<trkpt lat="30.8519610" lon="34.7867310">
<ele>481.000000</ele>
<time>2014-01-03T10:11:46.000Z</time>
</trkpt>
<trkpt lat="30.8519670" lon="34.7866110">
<ele>481.000000</ele>
<time>2014-01-03T10:11:50.000Z</time>
</trkpt>
<trkpt lat="30.8519270" lon="34.7864610">
<ele>481.100006</ele>
<time>2014-01-03T10:11:53.000Z</time>
</trkpt>
<trkpt lat="30.8519050" lon="34.7863510">
<ele>481.199982</ele>
<time>2014-01-03T10:11:54.000Z</time>
</trkpt>
<trkpt lat="30.8518940" lon="34.7862410">
<ele>481.199982</ele>
<time>2014-01-03T10:11:57.000Z</time>
</trkpt>
<trkpt lat="30.8518580" lon="34.7860860">
<ele>481.400024</ele>
<time>2014-01-03T10:12:00.000Z</time>
</trkpt>
<trkpt lat="30.8518360" lon="34.7859730">
<ele>481.400024</ele>
<time>2014-01-03T10:12:01.000Z</time>
</trkpt>
<trkpt lat="30.8518170" lon="34.7858550">
<ele>481.500000</ele>
<time>2014-01-03T10:12:04.000Z</time>
</trkpt>
<trkpt lat="30.8517750" lon="34.7856820">
<ele>481.500000</ele>
<time>2014-01-03T10:12:08.000Z</time>
</trkpt>
<trkpt lat="30.8517550" lon="34.7855760">
<ele>481.600006</ele>
<time>2014-01-03T10:12:09.000Z</time>
</trkpt>
<trkpt lat="30.8517190" lon="34.7854400">
<ele>481.600006</ele>
<time>2014-01-03T10:12:12.000Z</time>
</trkpt>
<trkpt lat="30.8516990" lon="34.7853260">
<ele>481.600006</ele>
<time>2014-01-03T10:12:13.000Z</time>
</trkpt>
<trkpt lat="30.8516720" lon="34.7851850">
<ele>481.600006</ele>
<time>2014-01-03T10:12:17.000Z</time>
</trkpt>
<trkpt lat="30.8516480" lon="34.7850370">
<ele>481.700012</ele>
<time>2014-01-03T10:12:20.000Z</time>
</trkpt>
<trkpt lat="30.8516320" lon="34.7849300">
<ele>481.799988</ele>
<time>2014-01-03T10:12:21.000Z</time>
</trkpt>
<trkpt lat="30.8516240" lon="34.7847880">
<ele>481.899994</ele>
<time>2014-01-03T10:12:25.000Z</time>
</trkpt>
<trkpt lat="30.8516250" lon="34.7846540">
<ele>482.000000</ele>
<time>2014-01-03T10:12:28.000Z</time>
</trkpt>
<trkpt lat="30.8515900" lon="34.7845220">
<ele>482.000000</ele>
<time>2014-01-03T10:12:31.000Z</time>
</trkpt>
<trkpt lat="30.8515390" lon="34.7843210">
<ele>481.600006</ele>
<time>2014-01-03T10:12:35.000Z</time>
</trkpt>
<trkpt lat="30.8515020" lon="34.7841700">
<ele>481.199982</ele>
<time>2014-01-03T10:12:37.000Z</time>
</trkpt>
<trkpt lat="30.8514730" lon="34.7840650">
<ele>480.899994</ele>
<time>2014-01-03T10:12:40.000Z</time>
</trkpt>
<trkpt lat="30.8514220" lon="34.7839180">
<ele>480.500000</ele>
<time>2014-01-03T10:12:43.000Z</time>
</trkpt>
<trkpt lat="30.8514080" lon="34.7838070">
<ele>480.200012</ele>
<time>2014-01-03T10:12:44.000Z</time>
</trkpt>
<trkpt lat="30.8513960" lon="34.7837000">
<ele>480.000000</ele>
<time>2014-01-03T10:12:47.000Z</time>
</trkpt>
<trkpt lat="30.8513630" lon="34.7836000">
<ele>480.000000</ele>
<time>2014-01-03T10:12:48.000Z</time>
</trkpt>
<trkpt lat="30.8513410" lon="34.7834870">
<ele>480.000000</ele>
<time>2014-01-03T10:12:51.000Z</time>
</trkpt>
<trkpt lat="30.8513230" lon="34.7833830">
<ele>480.000000</ele>
<time>2014-01-03T10:12:52.000Z</time>
</trkpt>
<trkpt lat="30.8512970" lon="34.7832290">
<ele>480.000000</ele>
<time>2014-01-03T10:12:55.000Z</time>
</trkpt>
<trkpt lat="30.8512710" lon="34.7830890">
<ele>480.000000</ele>
<time>2014-01-03T10:12:59.000Z</time>
</trkpt>
<trkpt lat="30.8512450" lon="34.7829400">
<ele>480.000000</ele>
<time>2014-01-03T10:13:02.000Z</time>
</trkpt>
<trkpt lat="30.8512200" lon="34.7827860">
<ele>480.299988</ele>
<time>2014-01-03T10:13:04.000Z</time>
</trkpt>
<trkpt lat="30.8512130" lon="34.7826720">
<ele>480.599976</ele>
<time>2014-01-03T10:13:07.000Z</time>
</trkpt>
<trkpt lat="30.8511790" lon="34.7825280">
<ele>480.899994</ele>
<time>2014-01-03T10:13:10.000Z</time>
</trkpt>
<trkpt lat="30.8511930" lon="34.7823930">
<ele>481.199982</ele>
<time>2014-01-03T10:13:12.000Z</time>
</trkpt>
<trkpt lat="30.8511810" lon="34.7824670">
<ele>481.000000</ele>
<time>2014-01-03T10:13:22.000Z</time>
</trkpt>
<trkpt lat="30.8512310" lon="34.7825650">
<ele>480.800018</ele>
<time>2014-01-03T10:13:29.000Z</time>
</trkpt>
<trkpt lat="30.8512510" lon="34.7826850">
<ele>480.599976</ele>
<time>2014-01-03T10:13:34.000Z</time>
</trkpt>
<trkpt lat="30.8512730" lon="34.7827870">
<ele>480.299988</ele>
<time>2014-01-03T10:13:39.000Z</time>
</trkpt>
<trkpt lat="30.8512900" lon="34.7828920">
<ele>480.000000</ele>
<time>2014-01-03T10:13:44.000Z</time>
</trkpt>
<trkpt lat="30.8512910" lon="34.7830120">
<ele>480.000000</ele>
<time>2014-01-03T10:13:48.000Z</time>
</trkpt>
<trkpt lat="30.8513010" lon="34.7831190">
<ele>480.000000</ele>
<time>2014-01-03T10:13:52.000Z</time>
</trkpt>
<trkpt lat="30.8512800" lon="34.7829730">
<ele>480.000000</ele>
<time>2014-01-03T10:13:57.000Z</time>
</trkpt>
<trkpt lat="30.8512350" lon="34.7828320">
<ele>480.200012</ele>
<time>2014-01-03T10:14:01.000Z</time>
</trkpt>
<trkpt lat="30.8512100" lon="34.7826930">
<ele>480.500000</ele>
<time>2014-01-03T10:14:04.000Z</time>
</trkpt>
<trkpt lat="30.8511900" lon="34.7825480">
<ele>480.899994</ele>
<time>2014-01-03T10:14:06.000Z</time>
</trkpt>
<trkpt lat="30.8511290" lon="34.7824340">
<ele>481.100006</ele>
<time>2014-01-03T10:14:09.000Z</time>
</trkpt>
<trkpt lat="30.8509970" lon="34.7824190">
<ele>481.000000</ele>
<time>2014-01-03T10:14:13.000Z</time>
</trkpt>
<trkpt lat="30.8509040" lon="34.7824400">
<ele>480.899994</ele>
<time>2014-01-03T10:14:15.000Z</time>
</trkpt>
<trkpt lat="30.8508120" lon="34.7824520">
<ele>480.800018</ele>
<time>2014-01-03T10:14:16.000Z</time>
</trkpt>
<trkpt lat="30.8507220" lon="34.7824650">
<ele>480.700012</ele>
<time>2014-01-03T10:14:19.000Z</time>
</trkpt>
<trkpt lat="30.8506080" lon="34.7824880">
<ele>480.599976</ele>
<time>2014-01-03T10:14:21.000Z</time>
</trkpt>
<trkpt lat="30.8505100" lon="34.7824900">
<ele>480.599976</ele>
<time>2014-01-03T10:14:24.000Z</time>
</trkpt>
<trkpt lat="30.8504100" lon="34.7824260">
<ele>480.599976</ele>
<time>2014-01-03T10:14:28.000Z</time>
</trkpt>
<trkpt lat="30.8503740" lon="34.7822940">
<ele>480.599976</ele>
<time>2014-01-03T10:14:31.000Z</time>
</trkpt>
<trkpt lat="30.8503600" lon="34.7821500">
<ele>480.800018</ele>
<time>2014-01-03T10:14:33.000Z</time>
</trkpt>
<trkpt lat="30.8503330" lon="34.7820100">
<ele>480.899994</ele>
<time>2014-01-03T10:14:36.000Z</time>
</trkpt>
<trkpt lat="30.8502960" lon="34.7818770">
<ele>481.000000</ele>
<time>2014-01-03T10:14:40.000Z</time>
</trkpt>
<trkpt lat="30.8502770" lon="34.7817380">
<ele>481.100006</ele>
<time>2014-01-03T10:14:43.000Z</time>
</trkpt>
<trkpt lat="30.8502530" lon="34.7815960">
<ele>481.299988</ele>
<time>2014-01-03T10:14:46.000Z</time>
</trkpt>
<trkpt lat="30.8502260" lon="34.7814530">
<ele>481.500000</ele>
<time>2014-01-03T10:14:48.000Z</time>
</trkpt>
<trkpt lat="30.8501940" lon="34.7813050">
<ele>481.600006</ele>
<time>2014-01-03T10:14:51.000Z</time>
</trkpt>
<trkpt lat="30.8501680" lon="34.7811560">
<ele>481.700012</ele>
<time>2014-01-03T10:14:55.000Z</time>
</trkpt>
<trkpt lat="30.8501520" lon="34.7810190">
<ele>481.799988</ele>
<time>2014-01-03T10:14:58.000Z</time>
</trkpt>
<trkpt lat="30.8501270" lon="34.7809130">
<ele>481.799988</ele>
<time>2014-01-03T10:14:59.000Z</time>
</trkpt>
<trkpt lat="30.8501020" lon="34.7807760">
<ele>481.799988</ele>
<time>2014-01-03T10:15:03.000Z</time>
</trkpt>
<trkpt lat="30.8500760" lon="34.7806390">
<ele>481.899994</ele>
<time>2014-01-03T10:15:06.000Z</time>
</trkpt>
<trkpt lat="30.8500420" lon="34.7805030">
<ele>482.000000</ele>
<time>2014-01-03T10:15:09.000Z</time>
</trkpt>
<trkpt lat="30.8500230" lon="34.7803660">
<ele>481.899994</ele>
<time>2014-01-03T10:15:11.000Z</time>
</trkpt>
<trkpt lat="30.8500030" lon="34.7802260">
<ele>481.799988</ele>
<time>2014-01-03T10:15:14.000Z</time>
</trkpt>
<trkpt lat="30.8499830" lon="34.7800890">
<ele>481.600006</ele>
<time>2014-01-03T10:15:18.000Z</time>
</trkpt>
<trkpt lat="30.8499800" lon="34.7799540">
<ele>481.500000</ele>
<time>2014-01-03T10:15:21.000Z</time>
</trkpt>
<trkpt lat="30.8499870" lon="34.7798160">
<ele>481.299988</ele>
<time>2014-01-03T10:15:23.000Z</time>
</trkpt>
<trkpt lat="30.8499890" lon="34.7796760">
<ele>481.100006</ele>
<time>2014-01-03T10:15:26.000Z</time>
</trkpt>
<trkpt lat="30.8499810" lon="34.7795380">
<ele>480.899994</ele>
<time>2014-01-03T10:15:30.000Z</time>
</trkpt>
<trkpt lat="30.8499810" lon="34.7794080">
<ele>480.599976</ele>
<time>2014-01-03T10:15:33.000Z</time>
</trkpt>
<trkpt lat="30.8499670" lon="34.7792950">
<ele>480.299988</ele>
<time>2014-01-03T10:15:36.000Z</time>
</trkpt>
<trkpt lat="30.8499060" lon="34.7792170">
<ele>480.100006</ele>
<time>2014-01-03T10:15:38.000Z</time>
</trkpt>
<trkpt lat="30.8498490" lon="34.7792380">
<ele>480.200012</ele>
<time>2014-01-03T10:15:49.000Z</time>
</trkpt>
<trkpt lat="30.8498570" lon="34.7792580">
<ele>480.299988</ele>
<time>2014-01-03T10:16:28.000Z</time>
</trkpt>
</trkseg>
</trk>
</gpx>
